<?xml version='1.0' encoding='UTF-8'?><gpx version="1.1" creator="JPX - https://github.com/jenetics/jpx" xmlns="http://www.topografix.com/GPX/1/1"><trk><trkseg><trkpt lat="43.4221314" lon="11.1811746"><ele>173.42857142857142</ele><time>2026-04-05T06:22:11.149Z</time></trkpt><trkpt lat="43.4221949" lon="11.1811246"><ele>172.85714285714286</ele><time>2026-04-05T06:22:16.151Z</time></trkpt><trkpt lat="43.4222592" lon="11.1811194"><ele>172.28571428571428</ele><time>2026-04-05T06:22:21.152Z</time></trkpt><trkpt lat="43.422298" lon="11.1812001"><ele>171.71428571428572</ele><time>2026-04-05T06:22:25.138Z</time></trkpt><trkpt lat="43.4223107" lon="11.181302"><ele>171.14285714285714</ele><time>2026-04-05T06:22:29.16Z</time></trkpt><trkpt lat="43.4223432" lon="11.1813975"><ele>170.57142857142858</ele><time>2026-04-05T06:22:32.135Z</time></trkpt><trkpt lat="43.4223575" lon="11.1814932"><ele>170.0</ele><time>2026-04-05T06:22:34.152Z</time></trkpt><trkpt lat="43.42234" lon="11.1815921"><ele>170.0</ele><time>2026-04-05T06:22:36.146Z</time></trkpt><trkpt lat="43.4223048" lon="11.1816773"><ele>170.0</ele><time>2026-04-05T06:22:38.142Z</time></trkpt><trkpt lat="43.4222645" lon="11.1817453"><ele>170.0</ele><time>2026-04-05T06:22:40.149Z</time></trkpt><trkpt lat="43.4221984" lon="11.1818364"><ele>170.0</ele><time>2026-04-05T06:22:43.143Z</time></trkpt><trkpt lat="43.4221373" lon="11.1819214"><ele>170.0</ele><time>2026-04-05T06:22:46.155Z</time></trkpt><trkpt lat="43.4220838" lon="11.1819841"><ele>170.0</ele><time>2026-04-05T06:22:49.135Z</time></trkpt><trkpt lat="43.4220509" lon="11.1820797"><ele>170.66666666666666</ele><time>2026-04-05T06:22:53.14Z</time></trkpt><trkpt lat="43.4220116" lon="11.1819717"><ele>171.33333333333331</ele><time>2026-04-05T06:22:58.148Z</time></trkpt><trkpt lat="43.4219817" lon="11.1818581"><ele>172.0</ele><time>2026-04-05T06:23:01.148Z</time></trkpt><trkpt lat="43.4219403" lon="11.1817508"><ele>172.66666666666666</ele><time>2026-04-05T06:23:04.142Z</time></trkpt><trkpt lat="43.4219034" lon="11.1816407"><ele>173.33333333333334</ele><time>2026-04-05T06:23:07.162Z</time></trkpt><trkpt lat="43.4218753" lon="11.1815171"><ele>174.0</ele><time>2026-04-05T06:23:10.151Z</time></trkpt><trkpt lat="43.4218464" lon="11.1814369"><ele>174.0</ele><time>2026-04-05T06:23:12.149Z</time></trkpt><trkpt lat="43.4218148" lon="11.1813603"><ele>174.0</ele><time>2026-04-05T06:23:14.151Z</time></trkpt><trkpt lat="43.4217731" lon="11.1812491"><ele>174.0</ele><time>2026-04-05T06:23:17.152Z</time></trkpt><trkpt lat="43.4217425" lon="11.181173"><ele>174.0</ele><time>2026-04-05T06:23:19.139Z</time></trkpt><trkpt lat="43.4217022" lon="11.1810541"><ele>174.0</ele><time>2026-04-05T06:23:22.144Z</time></trkpt><trkpt lat="43.4216777" lon="11.1809686"><ele>174.0</ele><time>2026-04-05T06:23:24.165Z</time></trkpt><trkpt lat="43.4216391" lon="11.1808559"><ele>174.0</ele><time>2026-04-05T06:23:27.143Z</time></trkpt><trkpt lat="43.4216071" lon="11.180746"><ele>174.0</ele><time>2026-04-05T06:23:30.143Z</time></trkpt><trkpt lat="43.421577" lon="11.1806366"><ele>174.0</ele><time>2026-04-05T06:23:33.159Z</time></trkpt><trkpt lat="43.4215469" lon="11.180538"><ele>174.0</ele><time>2026-04-05T06:23:36.162Z</time></trkpt><trkpt lat="43.4215211" lon="11.180444"><ele>174.0</ele><time>2026-04-05T06:23:39.174Z</time></trkpt><trkpt lat="43.421503" lon="11.1803512"><ele>174.0</ele><time>2026-04-05T06:23:42.164Z</time></trkpt><trkpt lat="43.4214956" lon="11.1802373"><ele>173.83333333333334</ele><time>2026-04-05T06:23:45.167Z</time></trkpt><trkpt lat="43.4215121" lon="11.1801296"><ele>173.66666666666666</ele><time>2026-04-05T06:23:48.145Z</time></trkpt><trkpt lat="43.4215451" lon="11.180025"><ele>173.5</ele><time>2026-04-05T06:23:51.157Z</time></trkpt><trkpt lat="43.4215844" lon="11.1799215"><ele>173.33333333333331</ele><time>2026-04-05T06:23:54.181Z</time></trkpt><trkpt lat="43.4216416" lon="11.1798368"><ele>173.16666666666666</ele><time>2026-04-05T06:23:57.149Z</time></trkpt><trkpt lat="43.4217155" lon="11.1797668"><ele>173.0</ele><time>2026-04-05T06:24:00.143Z</time></trkpt><trkpt lat="43.4217738" lon="11.1797308"><ele>173.42857142857142</ele><time>2026-04-05T06:24:02.141Z</time></trkpt><trkpt lat="43.4218358" lon="11.1797016"><ele>173.85714285714286</ele><time>2026-04-05T06:24:04.156Z</time></trkpt><trkpt lat="43.4218996" lon="11.179669"><ele>174.28571428571428</ele><time>2026-04-05T06:24:06.166Z</time></trkpt><trkpt lat="43.4219587" lon="11.1796343"><ele>174.71428571428572</ele><time>2026-04-05T06:24:08.152Z</time></trkpt><trkpt lat="43.4220234" lon="11.1796027"><ele>175.14285714285714</ele><time>2026-04-05T06:24:10.162Z</time></trkpt><trkpt lat="43.4220901" lon="11.1795739"><ele>175.57142857142858</ele><time>2026-04-05T06:24:12.158Z</time></trkpt><trkpt lat="43.4221547" lon="11.1795466"><ele>176.0</ele><time>2026-04-05T06:24:14.163Z</time></trkpt><trkpt lat="43.4222292" lon="11.1795152"><ele>176.4</ele><time>2026-04-05T06:24:16.153Z</time></trkpt><trkpt lat="43.4223086" lon="11.1794854"><ele>176.8</ele><time>2026-04-05T06:24:18.17Z</time></trkpt><trkpt lat="43.4223928" lon="11.1794628"><ele>177.20000000000002</ele><time>2026-04-05T06:24:20.146Z</time></trkpt><trkpt lat="43.4224815" lon="11.1794432"><ele>177.60000000000002</ele><time>2026-04-05T06:24:22.142Z</time></trkpt><trkpt lat="43.4225729" lon="11.1794173"><ele>178.0</ele><time>2026-04-05T06:24:24.151Z</time></trkpt><trkpt lat="43.4226722" lon="11.1793938"><ele>178.0</ele><time>2026-04-05T06:24:26.142Z</time></trkpt><trkpt lat="43.4227711" lon="11.1793692"><ele>178.0</ele><time>2026-04-05T06:24:28.135Z</time></trkpt><trkpt lat="43.4228807" lon="11.1793412"><ele>178.0</ele><time>2026-04-05T06:24:30.138Z</time></trkpt><trkpt lat="43.4229871" lon="11.1793096"><ele>178.0</ele><time>2026-04-05T06:24:32.146Z</time></trkpt><trkpt lat="43.4230959" lon="11.1792972"><ele>178.0</ele><time>2026-04-05T06:24:34.143Z</time></trkpt><trkpt lat="43.4232054" lon="11.1792646"><ele>177.0</ele><time>2026-04-05T06:24:36.166Z</time></trkpt><trkpt lat="43.4233139" lon="11.1792316"><ele>176.0</ele><time>2026-04-05T06:24:38.142Z</time></trkpt><trkpt lat="43.4234266" lon="11.1792032"><ele>175.0</ele><time>2026-04-05T06:24:40.158Z</time></trkpt><trkpt lat="43.4235358" lon="11.1791699"><ele>174.0</ele><time>2026-04-05T06:24:42.138Z</time></trkpt><trkpt lat="43.4236457" lon="11.1791437"><ele>173.0</ele><time>2026-04-05T06:24:44.151Z</time></trkpt><trkpt lat="43.4237548" lon="11.1791163"><ele>172.60000000000002</ele><time>2026-04-05T06:24:46.139Z</time></trkpt><trkpt lat="43.4238629" lon="11.1790896"><ele>172.20000000000002</ele><time>2026-04-05T06:24:48.16Z</time></trkpt><trkpt lat="43.4239694" lon="11.1790547"><ele>171.8</ele><time>2026-04-05T06:24:50.143Z</time></trkpt><trkpt lat="43.4240811" lon="11.1790382"><ele>171.4</ele><time>2026-04-05T06:24:52.151Z</time></trkpt><trkpt lat="43.4241946" lon="11.1790149"><ele>171.0</ele><time>2026-04-05T06:24:54.136Z</time></trkpt><trkpt lat="43.4243112" lon="11.1789854"><ele>171.16666666666666</ele><time>2026-04-05T06:24:56.141Z</time></trkpt><trkpt lat="43.4244386" lon="11.1789568"><ele>171.33333333333334</ele><time>2026-04-05T06:24:58.175Z</time></trkpt><trkpt lat="43.4245047" lon="11.1789448"><ele>171.5</ele><time>2026-04-05T06:24:59.158Z</time></trkpt><trkpt lat="43.4245719" lon="11.1789297"><ele>171.66666666666669</ele><time>2026-04-05T06:25:00.145Z</time></trkpt><trkpt lat="43.4246354" lon="11.1789132"><ele>171.83333333333334</ele><time>2026-04-05T06:25:01.153Z</time></trkpt><trkpt lat="43.4247544" lon="11.1788877"><ele>172.0</ele><time>2026-04-05T06:25:03.146Z</time></trkpt><trkpt lat="43.4248179" lon="11.1788802"><ele>172.00000000000003</ele><time>2026-04-05T06:25:04.137Z</time></trkpt><trkpt lat="43.4248863" lon="11.1788728"><ele>172.0</ele><time>2026-04-05T06:25:05.144Z</time></trkpt><trkpt lat="43.4249578" lon="11.1788659"><ele>172.0</ele><time>2026-04-05T06:25:06.153Z</time></trkpt><trkpt lat="43.425029" lon="11.1788597"><ele>172.0</ele><time>2026-04-05T06:25:07.147Z</time></trkpt><trkpt lat="43.4251039" lon="11.178855"><ele>172.0</ele><time>2026-04-05T06:25:08.149Z</time></trkpt><trkpt lat="43.4251815" lon="11.1788581"><ele>172.00000000000003</ele><time>2026-04-05T06:25:09.134Z</time></trkpt><trkpt lat="43.4252609" lon="11.1788705"><ele>172.0</ele><time>2026-04-05T06:25:10.133Z</time></trkpt><trkpt lat="43.4253439" lon="11.1788853"><ele>172.0</ele><time>2026-04-05T06:25:11.153Z</time></trkpt><trkpt lat="43.4254284" lon="11.178901"><ele>172.0</ele><time>2026-04-05T06:25:12.164Z</time></trkpt><trkpt lat="43.4255131" lon="11.1789208"><ele>172.0</ele><time>2026-04-05T06:25:13.144Z</time></trkpt><trkpt lat="43.4255949" lon="11.1789545"><ele>172.0</ele><time>2026-04-05T06:25:14.159Z</time></trkpt><trkpt lat="43.4256644" lon="11.1790094"><ele>172.0</ele><time>2026-04-05T06:25:15.159Z</time></trkpt><trkpt lat="43.425718" lon="11.1790795"><ele>172.0</ele><time>2026-04-05T06:25:16.149Z</time></trkpt><trkpt lat="43.4257612" lon="11.1791543"><ele>171.2</ele><time>2026-04-05T06:25:17.147Z</time></trkpt><trkpt lat="43.4258075" lon="11.1792205"><ele>170.39999999999998</ele><time>2026-04-05T06:25:18.136Z</time></trkpt><trkpt lat="43.4259237" lon="11.1792691"><ele>169.60000000000002</ele><time>2026-04-05T06:25:20.162Z</time></trkpt><trkpt lat="43.425986" lon="11.179251"><ele>168.8</ele><time>2026-04-05T06:25:21.14Z</time></trkpt><trkpt lat="43.4260741" lon="11.1791374"><ele>168.0</ele><time>2026-04-05T06:25:23.146Z</time></trkpt><trkpt lat="43.4260994" lon="11.178996"><ele>168.0</ele><time>2026-04-05T06:25:25.155Z</time></trkpt><trkpt lat="43.4261074" lon="11.1788597"><ele>168.0</ele><time>2026-04-05T06:25:27.14Z</time></trkpt><trkpt lat="43.4261379" lon="11.1787378"><ele>168.0</ele><time>2026-04-05T06:25:29.149Z</time></trkpt><trkpt lat="43.4261833" lon="11.1786338"><ele>168.0</ele><time>2026-04-05T06:25:31.156Z</time></trkpt><trkpt lat="43.4262337" lon="11.178544"><ele>168.0</ele><time>2026-04-05T06:25:33.152Z</time></trkpt><trkpt lat="43.426294" lon="11.1784556"><ele>167.5</ele><time>2026-04-05T06:25:35.139Z</time></trkpt><trkpt lat="43.4263512" lon="11.1783685"><ele>167.0</ele><time>2026-04-05T06:25:37.155Z</time></trkpt><trkpt lat="43.4264005" lon="11.1782821"><ele>166.5</ele><time>2026-04-05T06:25:39.137Z</time></trkpt><trkpt lat="43.4264487" lon="11.1781906"><ele>166.0</ele><time>2026-04-05T06:25:41.159Z</time></trkpt><trkpt lat="43.4264957" lon="11.1780976"><ele>165.5</ele><time>2026-04-05T06:25:43.151Z</time></trkpt><trkpt lat="43.4265427" lon="11.1780111"><ele>165.0</ele><time>2026-04-05T06:25:45.147Z</time></trkpt><trkpt lat="43.4265842" lon="11.1779153"><ele>165.0</ele><time>2026-04-05T06:25:47.134Z</time></trkpt><trkpt lat="43.42664" lon="11.177822"><ele>165.0</ele><time>2026-04-05T06:25:49.151Z</time></trkpt><trkpt lat="43.4266952" lon="11.1777271"><ele>165.0</ele><time>2026-04-05T06:25:51.149Z</time></trkpt><trkpt lat="43.4267465" lon="11.1776192"><ele>165.0</ele><time>2026-04-05T06:25:53.142Z</time></trkpt><trkpt lat="43.4267982" lon="11.1775132"><ele>165.0</ele><time>2026-04-05T06:25:55.153Z</time></trkpt><trkpt lat="43.4268537" lon="11.1774085"><ele>165.0</ele><time>2026-04-05T06:25:57.142Z</time></trkpt><trkpt lat="43.4269181" lon="11.1773083"><ele>165.0</ele><time>2026-04-05T06:25:59.148Z</time></trkpt><trkpt lat="43.4269797" lon="11.1772016"><ele>165.0</ele><time>2026-04-05T06:26:01.154Z</time></trkpt><trkpt lat="43.4270353" lon="11.1770975"><ele>165.0</ele><time>2026-04-05T06:26:03.154Z</time></trkpt><trkpt lat="43.427093" lon="11.1769775"><ele>165.0</ele><time>2026-04-05T06:26:05.133Z</time></trkpt><trkpt lat="43.4271464" lon="11.1768604"><ele>164.4</ele><time>2026-04-05T06:26:07.148Z</time></trkpt><trkpt lat="43.4271898" lon="11.1767374"><ele>163.8</ele><time>2026-04-05T06:26:09.152Z</time></trkpt><trkpt lat="43.4272222" lon="11.1766003"><ele>163.2</ele><time>2026-04-05T06:26:11.162Z</time></trkpt><trkpt lat="43.4272436" lon="11.1764527"><ele>162.6</ele><time>2026-04-05T06:26:13.152Z</time></trkpt><trkpt lat="43.4272524" lon="11.1763183"><ele>162.0</ele><time>2026-04-05T06:26:15.156Z</time></trkpt><trkpt lat="43.4272545" lon="11.1761798"><ele>162.0</ele><time>2026-04-05T06:26:17.151Z</time></trkpt><trkpt lat="43.4272571" lon="11.1760387"><ele>162.0</ele><time>2026-04-05T06:26:19.152Z</time></trkpt><trkpt lat="43.4272599" lon="11.1759018"><ele>162.0</ele><time>2026-04-05T06:26:21.138Z</time></trkpt><trkpt lat="43.4272638" lon="11.1757631"><ele>162.0</ele><time>2026-04-05T06:26:23.15Z</time></trkpt><trkpt lat="43.4272768" lon="11.1756271"><ele>162.0</ele><time>2026-04-05T06:26:25.173Z</time></trkpt><trkpt lat="43.427323" lon="11.1755137"><ele>163.39999999999998</ele><time>2026-04-05T06:26:27.14Z</time></trkpt><trkpt lat="43.4273953" lon="11.1754305"><ele>164.79999999999998</ele><time>2026-04-05T06:26:29.153Z</time></trkpt><trkpt lat="43.4274822" lon="11.1753707"><ele>166.2</ele><time>2026-04-05T06:26:31.157Z</time></trkpt><trkpt lat="43.4275659" lon="11.1753231"><ele>167.6</ele><time>2026-04-05T06:26:33.148Z</time></trkpt><trkpt lat="43.4276459" lon="11.1752777"><ele>169.0</ele><time>2026-04-05T06:26:35.143Z</time></trkpt><trkpt lat="43.4277253" lon="11.175246"><ele>169.0</ele><time>2026-04-05T06:26:37.139Z</time></trkpt><trkpt lat="43.4277996" lon="11.1752079"><ele>169.0</ele><time>2026-04-05T06:26:39.159Z</time></trkpt><trkpt lat="43.4278658" lon="11.1751582"><ele>169.0</ele><time>2026-04-05T06:26:41.151Z</time></trkpt><trkpt lat="43.4279376" lon="11.1751258"><ele>169.0</ele><time>2026-04-05T06:26:43.15Z</time></trkpt><trkpt lat="43.4280032" lon="11.1750966"><ele>169.0</ele><time>2026-04-05T06:26:45.143Z</time></trkpt><trkpt lat="43.4280651" lon="11.175068"><ele>169.0</ele><time>2026-04-05T06:26:47.143Z</time></trkpt><trkpt lat="43.4281474" lon="11.1750275"><ele>168.5</ele><time>2026-04-05T06:26:50.141Z</time></trkpt><trkpt lat="43.4282333" lon="11.1749888"><ele>168.0</ele><time>2026-04-05T06:26:53.151Z</time></trkpt><trkpt lat="43.4283205" lon="11.1749628"><ele>167.5</ele><time>2026-04-05T06:26:56.156Z</time></trkpt><trkpt lat="43.428381" lon="11.1749376"><ele>167.0</ele><time>2026-04-05T06:26:58.148Z</time></trkpt><trkpt lat="43.4284387" lon="11.1749011"><ele>166.5</ele><time>2026-04-05T06:27:00.144Z</time></trkpt><trkpt lat="43.4285151" lon="11.1748576"><ele>166.0</ele><time>2026-04-05T06:27:03.146Z</time></trkpt><trkpt lat="43.4285889" lon="11.1748167"><ele>167.28571428571428</ele><time>2026-04-05T06:27:06.133Z</time></trkpt><trkpt lat="43.4286622" lon="11.1747877"><ele>168.57142857142858</ele><time>2026-04-05T06:27:09.165Z</time></trkpt><trkpt lat="43.4287438" lon="11.1747593"><ele>169.85714285714286</ele><time>2026-04-05T06:27:12.149Z</time></trkpt><trkpt lat="43.4288073" lon="11.1747547"><ele>171.14285714285714</ele><time>2026-04-05T06:27:14.148Z</time></trkpt><trkpt lat="43.4288742" lon="11.1747511"><ele>172.42857142857144</ele><time>2026-04-05T06:27:16.144Z</time></trkpt><trkpt lat="43.4289418" lon="11.1747477"><ele>173.71428571428572</ele><time>2026-04-05T06:27:18.146Z</time></trkpt><trkpt lat="43.4290149" lon="11.1747559"><ele>175.0</ele><time>2026-04-05T06:27:20.141Z</time></trkpt><trkpt lat="43.4290919" lon="11.1747707"><ele>175.0</ele><time>2026-04-05T06:27:22.148Z</time></trkpt><trkpt lat="43.42916" lon="11.1748044"><ele>175.0</ele><time>2026-04-05T06:27:24.159Z</time></trkpt><trkpt lat="43.4292192" lon="11.174869"><ele>175.0</ele><time>2026-04-05T06:27:26.144Z</time></trkpt><trkpt lat="43.429278" lon="11.1749465"><ele>175.0</ele><time>2026-04-05T06:27:28.137Z</time></trkpt><trkpt lat="43.4293441" lon="11.1750192"><ele>175.0</ele><time>2026-04-05T06:27:30.144Z</time></trkpt><trkpt lat="43.4294084" lon="11.1750863"><ele>175.0</ele><time>2026-04-05T06:27:32.137Z</time></trkpt><trkpt lat="43.4294759" lon="11.1751649"><ele>174.0</ele><time>2026-04-05T06:27:34.13Z</time></trkpt><trkpt lat="43.4295356" lon="11.1752549"><ele>173.0</ele><time>2026-04-05T06:27:36.144Z</time></trkpt><trkpt lat="43.4296046" lon="11.1753484"><ele>172.0</ele><time>2026-04-05T06:27:38.136Z</time></trkpt><trkpt lat="43.429676" lon="11.1754401"><ele>171.0</ele><time>2026-04-05T06:27:40.14Z</time></trkpt><trkpt lat="43.4297532" lon="11.1755221"><ele>170.0</ele><time>2026-04-05T06:27:42.152Z</time></trkpt><trkpt lat="43.429826" lon="11.1756166"><ele>169.0</ele><time>2026-04-05T06:27:44.15Z</time></trkpt><trkpt lat="43.429913" lon="11.175684"><ele>168.0</ele><time>2026-04-05T06:27:46.152Z</time></trkpt><trkpt lat="43.4300152" lon="11.1757014"><ele>167.0</ele><time>2026-04-05T06:27:48.142Z</time></trkpt><trkpt lat="43.4301267" lon="11.1756773"><ele>166.0</ele><time>2026-04-05T06:27:50.144Z</time></trkpt><trkpt lat="43.4302293" lon="11.1755998"><ele>165.0</ele><time>2026-04-05T06:27:52.145Z</time></trkpt><trkpt lat="43.4303061" lon="11.1754824"><ele>165.0</ele><time>2026-04-05T06:27:54.156Z</time></trkpt><trkpt lat="43.4303651" lon="11.1753367"><ele>165.0</ele><time>2026-04-05T06:27:56.144Z</time></trkpt><trkpt lat="43.4304256" lon="11.1751948"><ele>165.0</ele><time>2026-04-05T06:27:58.132Z</time></trkpt><trkpt lat="43.430503" lon="11.1750835"><ele>165.0</ele><time>2026-04-05T06:28:00.141Z</time></trkpt><trkpt lat="43.4306077" lon="11.1750459"><ele>164.4</ele><time>2026-04-05T06:28:02.146Z</time></trkpt><trkpt lat="43.4307071" lon="11.1750182"><ele>163.8</ele><time>2026-04-05T06:28:04.141Z</time></trkpt><trkpt lat="43.4308073" lon="11.1749962"><ele>163.2</ele><time>2026-04-05T06:28:06.144Z</time></trkpt><trkpt lat="43.4309111" lon="11.1750112"><ele>162.6</ele><time>2026-04-05T06:28:08.143Z</time></trkpt><trkpt lat="43.4309961" lon="11.1750686"><ele>162.0</ele><time>2026-04-05T06:28:10.144Z</time></trkpt><trkpt lat="43.4310631" lon="11.1751656"><ele>162.0</ele><time>2026-04-05T06:28:12.145Z</time></trkpt><trkpt lat="43.4311169" lon="11.1752916"><ele>162.0</ele><time>2026-04-05T06:28:14.133Z</time></trkpt><trkpt lat="43.4311516" lon="11.1754223"><ele>162.0</ele><time>2026-04-05T06:28:16.146Z</time></trkpt><trkpt lat="43.4311837" lon="11.1755513"><ele>162.0</ele><time>2026-04-05T06:28:18.147Z</time></trkpt><trkpt lat="43.4312204" lon="11.1756767"><ele>162.0</ele><time>2026-04-05T06:28:20.16Z</time></trkpt><trkpt lat="43.4312497" lon="11.1757908"><ele>162.16666666666666</ele><time>2026-04-05T06:28:22.135Z</time></trkpt><trkpt lat="43.4312886" lon="11.1758962"><ele>162.33333333333334</ele><time>2026-04-05T06:28:24.149Z</time></trkpt><trkpt lat="43.4313384" lon="11.1759852"><ele>162.5</ele><time>2026-04-05T06:28:26.161Z</time></trkpt><trkpt lat="43.4314042" lon="11.1760694"><ele>162.66666666666669</ele><time>2026-04-05T06:28:28.148Z</time></trkpt><trkpt lat="43.4314758" lon="11.1761617"><ele>162.83333333333334</ele><time>2026-04-05T06:28:30.144Z</time></trkpt><trkpt lat="43.4315475" lon="11.1762453"><ele>163.0</ele><time>2026-04-05T06:28:32.151Z</time></trkpt><trkpt lat="43.431626" lon="11.1763207"><ele>163.0</ele><time>2026-04-05T06:28:34.145Z</time></trkpt><trkpt lat="43.4317032" lon="11.1763941"><ele>163.0</ele><time>2026-04-05T06:28:36.157Z</time></trkpt><trkpt lat="43.4317812" lon="11.1764683"><ele>163.0</ele><time>2026-04-05T06:28:38.144Z</time></trkpt><trkpt lat="43.4318572" lon="11.1765452"><ele>163.0</ele><time>2026-04-05T06:28:40.135Z</time></trkpt><trkpt lat="43.4319389" lon="11.1766254"><ele>163.0</ele><time>2026-04-05T06:28:42.156Z</time></trkpt><trkpt lat="43.4320131" lon="11.1767127"><ele>162.20000000000002</ele><time>2026-04-05T06:28:44.142Z</time></trkpt><trkpt lat="43.4320879" lon="11.1767934"><ele>161.4</ele><time>2026-04-05T06:28:46.135Z</time></trkpt><trkpt lat="43.4321655" lon="11.1768722"><ele>160.60000000000002</ele><time>2026-04-05T06:28:48.151Z</time></trkpt><trkpt lat="43.4322415" lon="11.1769485"><ele>159.8</ele><time>2026-04-05T06:28:50.161Z</time></trkpt><trkpt lat="43.4323245" lon="11.1770085"><ele>159.0</ele><time>2026-04-05T06:28:52.168Z</time></trkpt><trkpt lat="43.4324088" lon="11.1770534"><ele>159.0</ele><time>2026-04-05T06:28:54.147Z</time></trkpt><trkpt lat="43.4324932" lon="11.1770819"><ele>159.0</ele><time>2026-04-05T06:28:56.147Z</time></trkpt><trkpt lat="43.4325787" lon="11.1770948"><ele>159.0</ele><time>2026-04-05T06:28:58.129Z</time></trkpt><trkpt lat="43.4326759" lon="11.1770852"><ele>159.0</ele><time>2026-04-05T06:29:00.142Z</time></trkpt><trkpt lat="43.4327702" lon="11.1770565"><ele>159.0</ele><time>2026-04-05T06:29:02.159Z</time></trkpt><trkpt lat="43.432862" lon="11.1770266"><ele>159.0</ele><time>2026-04-05T06:29:04.146Z</time></trkpt><trkpt lat="43.4329472" lon="11.1769847"><ele>159.0</ele><time>2026-04-05T06:29:06.15Z</time></trkpt><trkpt lat="43.4330289" lon="11.1769384"><ele>159.0</ele><time>2026-04-05T06:29:08.143Z</time></trkpt><trkpt lat="43.433122" lon="11.1768974"><ele>159.0</ele><time>2026-04-05T06:29:10.147Z</time></trkpt><trkpt lat="43.4332182" lon="11.1768547"><ele>159.0</ele><time>2026-04-05T06:29:12.149Z</time></trkpt><trkpt lat="43.4333139" lon="11.1768073"><ele>158.6</ele><time>2026-04-05T06:29:14.144Z</time></trkpt><trkpt lat="43.4334125" lon="11.1767646"><ele>158.2</ele><time>2026-04-05T06:29:16.154Z</time></trkpt><trkpt lat="43.4335165" lon="11.1767211"><ele>157.79999999999998</ele><time>2026-04-05T06:29:18.135Z</time></trkpt><trkpt lat="43.4336142" lon="11.1766645"><ele>157.4</ele><time>2026-04-05T06:29:20.145Z</time></trkpt><trkpt lat="43.4337118" lon="11.1766158"><ele>157.0</ele><time>2026-04-05T06:29:22.136Z</time></trkpt><trkpt lat="43.433801" lon="11.1765667"><ele>157.33333333333334</ele><time>2026-04-05T06:29:24.157Z</time></trkpt><trkpt lat="43.4338905" lon="11.1765107"><ele>157.66666666666669</ele><time>2026-04-05T06:29:26.147Z</time></trkpt><trkpt lat="43.4339747" lon="11.1764561"><ele>158.0</ele><time>2026-04-05T06:29:28.161Z</time></trkpt><trkpt lat="43.4340531" lon="11.1763978"><ele>158.33333333333334</ele><time>2026-04-05T06:29:30.16Z</time></trkpt><trkpt lat="43.4341265" lon="11.176344"><ele>158.66666666666666</ele><time>2026-04-05T06:29:32.147Z</time></trkpt><trkpt lat="43.4341993" lon="11.1762879"><ele>159.0</ele><time>2026-04-05T06:29:34.14Z</time></trkpt><trkpt lat="43.4342749" lon="11.1762273"><ele>159.0</ele><time>2026-04-05T06:29:36.144Z</time></trkpt><trkpt lat="43.434356" lon="11.1761612"><ele>159.0</ele><time>2026-04-05T06:29:38.157Z</time></trkpt><trkpt lat="43.4344305" lon="11.1760885"><ele>159.0</ele><time>2026-04-05T06:29:40.142Z</time></trkpt><trkpt lat="43.4345" lon="11.176009"><ele>159.0</ele><time>2026-04-05T06:29:42.161Z</time></trkpt><trkpt lat="43.4345718" lon="11.1759264"><ele>159.0</ele><time>2026-04-05T06:29:44.137Z</time></trkpt><trkpt lat="43.4346488" lon="11.1758479"><ele>158.4</ele><time>2026-04-05T06:29:46.134Z</time></trkpt><trkpt lat="43.434722" lon="11.1757465"><ele>157.8</ele><time>2026-04-05T06:29:48.144Z</time></trkpt><trkpt lat="43.434803" lon="11.1756424"><ele>157.2</ele><time>2026-04-05T06:29:50.164Z</time></trkpt><trkpt lat="43.4348906" lon="11.1755459"><ele>156.6</ele><time>2026-04-05T06:29:52.159Z</time></trkpt><trkpt lat="43.4349801" lon="11.1754501"><ele>156.0</ele><time>2026-04-05T06:29:54.142Z</time></trkpt><trkpt lat="43.4350651" lon="11.1753404"><ele>155.85714285714286</ele><time>2026-04-05T06:29:56.159Z</time></trkpt><trkpt lat="43.4351575" lon="11.1752253"><ele>155.7142857142857</ele><time>2026-04-05T06:29:58.156Z</time></trkpt><trkpt lat="43.4352059" lon="11.1751659"><ele>155.57142857142856</ele><time>2026-04-05T06:29:59.141Z</time></trkpt><trkpt lat="43.4352551" lon="11.1751066"><ele>155.42857142857144</ele><time>2026-04-05T06:30:00.137Z</time></trkpt><trkpt lat="43.435303" lon="11.1750479"><ele>155.28571428571428</ele><time>2026-04-05T06:30:01.145Z</time></trkpt><trkpt lat="43.4353505" lon="11.1749886"><ele>155.14285714285714</ele><time>2026-04-05T06:30:02.14Z</time></trkpt><trkpt lat="43.4353979" lon="11.1749313"><ele>155.0</ele><time>2026-04-05T06:30:03.149Z</time></trkpt><trkpt lat="43.4354447" lon="11.1748705"><ele>154.85714285714286</ele><time>2026-04-05T06:30:04.143Z</time></trkpt><trkpt lat="43.4354909" lon="11.1748082"><ele>154.71428571428572</ele><time>2026-04-05T06:30:05.15Z</time></trkpt><trkpt lat="43.4355378" lon="11.1747475"><ele>154.57142857142856</ele><time>2026-04-05T06:30:06.141Z</time></trkpt><trkpt lat="43.4355869" lon="11.1746858"><ele>154.42857142857144</ele><time>2026-04-05T06:30:07.157Z</time></trkpt><trkpt lat="43.4356346" lon="11.1746256"><ele>154.28571428571428</ele><time>2026-04-05T06:30:08.136Z</time></trkpt><trkpt lat="43.4356827" lon="11.1745621"><ele>154.14285714285714</ele><time>2026-04-05T06:30:09.149Z</time></trkpt><trkpt lat="43.43573" lon="11.1744996"><ele>154.0</ele><time>2026-04-05T06:30:10.148Z</time></trkpt><trkpt lat="43.4357753" lon="11.1744364"><ele>154.0</ele><time>2026-04-05T06:30:11.138Z</time></trkpt><trkpt lat="43.4358225" lon="11.1743777"><ele>154.0</ele><time>2026-04-05T06:30:12.159Z</time></trkpt><trkpt lat="43.4359173" lon="11.1742647"><ele>154.0</ele><time>2026-04-05T06:30:14.135Z</time></trkpt><trkpt lat="43.4359655" lon="11.1741998"><ele>154.0</ele><time>2026-04-05T06:30:15.142Z</time></trkpt><trkpt lat="43.4360139" lon="11.1741351"><ele>154.0</ele><time>2026-04-05T06:30:16.145Z</time></trkpt><trkpt lat="43.4360611" lon="11.1740707"><ele>154.0</ele><time>2026-04-05T06:30:17.145Z</time></trkpt><trkpt lat="43.4361105" lon="11.1740018"><ele>154.0</ele><time>2026-04-05T06:30:18.145Z</time></trkpt><trkpt lat="43.4361627" lon="11.173937"><ele>154.0</ele><time>2026-04-05T06:30:19.155Z</time></trkpt><trkpt lat="43.4362146" lon="11.1738751"><ele>154.0</ele><time>2026-04-05T06:30:20.145Z</time></trkpt><trkpt lat="43.4362648" lon="11.1738132"><ele>154.0</ele><time>2026-04-05T06:30:21.152Z</time></trkpt><trkpt lat="43.4363124" lon="11.1737479"><ele>154.0</ele><time>2026-04-05T06:30:22.15Z</time></trkpt><trkpt lat="43.436362" lon="11.1736816"><ele>154.0</ele><time>2026-04-05T06:30:23.155Z</time></trkpt><trkpt lat="43.4364146" lon="11.1736166"><ele>154.0</ele><time>2026-04-05T06:30:24.155Z</time></trkpt><trkpt lat="43.4364669" lon="11.1735496"><ele>153.14285714285714</ele><time>2026-04-05T06:30:25.14Z</time></trkpt><trkpt lat="43.4365208" lon="11.1734828"><ele>152.28571428571428</ele><time>2026-04-05T06:30:26.139Z</time></trkpt><trkpt lat="43.4365737" lon="11.1734119"><ele>151.42857142857144</ele><time>2026-04-05T06:30:27.168Z</time></trkpt><trkpt lat="43.4366244" lon="11.1733419"><ele>150.57142857142856</ele><time>2026-04-05T06:30:28.151Z</time></trkpt><trkpt lat="43.4366776" lon="11.1732713"><ele>149.71428571428572</ele><time>2026-04-05T06:30:29.152Z</time></trkpt><trkpt lat="43.4367323" lon="11.1731998"><ele>148.85714285714286</ele><time>2026-04-05T06:30:30.15Z</time></trkpt><trkpt lat="43.4367864" lon="11.1731268"><ele>148.0</ele><time>2026-04-05T06:30:31.143Z</time></trkpt><trkpt lat="43.4368438" lon="11.1730541"><ele>148.0</ele><time>2026-04-05T06:30:32.134Z</time></trkpt><trkpt lat="43.4369013" lon="11.1729841"><ele>148.0</ele><time>2026-04-05T06:30:33.142Z</time></trkpt><trkpt lat="43.4369545" lon="11.1729127"><ele>148.0</ele><time>2026-04-05T06:30:34.145Z</time></trkpt><trkpt lat="43.4370081" lon="11.172845"><ele>148.0</ele><time>2026-04-05T06:30:35.15Z</time></trkpt><trkpt lat="43.4370644" lon="11.1727795"><ele>148.0</ele><time>2026-04-05T06:30:36.15Z</time></trkpt><trkpt lat="43.4371175" lon="11.1727132"><ele>148.0</ele><time>2026-04-05T06:30:37.136Z</time></trkpt><trkpt lat="43.4371641" lon="11.1726481"><ele>148.0</ele><time>2026-04-05T06:30:38.138Z</time></trkpt><trkpt lat="43.4372083" lon="11.1725817"><ele>147.66666666666669</ele><time>2026-04-05T06:30:39.138Z</time></trkpt><trkpt lat="43.4372524" lon="11.1725112"><ele>147.33333333333334</ele><time>2026-04-05T06:30:40.15Z</time></trkpt><trkpt lat="43.4372932" lon="11.1724382"><ele>147.0</ele><time>2026-04-05T06:30:41.138Z</time></trkpt><trkpt lat="43.4373322" lon="11.1723651"><ele>146.66666666666666</ele><time>2026-04-05T06:30:42.148Z</time></trkpt><trkpt lat="43.4373688" lon="11.1722931"><ele>146.33333333333331</ele><time>2026-04-05T06:30:43.142Z</time></trkpt><trkpt lat="43.4374359" lon="11.1721582"><ele>146.0</ele><time>2026-04-05T06:30:45.141Z</time></trkpt><trkpt lat="43.437494" lon="11.1720279"><ele>146.0</ele><time>2026-04-05T06:30:47.155Z</time></trkpt><trkpt lat="43.4375407" lon="11.1718915"><ele>146.0</ele><time>2026-04-05T06:30:49.151Z</time></trkpt><trkpt lat="43.4375752" lon="11.1717552"><ele>146.0</ele><time>2026-04-05T06:30:51.155Z</time></trkpt><trkpt lat="43.4375931" lon="11.1716093"><ele>146.0</ele><time>2026-04-05T06:30:53.135Z</time></trkpt><trkpt lat="43.4376153" lon="11.171462"><ele>146.0</ele><time>2026-04-05T06:30:55.133Z</time></trkpt><trkpt lat="43.4376344" lon="11.1713127"><ele>145.75</ele><time>2026-04-05T06:30:57.148Z</time></trkpt><trkpt lat="43.4376503" lon="11.1711591"><ele>145.5</ele><time>2026-04-05T06:30:59.158Z</time></trkpt><trkpt lat="43.4376744" lon="11.1710056"><ele>145.25</ele><time>2026-04-05T06:31:01.145Z</time></trkpt><trkpt lat="43.4377007" lon="11.1708449"><ele>145.0</ele><time>2026-04-05T06:31:03.141Z</time></trkpt><trkpt lat="43.4377285" lon="11.1706839"><ele>144.5</ele><time>2026-04-05T06:31:05.142Z</time></trkpt><trkpt lat="43.4377564" lon="11.1705197"><ele>144.0</ele><time>2026-04-05T06:31:07.148Z</time></trkpt><trkpt lat="43.4377881" lon="11.1703627"><ele>143.5</ele><time>2026-04-05T06:31:09.134Z</time></trkpt><trkpt lat="43.4378111" lon="11.1701997"><ele>143.0</ele><time>2026-04-05T06:31:11.144Z</time></trkpt><trkpt lat="43.4378288" lon="11.170035"><ele>143.0</ele><time>2026-04-05T06:31:13.141Z</time></trkpt><trkpt lat="43.4378611" lon="11.1698756"><ele>143.0</ele><time>2026-04-05T06:31:15.141Z</time></trkpt><trkpt lat="43.4378777" lon="11.1697376"><ele>143.0</ele><time>2026-04-05T06:31:17.133Z</time></trkpt><trkpt lat="43.4378354" lon="11.1696311"><ele>143.0</ele><time>2026-04-05T06:31:19.16Z</time></trkpt><trkpt lat="43.4377532" lon="11.1695766"><ele>143.0</ele><time>2026-04-05T06:31:21.137Z</time></trkpt><trkpt lat="43.4376863" lon="11.169555"><ele>142.28571428571428</ele><time>2026-04-05T06:31:23.149Z</time></trkpt><trkpt lat="43.4376224" lon="11.1695396"><ele>141.57142857142856</ele><time>2026-04-05T06:31:25.136Z</time></trkpt><trkpt lat="43.4375489" lon="11.1695163"><ele>140.85714285714286</ele><time>2026-04-05T06:31:27.136Z</time></trkpt><trkpt lat="43.4374805" lon="11.1694856"><ele>140.14285714285714</ele><time>2026-04-05T06:31:29.14Z</time></trkpt><trkpt lat="43.4374071" lon="11.169455"><ele>139.42857142857144</ele><time>2026-04-05T06:31:31.151Z</time></trkpt><trkpt lat="43.4373353" lon="11.1694282"><ele>138.71428571428572</ele><time>2026-04-05T06:31:33.142Z</time></trkpt><trkpt lat="43.4372678" lon="11.1693901"><ele>138.0</ele><time>2026-04-05T06:31:35.141Z</time></trkpt><trkpt lat="43.4371967" lon="11.1693641"><ele>139.33333333333334</ele><time>2026-04-05T06:31:37.15Z</time></trkpt><trkpt lat="43.4371253" lon="11.1693301"><ele>140.66666666666666</ele><time>2026-04-05T06:31:39.155Z</time></trkpt><trkpt lat="43.4370481" lon="11.1693033"><ele>142.0</ele><time>2026-04-05T06:31:41.13Z</time></trkpt><trkpt lat="43.43697" lon="11.1692677"><ele>143.33333333333331</ele><time>2026-04-05T06:31:43.142Z</time></trkpt><trkpt lat="43.436899" lon="11.1692411"><ele>144.66666666666666</ele><time>2026-04-05T06:31:45.154Z</time></trkpt><trkpt lat="43.4368265" lon="11.1692189"><ele>146.0</ele><time>2026-04-05T06:31:47.152Z</time></trkpt><trkpt lat="43.4367466" lon="11.1692169"><ele>146.0</ele><time>2026-04-05T06:31:49.144Z</time></trkpt><trkpt lat="43.4366749" lon="11.169219"><ele>146.0</ele><time>2026-04-05T06:31:51.146Z</time></trkpt><trkpt lat="43.436605" lon="11.1692167"><ele>146.0</ele><time>2026-04-05T06:31:53.138Z</time></trkpt><trkpt lat="43.436523" lon="11.1691648"><ele>146.0</ele><time>2026-04-05T06:31:56.152Z</time></trkpt><trkpt lat="43.436488" lon="11.1690597"><ele>146.0</ele><time>2026-04-05T06:31:59.135Z</time></trkpt><trkpt lat="43.4364726" lon="11.1689411"><ele>146.0</ele><time>2026-04-05T06:32:02.147Z</time></trkpt><trkpt lat="43.4364824" lon="11.1688467"><ele>145.16666666666666</ele><time>2026-04-05T06:32:04.149Z</time></trkpt><trkpt lat="43.4365045" lon="11.1687247"><ele>144.33333333333331</ele><time>2026-04-05T06:32:06.158Z</time></trkpt><trkpt lat="43.4365145" lon="11.1686188"><ele>143.5</ele><time>2026-04-05T06:32:08.15Z</time></trkpt><trkpt lat="43.4365097" lon="11.1685177"><ele>142.66666666666666</ele><time>2026-04-05T06:32:10.135Z</time></trkpt><trkpt lat="43.4364768" lon="11.1684129"><ele>141.83333333333334</ele><time>2026-04-05T06:32:12.134Z</time></trkpt><trkpt lat="43.4364356" lon="11.16832"><ele>141.0</ele><time>2026-04-05T06:32:14.144Z</time></trkpt><trkpt lat="43.4363911" lon="11.1682451"><ele>140.28571428571428</ele><time>2026-04-05T06:32:16.137Z</time></trkpt><trkpt lat="43.436346" lon="11.1681805"><ele>139.57142857142856</ele><time>2026-04-05T06:32:18.144Z</time></trkpt><trkpt lat="43.4362847" lon="11.1681121"><ele>138.85714285714283</ele><time>2026-04-05T06:32:21.136Z</time></trkpt><trkpt lat="43.4362347" lon="11.1680447"><ele>138.14285714285714</ele><time>2026-04-05T06:32:24.148Z</time></trkpt><trkpt lat="43.4361801" lon="11.1679765"><ele>137.42857142857142</ele><time>2026-04-05T06:32:27.132Z</time></trkpt><trkpt lat="43.436122" lon="11.1679061"><ele>136.7142857142857</ele><time>2026-04-05T06:32:30.155Z</time></trkpt><trkpt lat="43.4360695" lon="11.1678398"><ele>136.0</ele><time>2026-04-05T06:32:33.139Z</time></trkpt><trkpt lat="43.4360168" lon="11.1677717"><ele>137.66666666666669</ele><time>2026-04-05T06:32:36.136Z</time></trkpt><trkpt lat="43.4359615" lon="11.1677054"><ele>139.33333333333334</ele><time>2026-04-05T06:32:39.152Z</time></trkpt><trkpt lat="43.4359063" lon="11.1676372"><ele>141.0</ele><time>2026-04-05T06:32:42.146Z</time></trkpt><trkpt lat="43.4358528" lon="11.1675694"><ele>142.66666666666666</ele><time>2026-04-05T06:32:45.141Z</time></trkpt><trkpt lat="43.4357925" lon="11.1674952"><ele>144.33333333333331</ele><time>2026-04-05T06:32:48.13Z</time></trkpt><trkpt lat="43.4357311" lon="11.1674173"><ele>146.0</ele><time>2026-04-05T06:32:51.152Z</time></trkpt><trkpt lat="43.4356738" lon="11.1673469"><ele>146.0</ele><time>2026-04-05T06:32:54.147Z</time></trkpt><trkpt lat="43.4356124" lon="11.1672672"><ele>146.0</ele><time>2026-04-05T06:32:57.15Z</time></trkpt><trkpt lat="43.4355492" lon="11.1671874"><ele>146.0</ele><time>2026-04-05T06:33:00.146Z</time></trkpt><trkpt lat="43.43549" lon="11.1671102"><ele>146.0</ele><time>2026-04-05T06:33:03.155Z</time></trkpt><trkpt lat="43.4354381" lon="11.1670474"><ele>146.0</ele><time>2026-04-05T06:33:06.151Z</time></trkpt><trkpt lat="43.4353951" lon="11.1669757"><ele>146.0</ele><time>2026-04-05T06:33:09.133Z</time></trkpt><trkpt lat="43.4353461" lon="11.1669115"><ele>147.71428571428572</ele><time>2026-04-05T06:33:12.134Z</time></trkpt><trkpt lat="43.4353026" lon="11.1668488"><ele>149.42857142857144</ele><time>2026-04-05T06:33:15.142Z</time></trkpt><trkpt lat="43.4352434" lon="11.1667721"><ele>151.14285714285717</ele><time>2026-04-05T06:33:19.139Z</time></trkpt><trkpt lat="43.4351896" lon="11.1667129"><ele>152.85714285714286</ele><time>2026-04-05T06:33:22.145Z</time></trkpt><trkpt lat="43.4351439" lon="11.1666528"><ele>154.57142857142858</ele><time>2026-04-05T06:33:25.136Z</time></trkpt><trkpt lat="43.4350825" lon="11.1665815"><ele>156.2857142857143</ele><time>2026-04-05T06:33:29.149Z</time></trkpt><trkpt lat="43.4350128" lon="11.166527"><ele>158.0</ele><time>2026-04-05T06:33:33.143Z</time></trkpt><trkpt lat="43.4349482" lon="11.1665235"><ele>158.14285714285717</ele><time>2026-04-05T06:33:37.134Z</time></trkpt><trkpt lat="43.4348808" lon="11.1665443"><ele>158.28571428571428</ele><time>2026-04-05T06:33:42.138Z</time></trkpt><trkpt lat="43.4348026" lon="11.1665673"><ele>158.42857142857144</ele><time>2026-04-05T06:33:47.149Z</time></trkpt><trkpt lat="43.4347397" lon="11.1665987"><ele>158.57142857142858</ele><time>2026-04-05T06:33:51.135Z</time></trkpt><trkpt lat="43.4346654" lon="11.1666355"><ele>158.71428571428572</ele><time>2026-04-05T06:33:56.148Z</time></trkpt><trkpt lat="43.4346061" lon="11.1666785"><ele>158.85714285714286</ele><time>2026-04-05T06:34:00.144Z</time></trkpt><trkpt lat="43.4345452" lon="11.1667161"><ele>159.0</ele><time>2026-04-05T06:34:04.132Z</time></trkpt><trkpt lat="43.434477" lon="11.166743"><ele>160.14285714285714</ele><time>2026-04-05T06:34:08.132Z</time></trkpt><trkpt lat="43.4344159" lon="11.1667706"><ele>161.2857142857143</ele><time>2026-04-05T06:34:12.141Z</time></trkpt><trkpt lat="43.4343513" lon="11.1667727"><ele>162.42857142857144</ele><time>2026-04-05T06:34:16.137Z</time></trkpt><trkpt lat="43.4342866" lon="11.1667708"><ele>163.57142857142856</ele><time>2026-04-05T06:34:20.149Z</time></trkpt><trkpt lat="43.4342378" lon="11.1667013"><ele>164.71428571428572</ele><time>2026-04-05T06:34:25.162Z</time></trkpt><trkpt lat="43.4342251" lon="11.1665887"><ele>165.85714285714286</ele><time>2026-04-05T06:34:29.14Z</time></trkpt><trkpt lat="43.4342007" lon="11.1664696"><ele>167.0</ele><time>2026-04-05T06:34:32.131Z</time></trkpt><trkpt lat="43.4341772" lon="11.1663794"><ele>167.0</ele><time>2026-04-05T06:34:34.136Z</time></trkpt><trkpt lat="43.434151" lon="11.1662728"><ele>167.0</ele><time>2026-04-05T06:34:36.139Z</time></trkpt><trkpt lat="43.4341162" lon="11.1661594"><ele>167.0</ele><time>2026-04-05T06:34:38.136Z</time></trkpt><trkpt lat="43.4340788" lon="11.1660237"><ele>167.0</ele><time>2026-04-05T06:34:40.129Z</time></trkpt><trkpt lat="43.4340452" lon="11.1658739"><ele>167.0</ele><time>2026-04-05T06:34:42.142Z</time></trkpt><trkpt lat="43.4340225" lon="11.1657095"><ele>165.83333333333331</ele><time>2026-04-05T06:34:44.141Z</time></trkpt><trkpt lat="43.4340206" lon="11.1655406"><ele>164.66666666666666</ele><time>2026-04-05T06:34:46.149Z</time></trkpt><trkpt lat="43.4340213" lon="11.1654501"><ele>163.5</ele><time>2026-04-05T06:34:47.14Z</time></trkpt><trkpt lat="43.434032" lon="11.165352"><ele>162.33333333333334</ele><time>2026-04-05T06:34:48.154Z</time></trkpt><trkpt lat="43.4340468" lon="11.1652549"><ele>161.16666666666669</ele><time>2026-04-05T06:34:49.13Z</time></trkpt><trkpt lat="43.4340556" lon="11.1651633"><ele>160.0</ele><time>2026-04-05T06:34:50.146Z</time></trkpt><trkpt lat="43.4340634" lon="11.1650745"><ele>160.0</ele><time>2026-04-05T06:34:51.142Z</time></trkpt><trkpt lat="43.4340757" lon="11.1649047"><ele>160.0</ele><time>2026-04-05T06:34:53.136Z</time></trkpt><trkpt lat="43.4340767" lon="11.1648179"><ele>160.0</ele><time>2026-04-05T06:34:54.145Z</time></trkpt><trkpt lat="43.4340893" lon="11.1646396"><ele>160.0</ele><time>2026-04-05T06:34:56.152Z</time></trkpt><trkpt lat="43.4340951" lon="11.1645453"><ele>160.0</ele><time>2026-04-05T06:34:57.151Z</time></trkpt><trkpt lat="43.4341006" lon="11.164448"><ele>159.85714285714286</ele><time>2026-04-05T06:34:58.145Z</time></trkpt><trkpt lat="43.434107" lon="11.1643524"><ele>159.71428571428572</ele><time>2026-04-05T06:34:59.138Z</time></trkpt><trkpt lat="43.4341144" lon="11.1642578"><ele>159.57142857142856</ele><time>2026-04-05T06:35:00.142Z</time></trkpt><trkpt lat="43.4341206" lon="11.164165"><ele>159.42857142857144</ele><time>2026-04-05T06:35:01.158Z</time></trkpt><trkpt lat="43.4341243" lon="11.1640733"><ele>159.2857142857143</ele><time>2026-04-05T06:35:02.132Z</time></trkpt><trkpt lat="43.4341267" lon="11.1639789"><ele>159.14285714285714</ele><time>2026-04-05T06:35:03.131Z</time></trkpt><trkpt lat="43.4341275" lon="11.1638827"><ele>159.0</ele><time>2026-04-05T06:35:04.148Z</time></trkpt><trkpt lat="43.4341276" lon="11.1637883"><ele>158.83333333333334</ele><time>2026-04-05T06:35:05.137Z</time></trkpt><trkpt lat="43.4341274" lon="11.1636937"><ele>158.66666666666666</ele><time>2026-04-05T06:35:06.154Z</time></trkpt><trkpt lat="43.4341219" lon="11.1636049"><ele>158.5</ele><time>2026-04-05T06:35:07.153Z</time></trkpt><trkpt lat="43.4340928" lon="11.163452"><ele>158.33333333333331</ele><time>2026-04-05T06:35:09.144Z</time></trkpt><trkpt lat="43.4340542" lon="11.1633395"><ele>158.16666666666666</ele><time>2026-04-05T06:35:11.151Z</time></trkpt><trkpt lat="43.4340186" lon="11.1632622"><ele>158.0</ele><time>2026-04-05T06:35:13.155Z</time></trkpt><trkpt lat="43.433993" lon="11.1631739"><ele>158.0</ele><time>2026-04-05T06:35:15.146Z</time></trkpt><trkpt lat="43.4339881" lon="11.1630324"><ele>158.0</ele><time>2026-04-05T06:35:17.146Z</time></trkpt><trkpt lat="43.4339975" lon="11.1628818"><ele>158.0</ele><time>2026-04-05T06:35:19.147Z</time></trkpt><trkpt lat="43.4340269" lon="11.1627397"><ele>158.0</ele><time>2026-04-05T06:35:21.139Z</time></trkpt><trkpt lat="43.4340822" lon="11.1626295"><ele>158.0</ele><time>2026-04-05T06:35:23.145Z</time></trkpt><trkpt lat="43.4341274" lon="11.1625349"><ele>158.00000000000003</ele><time>2026-04-05T06:35:25.146Z</time></trkpt><trkpt lat="43.4341655" lon="11.1624165"><ele>158.0</ele><time>2026-04-05T06:35:28.163Z</time></trkpt><trkpt lat="43.4341754" lon="11.1623251"><ele>158.0</ele><time>2026-04-05T06:35:30.132Z</time></trkpt><trkpt lat="43.4341733" lon="11.1622349"><ele>158.0</ele><time>2026-04-05T06:35:32.141Z</time></trkpt><trkpt lat="43.4341657" lon="11.162133"><ele>158.0</ele><time>2026-04-05T06:35:34.15Z</time></trkpt><trkpt lat="43.4341642" lon="11.1620401"><ele>158.00000000000003</ele><time>2026-04-05T06:35:36.145Z</time></trkpt><trkpt lat="43.434156" lon="11.1619535"><ele>158.0</ele><time>2026-04-05T06:35:38.154Z</time></trkpt><trkpt lat="43.4341306" lon="11.1618591"><ele>159.14285714285717</ele><time>2026-04-05T06:35:41.13Z</time></trkpt><trkpt lat="43.4340747" lon="11.1617922"><ele>160.28571428571428</ele><time>2026-04-05T06:35:45.139Z</time></trkpt><trkpt lat="43.4340181" lon="11.1617326"><ele>161.42857142857144</ele><time>2026-04-05T06:35:50.141Z</time></trkpt><trkpt lat="43.4339679" lon="11.1616674"><ele>162.57142857142858</ele><time>2026-04-05T06:35:56.13Z</time></trkpt><trkpt lat="43.4339346" lon="11.1615869"><ele>163.71428571428572</ele><time>2026-04-05T06:36:03.137Z</time></trkpt><trkpt lat="43.4339024" lon="11.1615091"><ele>164.85714285714286</ele><time>2026-04-05T06:36:08.144Z</time></trkpt><trkpt lat="43.4338669" lon="11.1614274"><ele>166.0</ele><time>2026-04-05T06:36:14.137Z</time></trkpt><trkpt lat="43.4338258" lon="11.1613418"><ele>170.57142857142856</ele><time>2026-04-05T06:36:20.13Z</time></trkpt><trkpt lat="43.4337943" lon="11.1612627"><ele>175.14285714285717</ele><time>2026-04-05T06:36:27.142Z</time></trkpt><trkpt lat="43.4337658" lon="11.1611707"><ele>179.71428571428572</ele><time>2026-04-05T06:36:32.136Z</time></trkpt><trkpt lat="43.4337229" lon="11.1610951"><ele>184.28571428571428</ele><time>2026-04-05T06:36:37.139Z</time></trkpt><trkpt lat="43.433688" lon="11.1610154"><ele>188.85714285714283</ele><time>2026-04-05T06:36:43.143Z</time></trkpt><trkpt lat="43.4336875" lon="11.1609136"><ele>193.42857142857144</ele><time>2026-04-05T06:36:50.146Z</time></trkpt><trkpt lat="43.4337389" lon="11.1608459"><ele>198.0</ele><time>2026-04-05T06:36:55.146Z</time></trkpt><trkpt lat="43.4338031" lon="11.1608059"><ele>193.33333333333334</ele><time>2026-04-05T06:37:01.146Z</time></trkpt><trkpt lat="43.4338714" lon="11.1607625"><ele>188.66666666666666</ele><time>2026-04-05T06:37:05.14Z</time></trkpt><trkpt lat="43.4339415" lon="11.1607016"><ele>184.0</ele><time>2026-04-05T06:37:09.147Z</time></trkpt><trkpt lat="43.4339936" lon="11.1606473"><ele>179.33333333333331</ele><time>2026-04-05T06:37:12.142Z</time></trkpt><trkpt lat="43.4340193" lon="11.1605646"><ele>174.66666666666666</ele><time>2026-04-05T06:37:16.142Z</time></trkpt><trkpt lat="43.4340273" lon="11.1604563"><ele>170.0</ele><time>2026-04-05T06:37:19.142Z</time></trkpt><trkpt lat="43.4340287" lon="11.1603375"><ele>170.0</ele><time>2026-04-05T06:37:22.142Z</time></trkpt><trkpt lat="43.4340315" lon="11.1602251"><ele>170.0</ele><time>2026-04-05T06:37:25.171Z</time></trkpt><trkpt lat="43.4340271" lon="11.1601122"><ele>170.0</ele><time>2026-04-05T06:37:28.142Z</time></trkpt><trkpt lat="43.4340299" lon="11.1599986"><ele>170.0</ele><time>2026-04-05T06:37:31.136Z</time></trkpt><trkpt lat="43.4340384" lon="11.15989"><ele>170.0</ele><time>2026-04-05T06:37:34.144Z</time></trkpt><trkpt lat="43.4340454" lon="11.1597656"><ele>170.0</ele><time>2026-04-05T06:37:37.134Z</time></trkpt><trkpt lat="43.4340806" lon="11.1596142"><ele>172.0</ele><time>2026-04-05T06:37:39.143Z</time></trkpt><trkpt lat="43.4341106" lon="11.159537"><ele>174.0</ele><time>2026-04-05T06:37:40.147Z</time></trkpt><trkpt lat="43.4341418" lon="11.1594571"><ele>176.0</ele><time>2026-04-05T06:37:41.129Z</time></trkpt><trkpt lat="43.434185" lon="11.1593063"><ele>178.0</ele><time>2026-04-05T06:37:43.138Z</time></trkpt><trkpt lat="43.4342351" lon="11.1591697"><ele>180.0</ele><time>2026-04-05T06:37:45.149Z</time></trkpt><trkpt lat="43.4342922" lon="11.1590448"><ele>181.8</ele><time>2026-04-05T06:37:47.141Z</time></trkpt><trkpt lat="43.4343572" lon="11.1589247"><ele>183.6</ele><time>2026-04-05T06:37:49.149Z</time></trkpt><trkpt lat="43.4344158" lon="11.1588137"><ele>185.39999999999998</ele><time>2026-04-05T06:37:51.147Z</time></trkpt><trkpt lat="43.4344552" lon="11.1586899"><ele>187.2</ele><time>2026-04-05T06:37:53.143Z</time></trkpt><trkpt lat="43.4345001" lon="11.158543"><ele>189.0</ele><time>2026-04-05T06:37:55.151Z</time></trkpt><trkpt lat="43.4345501" lon="11.1583893"><ele>189.0</ele><time>2026-04-05T06:37:57.14Z</time></trkpt><trkpt lat="43.4346146" lon="11.158258"><ele>189.0</ele><time>2026-04-05T06:37:59.137Z</time></trkpt><trkpt lat="43.4346753" lon="11.1581281"><ele>189.0</ele><time>2026-04-05T06:38:01.149Z</time></trkpt><trkpt lat="43.4347017" lon="11.1580031"><ele>189.0</ele><time>2026-04-05T06:38:03.141Z</time></trkpt><trkpt lat="43.4347241" lon="11.157864"><ele>189.0</ele><time>2026-04-05T06:38:05.157Z</time></trkpt><trkpt lat="43.4347594" lon="11.1577147"><ele>185.5</ele><time>2026-04-05T06:38:07.161Z</time></trkpt><trkpt lat="43.4347934" lon="11.1575593"><ele>182.0</ele><time>2026-04-05T06:38:09.157Z</time></trkpt><trkpt lat="43.4348245" lon="11.1574046"><ele>178.5</ele><time>2026-04-05T06:38:11.139Z</time></trkpt><trkpt lat="43.4348649" lon="11.1572565"><ele>175.0</ele><time>2026-04-05T06:38:13.135Z</time></trkpt><trkpt lat="43.434901" lon="11.1571031"><ele>175.0</ele><time>2026-04-05T06:38:15.137Z</time></trkpt><trkpt lat="43.434936" lon="11.1569627"><ele>175.0</ele><time>2026-04-05T06:38:17.151Z</time></trkpt><trkpt lat="43.4349674" lon="11.1568372"><ele>175.0</ele><time>2026-04-05T06:38:19.137Z</time></trkpt><trkpt lat="43.4349866" lon="11.1567485"><ele>175.0</ele><time>2026-04-05T06:38:21.151Z</time></trkpt><trkpt lat="43.4350137" lon="11.1566518"><ele>175.0</ele><time>2026-04-05T06:38:25.142Z</time></trkpt><trkpt lat="43.4350371" lon="11.1565442"><ele>175.0</ele><time>2026-04-05T06:38:29.148Z</time></trkpt><trkpt lat="43.4350647" lon="11.1564508"><ele>176.85714285714286</ele><time>2026-04-05T06:38:32.149Z</time></trkpt><trkpt lat="43.4350939" lon="11.1563557"><ele>178.71428571428572</ele><time>2026-04-05T06:38:35.133Z</time></trkpt><trkpt lat="43.4351511" lon="11.1562603"><ele>180.57142857142856</ele><time>2026-04-05T06:38:38.144Z</time></trkpt><trkpt lat="43.4351894" lon="11.1561802"><ele>182.42857142857144</ele><time>2026-04-05T06:38:40.15Z</time></trkpt><trkpt lat="43.4352214" lon="11.1560986"><ele>184.28571428571428</ele><time>2026-04-05T06:38:42.148Z</time></trkpt><trkpt lat="43.4352579" lon="11.1560221"><ele>186.14285714285714</ele><time>2026-04-05T06:38:44.144Z</time></trkpt><trkpt lat="43.435305" lon="11.1559515"><ele>188.0</ele><time>2026-04-05T06:38:46.142Z</time></trkpt><trkpt lat="43.435348" lon="11.1558615"><ele>188.0</ele><time>2026-04-05T06:38:48.136Z</time></trkpt><trkpt lat="43.4353794" lon="11.1557758"><ele>188.0</ele><time>2026-04-05T06:38:50.142Z</time></trkpt><trkpt lat="43.4354116" lon="11.1556917"><ele>188.0</ele><time>2026-04-05T06:38:52.152Z</time></trkpt><trkpt lat="43.4354455" lon="11.1556117"><ele>188.0</ele><time>2026-04-05T06:38:54.149Z</time></trkpt><trkpt lat="43.4355009" lon="11.1555246"><ele>188.0</ele><time>2026-04-05T06:38:56.129Z</time></trkpt><trkpt lat="43.4355505" lon="11.1554481"><ele>188.0</ele><time>2026-04-05T06:38:58.165Z</time></trkpt><trkpt lat="43.4355915" lon="11.1553745"><ele>188.0</ele><time>2026-04-05T06:39:00.14Z</time></trkpt><trkpt lat="43.4356409" lon="11.1552928"><ele>188.60000000000002</ele><time>2026-04-05T06:39:02.152Z</time></trkpt><trkpt lat="43.4356966" lon="11.1552005"><ele>189.20000000000002</ele><time>2026-04-05T06:39:04.152Z</time></trkpt><trkpt lat="43.4357498" lon="11.155106"><ele>189.8</ele><time>2026-04-05T06:39:06.14Z</time></trkpt><trkpt lat="43.435804" lon="11.1550001"><ele>190.4</ele><time>2026-04-05T06:39:08.153Z</time></trkpt><trkpt lat="43.4358542" lon="11.1548956"><ele>191.0</ele><time>2026-04-05T06:39:10.131Z</time></trkpt><trkpt lat="43.4359077" lon="11.1547879"><ele>191.0</ele><time>2026-04-05T06:39:12.142Z</time></trkpt><trkpt lat="43.4359556" lon="11.1546848"><ele>191.0</ele><time>2026-04-05T06:39:14.135Z</time></trkpt><trkpt lat="43.436007" lon="11.1545875"><ele>191.0</ele><time>2026-04-05T06:39:16.138Z</time></trkpt><trkpt lat="43.4360592" lon="11.1544982"><ele>191.0</ele><time>2026-04-05T06:39:18.143Z</time></trkpt><trkpt lat="43.4361262" lon="11.154406"><ele>191.0</ele><time>2026-04-05T06:39:20.15Z</time></trkpt><trkpt lat="43.4361999" lon="11.1543265"><ele>191.0</ele><time>2026-04-05T06:39:22.143Z</time></trkpt><trkpt lat="43.4362706" lon="11.1542678"><ele>190.60000000000002</ele><time>2026-04-05T06:39:24.131Z</time></trkpt><trkpt lat="43.4363571" lon="11.1542107"><ele>190.2</ele><time>2026-04-05T06:39:26.142Z</time></trkpt><trkpt lat="43.4364396" lon="11.1541541"><ele>189.8</ele><time>2026-04-05T06:39:28.141Z</time></trkpt><trkpt lat="43.4365297" lon="11.1540894"><ele>189.39999999999998</ele><time>2026-04-05T06:39:30.152Z</time></trkpt><trkpt lat="43.4366229" lon="11.1540208"><ele>189.0</ele><time>2026-04-05T06:39:32.155Z</time></trkpt><trkpt lat="43.4367074" lon="11.153939"><ele>189.0</ele><time>2026-04-05T06:39:34.13Z</time></trkpt><trkpt lat="43.4367927" lon="11.1538452"><ele>189.0</ele><time>2026-04-05T06:39:36.141Z</time></trkpt><trkpt lat="43.4368712" lon="11.1537386"><ele>189.0</ele><time>2026-04-05T06:39:38.159Z</time></trkpt><trkpt lat="43.4369365" lon="11.1536504"><ele>189.0</ele><time>2026-04-05T06:39:40.128Z</time></trkpt><trkpt lat="43.4369974" lon="11.1535646"><ele>189.0</ele><time>2026-04-05T06:39:42.145Z</time></trkpt><trkpt lat="43.4370649" lon="11.1534743"><ele>184.79999999999998</ele><time>2026-04-05T06:39:44.16Z</time></trkpt><trkpt lat="43.4371511" lon="11.1533874"><ele>180.6</ele><time>2026-04-05T06:39:46.14Z</time></trkpt><trkpt lat="43.4372438" lon="11.1532791"><ele>176.4</ele><time>2026-04-05T06:39:48.137Z</time></trkpt><trkpt lat="43.4373221" lon="11.1531684"><ele>172.2</ele><time>2026-04-05T06:39:50.145Z</time></trkpt><trkpt lat="43.4373988" lon="11.153065"><ele>168.0</ele><time>2026-04-05T06:39:52.132Z</time></trkpt><trkpt lat="43.4374794" lon="11.1529727"><ele>168.0</ele><time>2026-04-05T06:39:54.13Z</time></trkpt><trkpt lat="43.4375874" lon="11.152881"><ele>168.0</ele><time>2026-04-05T06:39:56.138Z</time></trkpt><trkpt lat="43.4376447" lon="11.152832"><ele>168.0</ele><time>2026-04-05T06:39:57.152Z</time></trkpt><trkpt lat="43.4376997" lon="11.1527794"><ele>168.0</ele><time>2026-04-05T06:39:58.169Z</time></trkpt><trkpt lat="43.4377574" lon="11.1527242"><ele>168.0</ele><time>2026-04-05T06:39:59.152Z</time></trkpt><trkpt lat="43.4378122" lon="11.1526625"><ele>168.0</ele><time>2026-04-05T06:40:00.131Z</time></trkpt><trkpt lat="43.4378651" lon="11.1525966"><ele>168.0</ele><time>2026-04-05T06:40:01.141Z</time></trkpt><trkpt lat="43.4379183" lon="11.1525363"><ele>168.0</ele><time>2026-04-05T06:40:02.138Z</time></trkpt><trkpt lat="43.4380074" lon="11.1524194"><ele>168.0</ele><time>2026-04-05T06:40:04.156Z</time></trkpt><trkpt lat="43.4380839" lon="11.1523194"><ele>168.0</ele><time>2026-04-05T06:40:06.151Z</time></trkpt><trkpt lat="43.4381626" lon="11.1522288"><ele>168.0</ele><time>2026-04-05T06:40:08.138Z</time></trkpt><trkpt lat="43.4382325" lon="11.15214"><ele>165.83333333333334</ele><time>2026-04-05T06:40:10.137Z</time></trkpt><trkpt lat="43.4382817" lon="11.1520477"><ele>163.66666666666666</ele><time>2026-04-05T06:40:12.14Z</time></trkpt><trkpt lat="43.438318" lon="11.1519429"><ele>161.5</ele><time>2026-04-05T06:40:14.158Z</time></trkpt><trkpt lat="43.4383368" lon="11.1518358"><ele>159.33333333333331</ele><time>2026-04-05T06:40:16.14Z</time></trkpt><trkpt lat="43.4383567" lon="11.1517241"><ele>157.16666666666666</ele><time>2026-04-05T06:40:18.137Z</time></trkpt><trkpt lat="43.4383584" lon="11.1516156"><ele>155.0</ele><time>2026-04-05T06:40:20.146Z</time></trkpt><trkpt lat="43.4383691" lon="11.151512"><ele>155.0</ele><time>2026-04-05T06:40:22.148Z</time></trkpt><trkpt lat="43.4383856" lon="11.1514044"><ele>155.0</ele><time>2026-04-05T06:40:24.148Z</time></trkpt><trkpt lat="43.4383971" lon="11.1512992"><ele>155.0</ele><time>2026-04-05T06:40:26.145Z</time></trkpt><trkpt lat="43.4384082" lon="11.1512085"><ele>155.0</ele><time>2026-04-05T06:40:28.144Z</time></trkpt><trkpt lat="43.4384113" lon="11.1511155"><ele>155.0</ele><time>2026-04-05T06:40:30.137Z</time></trkpt><trkpt lat="43.4384085" lon="11.1510018"><ele>155.0</ele><time>2026-04-05T06:40:33.147Z</time></trkpt><trkpt lat="43.4384229" lon="11.1509047"><ele>155.0</ele><time>2026-04-05T06:40:36.154Z</time></trkpt><trkpt lat="43.4384309" lon="11.1508082"><ele>155.5</ele><time>2026-04-05T06:40:39.134Z</time></trkpt><trkpt lat="43.4384351" lon="11.1506867"><ele>156.0</ele><time>2026-04-05T06:40:42.146Z</time></trkpt><trkpt lat="43.4384396" lon="11.1505617"><ele>156.5</ele><time>2026-04-05T06:40:45.129Z</time></trkpt><trkpt lat="43.4384553" lon="11.1504702"><ele>157.0</ele><time>2026-04-05T06:40:47.156Z</time></trkpt><trkpt lat="43.4384689" lon="11.1503775"><ele>157.5</ele><time>2026-04-05T06:40:49.149Z</time></trkpt><trkpt lat="43.4384852" lon="11.1502846"><ele>158.0</ele><time>2026-04-05T06:40:51.148Z</time></trkpt><trkpt lat="43.438518" lon="11.1501955"><ele>158.0</ele><time>2026-04-05T06:40:53.135Z</time></trkpt><trkpt lat="43.4385587" lon="11.1501173"><ele>158.0</ele><time>2026-04-05T06:40:55.131Z</time></trkpt><trkpt lat="43.4385977" lon="11.15004"><ele>158.0</ele><time>2026-04-05T06:40:57.139Z</time></trkpt><trkpt lat="43.4386319" lon="11.1499589"><ele>158.0</ele><time>2026-04-05T06:40:59.159Z</time></trkpt><trkpt lat="43.4386694" lon="11.1498499"><ele>158.0</ele><time>2026-04-05T06:41:02.148Z</time></trkpt><trkpt lat="43.4387224" lon="11.1497414"><ele>158.0</ele><time>2026-04-05T06:41:05.154Z</time></trkpt><trkpt lat="43.4387718" lon="11.1496408"><ele>158.33333333333331</ele><time>2026-04-05T06:41:08.144Z</time></trkpt><trkpt lat="43.4388195" lon="11.1495574"><ele>158.66666666666666</ele><time>2026-04-05T06:41:11.15Z</time></trkpt><trkpt lat="43.4388867" lon="11.1495216"><ele>159.0</ele><time>2026-04-05T06:41:15.153Z</time></trkpt><trkpt lat="43.4389573" lon="11.1495278"><ele>159.33333333333334</ele><time>2026-04-05T06:41:19.146Z</time></trkpt><trkpt lat="43.4390252" lon="11.1495581"><ele>159.66666666666669</ele><time>2026-04-05T06:41:23.138Z</time></trkpt><trkpt lat="43.4391125" lon="11.1495857"><ele>160.0</ele><time>2026-04-05T06:41:27.142Z</time></trkpt><trkpt lat="43.4391943" lon="11.1495341"><ele>160.0</ele><time>2026-04-05T06:41:30.142Z</time></trkpt><trkpt lat="43.4392465" lon="11.1494494"><ele>160.0</ele><time>2026-04-05T06:41:33.152Z</time></trkpt><trkpt lat="43.4392827" lon="11.1493526"><ele>160.0</ele><time>2026-04-05T06:41:36.153Z</time></trkpt><trkpt lat="43.4393193" lon="11.1492516"><ele>160.0</ele><time>2026-04-05T06:41:39.144Z</time></trkpt><trkpt lat="43.4393595" lon="11.1491545"><ele>160.0</ele><time>2026-04-05T06:41:42.137Z</time></trkpt><trkpt lat="43.43939" lon="11.1490559"><ele>160.0</ele><time>2026-04-05T06:41:45.152Z</time></trkpt><trkpt lat="43.4393924" lon="11.148961"><ele>161.0</ele><time>2026-04-05T06:41:48.138Z</time></trkpt><trkpt lat="43.4393585" lon="11.148863"><ele>162.0</ele><time>2026-04-05T06:41:51.156Z</time></trkpt><trkpt lat="43.439286" lon="11.1487846"><ele>163.0</ele><time>2026-04-05T06:41:54.153Z</time></trkpt><trkpt lat="43.4392209" lon="11.1487129"><ele>164.0</ele><time>2026-04-05T06:41:57.157Z</time></trkpt><trkpt lat="43.439166" lon="11.1486441"><ele>165.0</ele><time>2026-04-05T06:42:00.142Z</time></trkpt><trkpt lat="43.4391142" lon="11.1485637"><ele>166.0</ele><time>2026-04-05T06:42:03.137Z</time></trkpt><trkpt lat="43.4390517" lon="11.1484737"><ele>166.0</ele><time>2026-04-05T06:42:06.136Z</time></trkpt><trkpt lat="43.4389859" lon="11.1483799"><ele>166.0</ele><time>2026-04-05T06:42:09.158Z</time></trkpt><trkpt lat="43.4389352" lon="11.1483233"><ele>166.0</ele><time>2026-04-05T06:42:11.147Z</time></trkpt><trkpt lat="43.4388767" lon="11.1482392"><ele>166.0</ele><time>2026-04-05T06:42:14.16Z</time></trkpt><trkpt lat="43.438814" lon="11.1481585"><ele>166.0</ele><time>2026-04-05T06:42:17.136Z</time></trkpt><trkpt lat="43.4387592" lon="11.1480819"><ele>166.0</ele><time>2026-04-05T06:42:20.151Z</time></trkpt><trkpt lat="43.4386917" lon="11.14798"><ele>164.66666666666669</ele><time>2026-04-05T06:42:23.147Z</time></trkpt><trkpt lat="43.4386337" lon="11.1478987"><ele>163.33333333333334</ele><time>2026-04-05T06:42:25.142Z</time></trkpt><trkpt lat="43.4385744" lon="11.1478062"><ele>162.0</ele><time>2026-04-05T06:42:27.15Z</time></trkpt><trkpt lat="43.4385125" lon="11.1477221"><ele>160.66666666666666</ele><time>2026-04-05T06:42:29.163Z</time></trkpt><trkpt lat="43.4384428" lon="11.1476596"><ele>159.33333333333331</ele><time>2026-04-05T06:42:31.134Z</time></trkpt><trkpt lat="43.4383774" lon="11.1475899"><ele>158.0</ele><time>2026-04-05T06:42:33.135Z</time></trkpt><trkpt lat="43.4383193" lon="11.1475238"><ele>158.00000000000003</ele><time>2026-04-05T06:42:35.148Z</time></trkpt><trkpt lat="43.4383191" lon="11.1474293"><ele>158.0</ele><time>2026-04-05T06:42:37.138Z</time></trkpt><trkpt lat="43.4383835" lon="11.1474014"><ele>158.0</ele><time>2026-04-05T06:42:39.148Z</time></trkpt><trkpt lat="43.4384406" lon="11.1474461"><ele>158.0</ele><time>2026-04-05T06:42:41.135Z</time></trkpt><trkpt lat="43.4384988" lon="11.147535"><ele>158.0</ele><time>2026-04-05T06:42:44.172Z</time></trkpt><trkpt lat="43.4385601" lon="11.1475835"><ele>158.00000000000003</ele><time>2026-04-05T06:42:47.139Z</time></trkpt><trkpt lat="43.4386334" lon="11.1475391"><ele>158.0</ele><time>2026-04-05T06:42:51.152Z</time></trkpt><trkpt lat="43.4387013" lon="11.1474711"><ele>158.0</ele><time>2026-04-05T06:42:54.143Z</time></trkpt><trkpt lat="43.4387515" lon="11.1474177"><ele>158.0</ele><time>2026-04-05T06:42:56.152Z</time></trkpt><trkpt lat="43.4388102" lon="11.147363"><ele>158.0</ele><time>2026-04-05T06:42:58.143Z</time></trkpt><trkpt lat="43.4388822" lon="11.1473087"><ele>158.0</ele><time>2026-04-05T06:43:00.136Z</time></trkpt><trkpt lat="43.4389655" lon="11.1472304"><ele>158.0</ele><time>2026-04-05T06:43:02.155Z</time></trkpt><trkpt lat="43.4390491" lon="11.1471421"><ele>158.0</ele><time>2026-04-05T06:43:04.147Z</time></trkpt><trkpt lat="43.4391261" lon="11.1470549"><ele>157.8</ele><time>2026-04-05T06:43:06.172Z</time></trkpt><trkpt lat="43.4391983" lon="11.1469604"><ele>157.60000000000002</ele><time>2026-04-05T06:43:08.144Z</time></trkpt><trkpt lat="43.4392601" lon="11.1468541"><ele>157.39999999999998</ele><time>2026-04-05T06:43:10.132Z</time></trkpt><trkpt lat="43.4393188" lon="11.1467454"><ele>157.2</ele><time>2026-04-05T06:43:12.154Z</time></trkpt><trkpt lat="43.4393757" lon="11.146643"><ele>157.0</ele><time>2026-04-05T06:43:14.156Z</time></trkpt><trkpt lat="43.4394147" lon="11.1465352"><ele>156.0</ele><time>2026-04-05T06:43:16.164Z</time></trkpt><trkpt lat="43.4394518" lon="11.1464229"><ele>155.0</ele><time>2026-04-05T06:43:18.13Z</time></trkpt><trkpt lat="43.4394779" lon="11.146312"><ele>154.0</ele><time>2026-04-05T06:43:20.151Z</time></trkpt><trkpt lat="43.4395072" lon="11.1462061"><ele>153.0</ele><time>2026-04-05T06:43:22.144Z</time></trkpt><trkpt lat="43.439536" lon="11.1461047"><ele>152.0</ele><time>2026-04-05T06:43:24.141Z</time></trkpt><trkpt lat="43.4395638" lon="11.1460185"><ele>151.0</ele><time>2026-04-05T06:43:26.168Z</time></trkpt><trkpt lat="43.4395951" lon="11.1459295"><ele>151.00000000000003</ele><time>2026-04-05T06:43:28.134Z</time></trkpt><trkpt lat="43.439625" lon="11.1458465"><ele>151.0</ele><time>2026-04-05T06:43:30.145Z</time></trkpt><trkpt lat="43.4396538" lon="11.1457606"><ele>151.0</ele><time>2026-04-05T06:43:32.134Z</time></trkpt><trkpt lat="43.43969" lon="11.1456784"><ele>151.0</ele><time>2026-04-05T06:43:34.148Z</time></trkpt><trkpt lat="43.4397392" lon="11.1456077"><ele>151.0</ele><time>2026-04-05T06:43:36.147Z</time></trkpt><trkpt lat="43.43979" lon="11.1455492"><ele>151.00000000000003</ele><time>2026-04-05T06:43:38.152Z</time></trkpt><trkpt lat="43.439839" lon="11.1454911"><ele>151.0</ele><time>2026-04-05T06:43:40.137Z</time></trkpt><trkpt lat="43.4398902" lon="11.1454382"><ele>152.83333333333334</ele><time>2026-04-05T06:43:42.143Z</time></trkpt><trkpt lat="43.4399353" lon="11.1453767"><ele>154.66666666666669</ele><time>2026-04-05T06:43:44.136Z</time></trkpt><trkpt lat="43.4399828" lon="11.145316"><ele>156.5</ele><time>2026-04-05T06:43:46.136Z</time></trkpt><trkpt lat="43.4400323" lon="11.1452583"><ele>158.33333333333334</ele><time>2026-04-05T06:43:48.154Z</time></trkpt><trkpt lat="43.4400992" lon="11.1451748"><ele>160.16666666666666</ele><time>2026-04-05T06:43:51.149Z</time></trkpt><trkpt lat="43.4401553" lon="11.1450852"><ele>162.0</ele><time>2026-04-05T06:43:54.152Z</time></trkpt><trkpt lat="43.4402146" lon="11.1449998"><ele>162.0</ele><time>2026-04-05T06:43:57.14Z</time></trkpt><trkpt lat="43.4402772" lon="11.1449471"><ele>162.0</ele><time>2026-04-05T06:44:00.154Z</time></trkpt><trkpt lat="43.440339" lon="11.1449058"><ele>162.0</ele><time>2026-04-05T06:44:03.133Z</time></trkpt><trkpt lat="43.4404022" lon="11.1448599"><ele>162.0</ele><time>2026-04-05T06:44:06.142Z</time></trkpt><trkpt lat="43.4404765" lon="11.1448252"><ele>162.0</ele><time>2026-04-05T06:44:09.128Z</time></trkpt><trkpt lat="43.4405616" lon="11.1447948"><ele>162.0</ele><time>2026-04-05T06:44:12.157Z</time></trkpt><trkpt lat="43.4406288" lon="11.1447639"><ele>161.5</ele><time>2026-04-05T06:44:15.136Z</time></trkpt><trkpt lat="43.4406989" lon="11.1447269"><ele>161.0</ele><time>2026-04-05T06:44:18.147Z</time></trkpt><trkpt lat="43.4407757" lon="11.1446866"><ele>160.5</ele><time>2026-04-05T06:44:21.124Z</time></trkpt><trkpt lat="43.4408523" lon="11.1446491"><ele>160.0</ele><time>2026-04-05T06:44:24.156Z</time></trkpt><trkpt lat="43.4409303" lon="11.1446123"><ele>159.5</ele><time>2026-04-05T06:44:27.143Z</time></trkpt><trkpt lat="43.4410055" lon="11.144572"><ele>159.0</ele><time>2026-04-05T06:44:30.151Z</time></trkpt><trkpt lat="43.4410901" lon="11.1445248"><ele>159.0</ele><time>2026-04-05T06:44:33.148Z</time></trkpt><trkpt lat="43.4411589" lon="11.1444959"><ele>159.0</ele><time>2026-04-05T06:44:35.157Z</time></trkpt><trkpt lat="43.4412335" lon="11.1444722"><ele>159.0</ele><time>2026-04-05T06:44:37.159Z</time></trkpt><trkpt lat="43.4413053" lon="11.1444507"><ele>159.0</ele><time>2026-04-05T06:44:39.137Z</time></trkpt><trkpt lat="43.4413722" lon="11.1444409"><ele>159.0</ele><time>2026-04-05T06:44:41.152Z</time></trkpt><trkpt lat="43.441436" lon="11.1444289"><ele>159.0</ele><time>2026-04-05T06:44:43.137Z</time></trkpt><trkpt lat="43.4415074" lon="11.1444081"><ele>159.0</ele><time>2026-04-05T06:44:45.151Z</time></trkpt><trkpt lat="43.441579" lon="11.1443956"><ele>160.0</ele><time>2026-04-05T06:44:47.148Z</time></trkpt><trkpt lat="43.4416499" lon="11.1443801"><ele>161.0</ele><time>2026-04-05T06:44:49.143Z</time></trkpt><trkpt lat="43.441714" lon="11.1443795"><ele>162.0</ele><time>2026-04-05T06:44:51.13Z</time></trkpt><trkpt lat="43.4417818" lon="11.1443766"><ele>163.0</ele><time>2026-04-05T06:44:53.14Z</time></trkpt><trkpt lat="43.441867" lon="11.1443778"><ele>164.0</ele><time>2026-04-05T06:44:56.155Z</time></trkpt><trkpt lat="43.441945" lon="11.1443685"><ele>165.0</ele><time>2026-04-05T06:44:59.139Z</time></trkpt><trkpt lat="43.4420371" lon="11.1443743"><ele>165.0</ele><time>2026-04-05T06:45:02.154Z</time></trkpt><trkpt lat="43.4421149" lon="11.1443839"><ele>165.0</ele><time>2026-04-05T06:45:05.14Z</time></trkpt><trkpt lat="43.4421892" lon="11.1444015"><ele>165.0</ele><time>2026-04-05T06:45:08.142Z</time></trkpt><trkpt lat="43.4422624" lon="11.1444215"><ele>165.0</ele><time>2026-04-05T06:45:11.14Z</time></trkpt><trkpt lat="43.4423485" lon="11.1444467"><ele>165.0</ele><time>2026-04-05T06:45:14.145Z</time></trkpt><trkpt lat="43.4424217" lon="11.1445001"><ele>165.0</ele><time>2026-04-05T06:45:17.132Z</time></trkpt><trkpt lat="43.4424832" lon="11.1445362"><ele>164.0</ele><time>2026-04-05T06:45:19.135Z</time></trkpt><trkpt lat="43.442565" lon="11.1445892"><ele>163.0</ele><time>2026-04-05T06:45:21.132Z</time></trkpt><trkpt lat="43.4426685" lon="11.1446634"><ele>162.0</ele><time>2026-04-05T06:45:23.146Z</time></trkpt><trkpt lat="43.4427534" lon="11.1447455"><ele>161.0</ele><time>2026-04-05T06:45:25.136Z</time></trkpt><trkpt lat="43.4428392" lon="11.1448305"><ele>160.0</ele><time>2026-04-05T06:45:27.13Z</time></trkpt><trkpt lat="43.4429338" lon="11.1448768"><ele>160.16666666666669</ele><time>2026-04-05T06:45:29.134Z</time></trkpt><trkpt lat="43.4430463" lon="11.1448541"><ele>160.33333333333334</ele><time>2026-04-05T06:45:31.147Z</time></trkpt><trkpt lat="43.4431062" lon="11.1448138"><ele>160.5</ele><time>2026-04-05T06:45:32.149Z</time></trkpt><trkpt lat="43.4431644" lon="11.1447643"><ele>160.66666666666666</ele><time>2026-04-05T06:45:33.136Z</time></trkpt><trkpt lat="43.443216" lon="11.1447132"><ele>160.83333333333331</ele><time>2026-04-05T06:45:34.138Z</time></trkpt><trkpt lat="43.4433032" lon="11.1446211"><ele>161.0</ele><time>2026-04-05T06:45:36.153Z</time></trkpt><trkpt lat="43.4433754" lon="11.1445328"><ele>161.0</ele><time>2026-04-05T06:45:38.142Z</time></trkpt><trkpt lat="43.4434323" lon="11.1444657"><ele>161.0</ele><time>2026-04-05T06:45:40.157Z</time></trkpt><trkpt lat="43.4434826" lon="11.1444049"><ele>161.0</ele><time>2026-04-05T06:45:42.139Z</time></trkpt><trkpt lat="43.4435658" lon="11.1443418"><ele>161.0</ele><time>2026-04-05T06:45:45.142Z</time></trkpt><trkpt lat="43.4436399" lon="11.1443057"><ele>161.0</ele><time>2026-04-05T06:45:47.147Z</time></trkpt><trkpt lat="43.4437115" lon="11.1442719"><ele>161.0</ele><time>2026-04-05T06:45:49.132Z</time></trkpt><trkpt lat="43.443796" lon="11.1442498"><ele>159.33333333333331</ele><time>2026-04-05T06:45:51.144Z</time></trkpt><trkpt lat="43.4438823" lon="11.144224"><ele>157.66666666666666</ele><time>2026-04-05T06:45:53.143Z</time></trkpt><trkpt lat="43.4439632" lon="11.1441927"><ele>156.0</ele><time>2026-04-05T06:45:55.141Z</time></trkpt><trkpt lat="43.4440405" lon="11.1441455"><ele>154.33333333333334</ele><time>2026-04-05T06:45:57.142Z</time></trkpt><trkpt lat="43.4441217" lon="11.1440958"><ele>152.66666666666669</ele><time>2026-04-05T06:45:59.134Z</time></trkpt><trkpt lat="43.4442116" lon="11.1440425"><ele>151.0</ele><time>2026-04-05T06:46:01.146Z</time></trkpt><trkpt lat="43.4442983" lon="11.1439783"><ele>151.0</ele><time>2026-04-05T06:46:03.147Z</time></trkpt><trkpt lat="43.4443771" lon="11.1439195"><ele>151.0</ele><time>2026-04-05T06:46:05.132Z</time></trkpt><trkpt lat="43.4444494" lon="11.1438488"><ele>151.0</ele><time>2026-04-05T06:46:07.142Z</time></trkpt><trkpt lat="43.4445142" lon="11.143763"><ele>151.0</ele><time>2026-04-05T06:46:09.138Z</time></trkpt><trkpt lat="43.4445849" lon="11.1436765"><ele>151.0</ele><time>2026-04-05T06:46:11.146Z</time></trkpt><trkpt lat="43.444655" lon="11.1436001"><ele>151.2</ele><time>2026-04-05T06:46:13.146Z</time></trkpt><trkpt lat="43.4447401" lon="11.1435085"><ele>151.39999999999998</ele><time>2026-04-05T06:46:15.136Z</time></trkpt><trkpt lat="43.4448274" lon="11.1434188"><ele>151.6</ele><time>2026-04-05T06:46:17.136Z</time></trkpt><trkpt lat="43.4449081" lon="11.1433052"><ele>151.79999999999998</ele><time>2026-04-05T06:46:19.153Z</time></trkpt><trkpt lat="43.4449347" lon="11.1431632"><ele>152.0</ele><time>2026-04-05T06:46:21.146Z</time></trkpt><trkpt lat="43.4449246" lon="11.1429965"><ele>152.0</ele><time>2026-04-05T06:46:23.151Z</time></trkpt><trkpt lat="43.4449104" lon="11.1429096"><ele>152.0</ele><time>2026-04-05T06:46:24.135Z</time></trkpt><trkpt lat="43.4448981" lon="11.1428154"><ele>152.0</ele><time>2026-04-05T06:46:25.145Z</time></trkpt><trkpt lat="43.4448855" lon="11.1427139"><ele>152.0</ele><time>2026-04-05T06:46:26.145Z</time></trkpt><trkpt lat="43.4448732" lon="11.1426023"><ele>152.0</ele><time>2026-04-05T06:46:27.137Z</time></trkpt><trkpt lat="43.4448651" lon="11.1424861"><ele>152.0</ele><time>2026-04-05T06:46:28.157Z</time></trkpt><trkpt lat="43.4448529" lon="11.1423652"><ele>150.83333333333331</ele><time>2026-04-05T06:46:29.136Z</time></trkpt><trkpt lat="43.4448421" lon="11.1422473"><ele>149.66666666666666</ele><time>2026-04-05T06:46:30.149Z</time></trkpt><trkpt lat="43.444845" lon="11.1421371"><ele>148.5</ele><time>2026-04-05T06:46:31.152Z</time></trkpt><trkpt lat="43.4448535" lon="11.1420348"><ele>147.33333333333334</ele><time>2026-04-05T06:46:32.155Z</time></trkpt><trkpt lat="43.444873" lon="11.1419471"><ele>146.16666666666669</ele><time>2026-04-05T06:46:33.144Z</time></trkpt><trkpt lat="43.4448997" lon="11.1418632"><ele>145.0</ele><time>2026-04-05T06:46:34.147Z</time></trkpt><trkpt lat="43.4449665" lon="11.1417172"><ele>145.0</ele><time>2026-04-05T06:46:36.142Z</time></trkpt><trkpt lat="43.4450017" lon="11.141642"><ele>145.0</ele><time>2026-04-05T06:46:37.15Z</time></trkpt><trkpt lat="43.4450379" lon="11.1415648"><ele>145.0</ele><time>2026-04-05T06:46:38.151Z</time></trkpt><trkpt lat="43.445076" lon="11.1414868"><ele>145.0</ele><time>2026-04-05T06:46:39.147Z</time></trkpt><trkpt lat="43.445115" lon="11.1414062"><ele>145.0</ele><time>2026-04-05T06:46:40.149Z</time></trkpt><trkpt lat="43.445152" lon="11.1413188"><ele>145.0</ele><time>2026-04-05T06:46:41.17Z</time></trkpt><trkpt lat="43.4451824" lon="11.1412313"><ele>145.0</ele><time>2026-04-05T06:46:42.152Z</time></trkpt><trkpt lat="43.4452008" lon="11.1411301"><ele>144.14285714285714</ele><time>2026-04-05T06:46:43.17Z</time></trkpt><trkpt lat="43.4452162" lon="11.141035"><ele>143.2857142857143</ele><time>2026-04-05T06:46:44.149Z</time></trkpt><trkpt lat="43.4452369" lon="11.1409416"><ele>142.42857142857144</ele><time>2026-04-05T06:46:45.137Z</time></trkpt><trkpt lat="43.4452608" lon="11.1408414"><ele>141.57142857142858</ele><time>2026-04-05T06:46:46.146Z</time></trkpt><trkpt lat="43.4452827" lon="11.1407487"><ele>140.71428571428572</ele><time>2026-04-05T06:46:47.152Z</time></trkpt><trkpt lat="43.4452904" lon="11.1406462"><ele>139.85714285714286</ele><time>2026-04-05T06:46:48.14Z</time></trkpt><trkpt lat="43.4452933" lon="11.1405474"><ele>139.0</ele><time>2026-04-05T06:46:49.138Z</time></trkpt><trkpt lat="43.4452936" lon="11.1404443"><ele>139.0</ele><time>2026-04-05T06:46:50.143Z</time></trkpt><trkpt lat="43.4452919" lon="11.1403474"><ele>139.0</ele><time>2026-04-05T06:46:51.141Z</time></trkpt><trkpt lat="43.4452854" lon="11.1401754"><ele>139.0</ele><time>2026-04-05T06:46:53.145Z</time></trkpt><trkpt lat="43.4452795" lon="11.1400788"><ele>139.0</ele><time>2026-04-05T06:46:54.15Z</time></trkpt><trkpt lat="43.4452734" lon="11.1399776"><ele>139.0</ele><time>2026-04-05T06:46:55.131Z</time></trkpt><trkpt lat="43.4452674" lon="11.1398811"><ele>139.0</ele><time>2026-04-05T06:46:56.156Z</time></trkpt><trkpt lat="43.4452602" lon="11.1397936"><ele>139.0</ele><time>2026-04-05T06:46:57.136Z</time></trkpt><trkpt lat="43.4452515" lon="11.1397067"><ele>139.0</ele><time>2026-04-05T06:46:58.145Z</time></trkpt><trkpt lat="43.4452381" lon="11.1396218"><ele>139.0</ele><time>2026-04-05T06:46:59.145Z</time></trkpt><trkpt lat="43.4452383" lon="11.1394598"><ele>139.0</ele><time>2026-04-05T06:47:01.144Z</time></trkpt><trkpt lat="43.445325" lon="11.1393507"><ele>139.0</ele><time>2026-04-05T06:47:03.144Z</time></trkpt><trkpt lat="43.4454355" lon="11.1393346"><ele>140.4</ele><time>2026-04-05T06:47:05.148Z</time></trkpt><trkpt lat="43.4455377" lon="11.1393734"><ele>141.8</ele><time>2026-04-05T06:47:07.158Z</time></trkpt><trkpt lat="43.4456395" lon="11.1393703"><ele>143.2</ele><time>2026-04-05T06:47:09.149Z</time></trkpt><trkpt lat="43.4457352" lon="11.1393743"><ele>144.6</ele><time>2026-04-05T06:47:11.153Z</time></trkpt><trkpt lat="43.4458416" lon="11.1393792"><ele>146.0</ele><time>2026-04-05T06:47:13.143Z</time></trkpt><trkpt lat="43.4459419" lon="11.1393997"><ele>146.0</ele><time>2026-04-05T06:47:15.145Z</time></trkpt><trkpt lat="43.4460468" lon="11.1394008"><ele>146.0</ele><time>2026-04-05T06:47:17.147Z</time></trkpt><trkpt lat="43.4461543" lon="11.1394031"><ele>146.0</ele><time>2026-04-05T06:47:19.136Z</time></trkpt><trkpt lat="43.4462593" lon="11.139387"><ele>146.0</ele><time>2026-04-05T06:47:21.147Z</time></trkpt><trkpt lat="43.4463355" lon="11.139268"><ele>146.0</ele><time>2026-04-05T06:47:23.144Z</time></trkpt><trkpt lat="43.4463536" lon="11.1391839"><ele>145.4</ele><time>2026-04-05T06:47:24.147Z</time></trkpt><trkpt lat="43.4463587" lon="11.1390224"><ele>144.8</ele><time>2026-04-05T06:47:26.149Z</time></trkpt><trkpt lat="43.4463516" lon="11.1388642"><ele>144.20000000000002</ele><time>2026-04-05T06:47:28.153Z</time></trkpt><trkpt lat="43.4463466" lon="11.1387174"><ele>143.6</ele><time>2026-04-05T06:47:30.157Z</time></trkpt><trkpt lat="43.4463459" lon="11.1385775"><ele>143.0</ele><time>2026-04-05T06:47:32.137Z</time></trkpt><trkpt lat="43.4463466" lon="11.1384419"><ele>143.0</ele><time>2026-04-05T06:47:34.147Z</time></trkpt><trkpt lat="43.4463459" lon="11.138312"><ele>143.0</ele><time>2026-04-05T06:47:36.154Z</time></trkpt><trkpt lat="43.4463444" lon="11.1381807"><ele>143.0</ele><time>2026-04-05T06:47:38.139Z</time></trkpt><trkpt lat="43.4463458" lon="11.1380594"><ele>143.0</ele><time>2026-04-05T06:47:40.15Z</time></trkpt><trkpt lat="43.4463394" lon="11.1379366"><ele>143.0</ele><time>2026-04-05T06:47:42.151Z</time></trkpt><trkpt lat="43.4463422" lon="11.1378168"><ele>143.0</ele><time>2026-04-05T06:47:44.174Z</time></trkpt><trkpt lat="43.4463432" lon="11.137696"><ele>143.0</ele><time>2026-04-05T06:47:46.137Z</time></trkpt><trkpt lat="43.4463446" lon="11.1375771"><ele>143.0</ele><time>2026-04-05T06:47:48.148Z</time></trkpt><trkpt lat="43.4463518" lon="11.1374574"><ele>143.0</ele><time>2026-04-05T06:47:50.143Z</time></trkpt><trkpt lat="43.4463758" lon="11.1373481"><ele>143.0</ele><time>2026-04-05T06:47:52.144Z</time></trkpt><trkpt lat="43.4464298" lon="11.1372497"><ele>143.0</ele><time>2026-04-05T06:47:54.144Z</time></trkpt><trkpt lat="43.4464908" lon="11.1371689"><ele>143.0</ele><time>2026-04-05T06:47:56.141Z</time></trkpt><trkpt lat="43.44655" lon="11.1370872"><ele>143.0</ele><time>2026-04-05T06:47:58.148Z</time></trkpt><trkpt lat="43.4466163" lon="11.13701"><ele>143.0</ele><time>2026-04-05T06:48:00.142Z</time></trkpt><trkpt lat="43.4466932" lon="11.1369401"><ele>143.0</ele><time>2026-04-05T06:48:02.148Z</time></trkpt><trkpt lat="43.4467814" lon="11.1368704"><ele>143.0</ele><time>2026-04-05T06:48:04.128Z</time></trkpt><trkpt lat="43.4468671" lon="11.1367958"><ele>143.0</ele><time>2026-04-05T06:48:06.183Z</time></trkpt><trkpt lat="43.4469714" lon="11.1367489"><ele>143.0</ele><time>2026-04-05T06:48:08.128Z</time></trkpt><trkpt lat="43.4470937" lon="11.1367605"><ele>143.0</ele><time>2026-04-05T06:48:10.142Z</time></trkpt><trkpt lat="43.4471629" lon="11.1367753"><ele>143.0</ele><time>2026-04-05T06:48:11.159Z</time></trkpt><trkpt lat="43.4472294" lon="11.1367888"><ele>143.0</ele><time>2026-04-05T06:48:12.146Z</time></trkpt><trkpt lat="43.4472978" lon="11.1368013"><ele>143.0</ele><time>2026-04-05T06:48:13.132Z</time></trkpt><trkpt lat="43.4473637" lon="11.1368123"><ele>142.85714285714283</ele><time>2026-04-05T06:48:14.152Z</time></trkpt><trkpt lat="43.4474326" lon="11.1368218"><ele>142.71428571428572</ele><time>2026-04-05T06:48:15.149Z</time></trkpt><trkpt lat="43.4475" lon="11.1368246"><ele>142.57142857142856</ele><time>2026-04-05T06:48:16.158Z</time></trkpt><trkpt lat="43.4475655" lon="11.1368265"><ele>142.42857142857142</ele><time>2026-04-05T06:48:17.17Z</time></trkpt><trkpt lat="43.4476324" lon="11.136832"><ele>142.28571428571428</ele><time>2026-04-05T06:48:18.148Z</time></trkpt><trkpt lat="43.4476977" lon="11.136834"><ele>142.14285714285714</ele><time>2026-04-05T06:48:19.144Z</time></trkpt><trkpt lat="43.4477623" lon="11.1368399"><ele>142.0</ele><time>2026-04-05T06:48:20.134Z</time></trkpt><trkpt lat="43.4478257" lon="11.1368445"><ele>142.0</ele><time>2026-04-05T06:48:21.147Z</time></trkpt><trkpt lat="43.4478911" lon="11.1368518"><ele>142.0</ele><time>2026-04-05T06:48:22.142Z</time></trkpt><trkpt lat="43.4480088" lon="11.1368669"><ele>142.0</ele><time>2026-04-05T06:48:24.132Z</time></trkpt><trkpt lat="43.4481241" lon="11.1368713"><ele>142.0</ele><time>2026-04-05T06:48:26.153Z</time></trkpt><trkpt lat="43.4482367" lon="11.1368738"><ele>142.0</ele><time>2026-04-05T06:48:28.154Z</time></trkpt><trkpt lat="43.4483462" lon="11.1368876"><ele>141.79999999999998</ele><time>2026-04-05T06:48:30.142Z</time></trkpt><trkpt lat="43.4484508" lon="11.1368976"><ele>141.6</ele><time>2026-04-05T06:48:32.172Z</time></trkpt><trkpt lat="43.4485574" lon="11.1369028"><ele>141.39999999999998</ele><time>2026-04-05T06:48:34.166Z</time></trkpt><trkpt lat="43.4486661" lon="11.1369105"><ele>141.2</ele><time>2026-04-05T06:48:36.155Z</time></trkpt><trkpt lat="43.4487718" lon="11.1369186"><ele>141.0</ele><time>2026-04-05T06:48:38.142Z</time></trkpt><trkpt lat="43.4488758" lon="11.1369287"><ele>141.0</ele><time>2026-04-05T06:48:40.15Z</time></trkpt><trkpt lat="43.4489776" lon="11.1369369"><ele>141.0</ele><time>2026-04-05T06:48:42.155Z</time></trkpt><trkpt lat="43.4490789" lon="11.1369553"><ele>141.0</ele><time>2026-04-05T06:48:44.152Z</time></trkpt><trkpt lat="43.4491839" lon="11.1369593"><ele>141.0</ele><time>2026-04-05T06:48:46.156Z</time></trkpt><trkpt lat="43.4492897" lon="11.1369726"><ele>141.0</ele><time>2026-04-05T06:48:48.154Z</time></trkpt><trkpt lat="43.449395" lon="11.1369782"><ele>141.0</ele><time>2026-04-05T06:48:50.143Z</time></trkpt><trkpt lat="43.4495053" lon="11.1369894"><ele>141.0</ele><time>2026-04-05T06:48:52.145Z</time></trkpt><trkpt lat="43.4496134" lon="11.1369981"><ele>141.0</ele><time>2026-04-05T06:48:54.155Z</time></trkpt><trkpt lat="43.4497261" lon="11.1370051"><ele>141.0</ele><time>2026-04-05T06:48:56.156Z</time></trkpt><trkpt lat="43.4498438" lon="11.1370147"><ele>140.4</ele><time>2026-04-05T06:48:58.144Z</time></trkpt><trkpt lat="43.4499576" lon="11.1370239"><ele>139.8</ele><time>2026-04-05T06:49:00.141Z</time></trkpt><trkpt lat="43.4500635" lon="11.1370266"><ele>139.20000000000002</ele><time>2026-04-05T06:49:02.152Z</time></trkpt><trkpt lat="43.4501711" lon="11.1370353"><ele>138.6</ele><time>2026-04-05T06:49:04.139Z</time></trkpt><trkpt lat="43.4502794" lon="11.1370464"><ele>138.0</ele><time>2026-04-05T06:49:06.147Z</time></trkpt><trkpt lat="43.4503798" lon="11.1370602"><ele>138.0</ele><time>2026-04-05T06:49:08.159Z</time></trkpt><trkpt lat="43.4504561" lon="11.1370419"><ele>138.0</ele><time>2026-04-05T06:49:10.137Z</time></trkpt><trkpt lat="43.4504832" lon="11.136948"><ele>138.0</ele><time>2026-04-05T06:49:12.167Z</time></trkpt><trkpt lat="43.4504657" lon="11.1368397"><ele>138.0</ele><time>2026-04-05T06:49:14.145Z</time></trkpt><trkpt lat="43.4504283" lon="11.1367313"><ele>138.0</ele><time>2026-04-05T06:49:16.141Z</time></trkpt><trkpt lat="43.4503889" lon="11.1366166"><ele>138.0</ele><time>2026-04-05T06:49:18.166Z</time></trkpt><trkpt lat="43.4503525" lon="11.1365002"><ele>137.8</ele><time>2026-04-05T06:49:20.153Z</time></trkpt><trkpt lat="43.4503185" lon="11.1363859"><ele>137.60000000000002</ele><time>2026-04-05T06:49:22.165Z</time></trkpt><trkpt lat="43.4502796" lon="11.1362651"><ele>137.39999999999998</ele><time>2026-04-05T06:49:24.152Z</time></trkpt><trkpt lat="43.4502449" lon="11.136143"><ele>137.2</ele><time>2026-04-05T06:49:26.155Z</time></trkpt><trkpt lat="43.4502079" lon="11.1360207"><ele>137.0</ele><time>2026-04-05T06:49:28.146Z</time></trkpt><trkpt lat="43.4501718" lon="11.1359062"><ele>137.0</ele><time>2026-04-05T06:49:30.154Z</time></trkpt><trkpt lat="43.4501408" lon="11.13579"><ele>137.0</ele><time>2026-04-05T06:49:32.132Z</time></trkpt><trkpt lat="43.4501048" lon="11.1356739"><ele>137.0</ele><time>2026-04-05T06:49:34.144Z</time></trkpt><trkpt lat="43.4500659" lon="11.1355546"><ele>137.0</ele><time>2026-04-05T06:49:36.143Z</time></trkpt><trkpt lat="43.4500309" lon="11.1354342"><ele>137.0</ele><time>2026-04-05T06:49:38.154Z</time></trkpt><trkpt lat="43.4499815" lon="11.1352945"><ele>136.6</ele><time>2026-04-05T06:49:40.165Z</time></trkpt><trkpt lat="43.4499322" lon="11.1351528"><ele>136.2</ele><time>2026-04-05T06:49:42.146Z</time></trkpt><trkpt lat="43.4498876" lon="11.1350085"><ele>135.8</ele><time>2026-04-05T06:49:44.15Z</time></trkpt><trkpt lat="43.4498424" lon="11.13487"><ele>135.4</ele><time>2026-04-05T06:49:46.144Z</time></trkpt><trkpt lat="43.4497981" lon="11.1347415"><ele>135.0</ele><time>2026-04-05T06:49:48.152Z</time></trkpt><trkpt lat="43.4497616" lon="11.1346145"><ele>134.83333333333334</ele><time>2026-04-05T06:49:50.137Z</time></trkpt><trkpt lat="43.4497256" lon="11.134496"><ele>134.66666666666666</ele><time>2026-04-05T06:49:52.154Z</time></trkpt><trkpt lat="43.4496943" lon="11.1343898"><ele>134.5</ele><time>2026-04-05T06:49:54.154Z</time></trkpt><trkpt lat="43.4496662" lon="11.1342999"><ele>134.33333333333331</ele><time>2026-04-05T06:49:56.144Z</time></trkpt><trkpt lat="43.4496406" lon="11.1342128"><ele>134.16666666666666</ele><time>2026-04-05T06:49:58.138Z</time></trkpt><trkpt lat="43.4496154" lon="11.1341263"><ele>134.0</ele><time>2026-04-05T06:50:00.146Z</time></trkpt><trkpt lat="43.4495877" lon="11.1340359"><ele>134.0</ele><time>2026-04-05T06:50:02.144Z</time></trkpt><trkpt lat="43.4495553" lon="11.1339405"><ele>134.0</ele><time>2026-04-05T06:50:04.145Z</time></trkpt><trkpt lat="43.4495186" lon="11.1338312"><ele>134.0</ele><time>2026-04-05T06:50:06.148Z</time></trkpt><trkpt lat="43.4494821" lon="11.1337191"><ele>134.0</ele><time>2026-04-05T06:50:08.156Z</time></trkpt><trkpt lat="43.4494451" lon="11.1336114"><ele>134.0</ele><time>2026-04-05T06:50:10.145Z</time></trkpt><trkpt lat="43.4494008" lon="11.133502"><ele>134.0</ele><time>2026-04-05T06:50:12.155Z</time></trkpt><trkpt lat="43.4493636" lon="11.1334101"><ele>134.0</ele><time>2026-04-05T06:50:14.137Z</time></trkpt><trkpt lat="43.44935" lon="11.1333178"><ele>134.0</ele><time>2026-04-05T06:50:16.148Z</time></trkpt><trkpt lat="43.4493347" lon="11.133229"><ele>134.0</ele><time>2026-04-05T06:50:18.15Z</time></trkpt><trkpt lat="43.4492736" lon="11.1331276"><ele>134.0</ele><time>2026-04-05T06:50:21.142Z</time></trkpt><trkpt lat="43.449235" lon="11.1330467"><ele>134.0</ele><time>2026-04-05T06:50:23.144Z</time></trkpt><trkpt lat="43.4492322" lon="11.1329232"><ele>134.0</ele><time>2026-04-05T06:50:26.148Z</time></trkpt><trkpt lat="43.4492797" lon="11.1328474"><ele>132.33333333333331</ele><time>2026-04-05T06:50:29.136Z</time></trkpt><trkpt lat="43.4493723" lon="11.132848"><ele>130.66666666666666</ele><time>2026-04-05T06:50:33.15Z</time></trkpt><trkpt lat="43.44944" lon="11.1328588"><ele>129.0</ele><time>2026-04-05T06:50:35.141Z</time></trkpt><trkpt lat="43.4495312" lon="11.1328787"><ele>127.33333333333334</ele><time>2026-04-05T06:50:38.144Z</time></trkpt><trkpt lat="43.4495985" lon="11.1329004"><ele>125.66666666666667</ele><time>2026-04-05T06:50:40.152Z</time></trkpt><trkpt lat="43.4496625" lon="11.132933"><ele>124.0</ele><time>2026-04-05T06:50:42.144Z</time></trkpt><trkpt lat="43.4497224" lon="11.1329695"><ele>122.33333333333334</ele><time>2026-04-05T06:50:44.148Z</time></trkpt><trkpt lat="43.4498175" lon="11.1329939"><ele>120.66666666666667</ele><time>2026-04-05T06:50:47.161Z</time></trkpt><trkpt lat="43.4498999" lon="11.1329983"><ele>119.0</ele><time>2026-04-05T06:50:49.143Z</time></trkpt><trkpt lat="43.4499765" lon="11.1330128"><ele>117.33333333333334</ele><time>2026-04-05T06:50:51.146Z</time></trkpt><trkpt lat="43.4500426" lon="11.1330246"><ele>115.66666666666667</ele><time>2026-04-05T06:50:53.148Z</time></trkpt><trkpt lat="43.4501042" lon="11.1329837"><ele>114.0</ele><time>2026-04-05T06:50:56.133Z</time></trkpt><trkpt lat="43.4500901" lon="11.1328815"><ele>114.0</ele><time>2026-04-05T06:51:00.134Z</time></trkpt><trkpt lat="43.4500149" lon="11.1328233"><ele>114.0</ele><time>2026-04-05T06:51:03.135Z</time></trkpt><trkpt lat="43.4499439" lon="11.1327812"><ele>114.0</ele><time>2026-04-05T06:51:05.141Z</time></trkpt><trkpt lat="43.4498587" lon="11.1327259"><ele>114.0</ele><time>2026-04-05T06:51:07.149Z</time></trkpt><trkpt lat="43.4497826" lon="11.1326745"><ele>114.0</ele><time>2026-04-05T06:51:09.151Z</time></trkpt><trkpt lat="43.4497116" lon="11.1326125"><ele>114.0</ele><time>2026-04-05T06:51:11.128Z</time></trkpt><trkpt lat="43.4496205" lon="11.1325456"><ele>113.0</ele><time>2026-04-05T06:51:13.136Z</time></trkpt><trkpt lat="43.4495417" lon="11.1324812"><ele>112.0</ele><time>2026-04-05T06:51:15.146Z</time></trkpt><trkpt lat="43.4494871" lon="11.1324176"><ele>111.0</ele><time>2026-04-05T06:51:17.135Z</time></trkpt><trkpt lat="43.4494346" lon="11.1323493"><ele>110.0</ele><time>2026-04-05T06:51:19.142Z</time></trkpt><trkpt lat="43.4494052" lon="11.1322576"><ele>109.0</ele><time>2026-04-05T06:51:21.13Z</time></trkpt><trkpt lat="43.4494192" lon="11.1321384"><ele>108.0</ele><time>2026-04-05T06:51:23.145Z</time></trkpt><trkpt lat="43.4494507" lon="11.1320421"><ele>108.0</ele><time>2026-04-05T06:51:25.144Z</time></trkpt><trkpt lat="43.44947" lon="11.1319536"><ele>108.0</ele><time>2026-04-05T06:51:27.149Z</time></trkpt><trkpt lat="43.4495271" lon="11.1319157"><ele>108.0</ele><time>2026-04-05T06:51:29.136Z</time></trkpt><trkpt lat="43.4495999" lon="11.1319308"><ele>108.0</ele><time>2026-04-05T06:51:31.146Z</time></trkpt><trkpt lat="43.4496824" lon="11.1319509"><ele>108.0</ele><time>2026-04-05T06:51:33.153Z</time></trkpt><trkpt lat="43.44977" lon="11.1319603"><ele>108.0</ele><time>2026-04-05T06:51:35.141Z</time></trkpt><trkpt lat="43.4498579" lon="11.1319675"><ele>107.60000000000001</ele><time>2026-04-05T06:51:37.152Z</time></trkpt><trkpt lat="43.4499549" lon="11.1319693"><ele>107.20000000000002</ele><time>2026-04-05T06:51:39.139Z</time></trkpt><trkpt lat="43.4500488" lon="11.131974"><ele>106.8</ele><time>2026-04-05T06:51:41.144Z</time></trkpt><trkpt lat="43.4501378" lon="11.1319791"><ele>106.4</ele><time>2026-04-05T06:51:43.148Z</time></trkpt><trkpt lat="43.4502297" lon="11.1319866"><ele>106.0</ele><time>2026-04-05T06:51:45.138Z</time></trkpt><trkpt lat="43.4503211" lon="11.1319966"><ele>106.00000000000001</ele><time>2026-04-05T06:51:47.134Z</time></trkpt><trkpt lat="43.4504055" lon="11.1320008"><ele>106.0</ele><time>2026-04-05T06:51:49.152Z</time></trkpt><trkpt lat="43.4504917" lon="11.1320095"><ele>106.0</ele><time>2026-04-05T06:51:51.159Z</time></trkpt><trkpt lat="43.4505831" lon="11.1320219"><ele>106.0</ele><time>2026-04-05T06:51:53.144Z</time></trkpt><trkpt lat="43.4506707" lon="11.1320334"><ele>106.00000000000001</ele><time>2026-04-05T06:51:55.144Z</time></trkpt><trkpt lat="43.4507539" lon="11.1320497"><ele>106.0</ele><time>2026-04-05T06:51:57.148Z</time></trkpt><trkpt lat="43.4508361" lon="11.1320638"><ele>105.8</ele><time>2026-04-05T06:51:59.163Z</time></trkpt><trkpt lat="43.4509181" lon="11.1320775"><ele>105.6</ele><time>2026-04-05T06:52:01.148Z</time></trkpt><trkpt lat="43.451016" lon="11.1321003"><ele>105.4</ele><time>2026-04-05T06:52:03.149Z</time></trkpt><trkpt lat="43.4511084" lon="11.1321288"><ele>105.2</ele><time>2026-04-05T06:52:05.136Z</time></trkpt><trkpt lat="43.4511945" lon="11.1321559"><ele>105.0</ele><time>2026-04-05T06:52:07.151Z</time></trkpt><trkpt lat="43.4512878" lon="11.1321929"><ele>105.4</ele><time>2026-04-05T06:52:09.158Z</time></trkpt><trkpt lat="43.451388" lon="11.1322257"><ele>105.8</ele><time>2026-04-05T06:52:11.145Z</time></trkpt><trkpt lat="43.4514791" lon="11.1322761"><ele>106.19999999999999</ele><time>2026-04-05T06:52:13.166Z</time></trkpt><trkpt lat="43.4515732" lon="11.1323257"><ele>106.6</ele><time>2026-04-05T06:52:15.138Z</time></trkpt><trkpt lat="43.4516675" lon="11.1323647"><ele>107.0</ele><time>2026-04-05T06:52:17.147Z</time></trkpt><trkpt lat="43.4517577" lon="11.1324121"><ele>107.0</ele><time>2026-04-05T06:52:19.142Z</time></trkpt><trkpt lat="43.4518499" lon="11.1324629"><ele>106.99999999999999</ele><time>2026-04-05T06:52:21.135Z</time></trkpt><trkpt lat="43.45195" lon="11.1324985"><ele>106.99999999999999</ele><time>2026-04-05T06:52:23.143Z</time></trkpt><trkpt lat="43.4520382" lon="11.1325428"><ele>107.0</ele><time>2026-04-05T06:52:25.135Z</time></trkpt><trkpt lat="43.4521258" lon="11.1325993"><ele>107.0</ele><time>2026-04-05T06:52:27.135Z</time></trkpt><trkpt lat="43.452215" lon="11.1326469"><ele>106.39999999999999</ele><time>2026-04-05T06:52:29.142Z</time></trkpt><trkpt lat="43.4523069" lon="11.1326887"><ele>105.79999999999998</ele><time>2026-04-05T06:52:31.16Z</time></trkpt><trkpt lat="43.4524007" lon="11.1327355"><ele>105.2</ele><time>2026-04-05T06:52:33.136Z</time></trkpt><trkpt lat="43.4524902" lon="11.1327822"><ele>104.6</ele><time>2026-04-05T06:52:35.144Z</time></trkpt><trkpt lat="43.452576" lon="11.1328334"><ele>104.0</ele><time>2026-04-05T06:52:37.141Z</time></trkpt><trkpt lat="43.4526663" lon="11.1328742"><ele>104.0</ele><time>2026-04-05T06:52:39.137Z</time></trkpt><trkpt lat="43.4527599" lon="11.1329164"><ele>104.0</ele><time>2026-04-05T06:52:41.148Z</time></trkpt><trkpt lat="43.4528408" lon="11.1329645"><ele>104.0</ele><time>2026-04-05T06:52:43.132Z</time></trkpt><trkpt lat="43.4529226" lon="11.1330048"><ele>104.0</ele><time>2026-04-05T06:52:45.143Z</time></trkpt><trkpt lat="43.4530063" lon="11.1330457"><ele>104.0</ele><time>2026-04-05T06:52:47.149Z</time></trkpt><trkpt lat="43.4530918" lon="11.1330925"><ele>104.0</ele><time>2026-04-05T06:52:49.144Z</time></trkpt><trkpt lat="43.4531744" lon="11.1331365"><ele>104.0</ele><time>2026-04-05T06:52:51.151Z</time></trkpt><trkpt lat="43.4532617" lon="11.1331757"><ele>104.0</ele><time>2026-04-05T06:52:53.146Z</time></trkpt><trkpt lat="43.4533509" lon="11.1332157"><ele>104.0</ele><time>2026-04-05T06:52:55.148Z</time></trkpt><trkpt lat="43.4534378" lon="11.1332607"><ele>104.0</ele><time>2026-04-05T06:52:57.133Z</time></trkpt><trkpt lat="43.4535231" lon="11.1333172"><ele>104.0</ele><time>2026-04-05T06:52:59.135Z</time></trkpt><trkpt lat="43.4536034" lon="11.1333665"><ele>104.0</ele><time>2026-04-05T06:53:01.164Z</time></trkpt><trkpt lat="43.4536911" lon="11.1334049"><ele>104.0</ele><time>2026-04-05T06:53:03.148Z</time></trkpt><trkpt lat="43.4537756" lon="11.1334435"><ele>104.0</ele><time>2026-04-05T06:53:05.147Z</time></trkpt><trkpt lat="43.4538625" lon="11.1334917"><ele>104.0</ele><time>2026-04-05T06:53:07.149Z</time></trkpt><trkpt lat="43.4539488" lon="11.1335364"><ele>103.66666666666666</ele><time>2026-04-05T06:53:09.146Z</time></trkpt><trkpt lat="43.4540312" lon="11.1335806"><ele>103.33333333333333</ele><time>2026-04-05T06:53:11.138Z</time></trkpt><trkpt lat="43.454113" lon="11.1336257"><ele>103.0</ele><time>2026-04-05T06:53:13.145Z</time></trkpt><trkpt lat="43.454193" lon="11.133669"><ele>102.66666666666666</ele><time>2026-04-05T06:53:15.145Z</time></trkpt><trkpt lat="43.4542799" lon="11.1337095"><ele>102.33333333333333</ele><time>2026-04-05T06:53:17.156Z</time></trkpt><trkpt lat="43.4543653" lon="11.1337471"><ele>102.0</ele><time>2026-04-05T06:53:19.151Z</time></trkpt><trkpt lat="43.4544496" lon="11.1337958"><ele>102.0</ele><time>2026-04-05T06:53:21.15Z</time></trkpt><trkpt lat="43.4545327" lon="11.1338396"><ele>102.0</ele><time>2026-04-05T06:53:23.15Z</time></trkpt><trkpt lat="43.4546224" lon="11.1338814"><ele>102.0</ele><time>2026-04-05T06:53:25.139Z</time></trkpt><trkpt lat="43.4547124" lon="11.133927"><ele>102.0</ele><time>2026-04-05T06:53:27.154Z</time></trkpt><trkpt lat="43.4548017" lon="11.1339665"><ele>102.0</ele><time>2026-04-05T06:53:29.169Z</time></trkpt><trkpt lat="43.454888" lon="11.1339955"><ele>102.83333333333333</ele><time>2026-04-05T06:53:31.149Z</time></trkpt><trkpt lat="43.4549777" lon="11.1340227"><ele>103.66666666666666</ele><time>2026-04-05T06:53:33.137Z</time></trkpt><trkpt lat="43.4550613" lon="11.1340424"><ele>104.5</ele><time>2026-04-05T06:53:35.145Z</time></trkpt><trkpt lat="43.4551469" lon="11.1340642"><ele>105.33333333333333</ele><time>2026-04-05T06:53:37.136Z</time></trkpt><trkpt lat="43.4552243" lon="11.1340845"><ele>106.16666666666666</ele><time>2026-04-05T06:53:39.138Z</time></trkpt><trkpt lat="43.4553007" lon="11.1340907"><ele>107.0</ele><time>2026-04-05T06:53:41.13Z</time></trkpt><trkpt lat="43.4553776" lon="11.134105"><ele>106.99999999999999</ele><time>2026-04-05T06:53:43.138Z</time></trkpt><trkpt lat="43.4554458" lon="11.1341016"><ele>107.0</ele><time>2026-04-05T06:53:45.141Z</time></trkpt><trkpt lat="43.4555083" lon="11.1340807"><ele>107.0</ele><time>2026-04-05T06:53:47.128Z</time></trkpt><trkpt lat="43.4555777" lon="11.1340468"><ele>107.0</ele><time>2026-04-05T06:53:49.126Z</time></trkpt><trkpt lat="43.4556765" lon="11.134007"><ele>106.99999999999999</ele><time>2026-04-05T06:53:51.137Z</time></trkpt><trkpt lat="43.4557717" lon="11.1339622"><ele>107.0</ele><time>2026-04-05T06:53:53.143Z</time></trkpt><trkpt lat="43.4558583" lon="11.1339119"><ele>109.66666666666666</ele><time>2026-04-05T06:53:55.145Z</time></trkpt><trkpt lat="43.4559419" lon="11.1338651"><ele>112.33333333333333</ele><time>2026-04-05T06:53:57.137Z</time></trkpt><trkpt lat="43.4560234" lon="11.1338187"><ele>115.0</ele><time>2026-04-05T06:53:59.145Z</time></trkpt><trkpt lat="43.4561041" lon="11.1337689"><ele>117.66666666666666</ele><time>2026-04-05T06:54:01.132Z</time></trkpt><trkpt lat="43.456175" lon="11.133714"><ele>120.33333333333333</ele><time>2026-04-05T06:54:03.139Z</time></trkpt><trkpt lat="43.4562508" lon="11.1336685"><ele>123.0</ele><time>2026-04-05T06:54:05.167Z</time></trkpt><trkpt lat="43.4563258" lon="11.1336275"><ele>123.0</ele><time>2026-04-05T06:54:07.152Z</time></trkpt><trkpt lat="43.4563973" lon="11.1335822"><ele>123.0</ele><time>2026-04-05T06:54:09.141Z</time></trkpt><trkpt lat="43.4564654" lon="11.1335494"><ele>123.0</ele><time>2026-04-05T06:54:11.134Z</time></trkpt><trkpt lat="43.4565387" lon="11.1335227"><ele>123.0</ele><time>2026-04-05T06:54:13.148Z</time></trkpt><trkpt lat="43.4566168" lon="11.1334967"><ele>123.0</ele><time>2026-04-05T06:54:15.162Z</time></trkpt><trkpt lat="43.4566966" lon="11.1334794"><ele>123.0</ele><time>2026-04-05T06:54:17.142Z</time></trkpt><trkpt lat="43.4567717" lon="11.1334652"><ele>123.0</ele><time>2026-04-05T06:54:19.142Z</time></trkpt><trkpt lat="43.4568465" lon="11.133458"><ele>123.0</ele><time>2026-04-05T06:54:21.139Z</time></trkpt><trkpt lat="43.4569226" lon="11.133453"><ele>123.0</ele><time>2026-04-05T06:54:23.139Z</time></trkpt><trkpt lat="43.4569959" lon="11.1334582"><ele>123.0</ele><time>2026-04-05T06:54:25.138Z</time></trkpt><trkpt lat="43.4570889" lon="11.13347"><ele>123.0</ele><time>2026-04-05T06:54:28.153Z</time></trkpt><trkpt lat="43.4571554" lon="11.1334746"><ele>123.0</ele><time>2026-04-05T06:54:30.14Z</time></trkpt><trkpt lat="43.4572245" lon="11.1335004"><ele>124.14285714285717</ele><time>2026-04-05T06:54:32.139Z</time></trkpt><trkpt lat="43.4572943" lon="11.1335364"><ele>125.28571428571429</ele><time>2026-04-05T06:54:34.127Z</time></trkpt><trkpt lat="43.4573658" lon="11.1335747"><ele>126.42857142857144</ele><time>2026-04-05T06:54:36.142Z</time></trkpt><trkpt lat="43.457432" lon="11.1336164"><ele>127.57142857142858</ele><time>2026-04-05T06:54:38.147Z</time></trkpt><trkpt lat="43.4574985" lon="11.1336576"><ele>128.71428571428572</ele><time>2026-04-05T06:54:40.148Z</time></trkpt><trkpt lat="43.4575684" lon="11.1337036"><ele>129.85714285714286</ele><time>2026-04-05T06:54:42.151Z</time></trkpt><trkpt lat="43.457631" lon="11.1337591"><ele>131.0</ele><time>2026-04-05T06:54:44.143Z</time></trkpt><trkpt lat="43.4576902" lon="11.1338051"><ele>131.0</ele><time>2026-04-05T06:54:46.141Z</time></trkpt><trkpt lat="43.4577456" lon="11.133854"><ele>131.0</ele><time>2026-04-05T06:54:48.134Z</time></trkpt><trkpt lat="43.4577995" lon="11.1339017"><ele>131.0</ele><time>2026-04-05T06:54:50.133Z</time></trkpt><trkpt lat="43.4578549" lon="11.1339523"><ele>131.0</ele><time>2026-04-05T06:54:52.152Z</time></trkpt><trkpt lat="43.4579048" lon="11.1340149"><ele>131.0</ele><time>2026-04-05T06:54:54.144Z</time></trkpt><trkpt lat="43.4579537" lon="11.1340813"><ele>131.0</ele><time>2026-04-05T06:54:56.163Z</time></trkpt><trkpt lat="43.4579999" lon="11.1341613"><ele>131.0</ele><time>2026-04-05T06:54:58.134Z</time></trkpt><trkpt lat="43.4580519" lon="11.1342594"><ele>130.5</ele><time>2026-04-05T06:55:00.125Z</time></trkpt><trkpt lat="43.4580965" lon="11.1343498"><ele>130.0</ele><time>2026-04-05T06:55:02.133Z</time></trkpt><trkpt lat="43.4581392" lon="11.1344456"><ele>129.5</ele><time>2026-04-05T06:55:04.141Z</time></trkpt><trkpt lat="43.4581774" lon="11.1345343"><ele>129.0</ele><time>2026-04-05T06:55:06.141Z</time></trkpt><trkpt lat="43.4582146" lon="11.1346293"><ele>128.5</ele><time>2026-04-05T06:55:08.155Z</time></trkpt><trkpt lat="43.4582471" lon="11.1347282"><ele>128.0</ele><time>2026-04-05T06:55:10.138Z</time></trkpt><trkpt lat="43.45828" lon="11.1348132"><ele>126.33333333333333</ele><time>2026-04-05T06:55:12.159Z</time></trkpt><trkpt lat="43.4583069" lon="11.134897"><ele>124.66666666666666</ele><time>2026-04-05T06:55:14.156Z</time></trkpt><trkpt lat="43.4583321" lon="11.1349792"><ele>123.0</ele><time>2026-04-05T06:55:16.142Z</time></trkpt><trkpt lat="43.4583691" lon="11.1350653"><ele>121.33333333333334</ele><time>2026-04-05T06:55:18.151Z</time></trkpt><trkpt lat="43.4584101" lon="11.1351598"><ele>119.66666666666667</ele><time>2026-04-05T06:55:20.162Z</time></trkpt><trkpt lat="43.4584505" lon="11.1352507"><ele>118.0</ele><time>2026-04-05T06:55:22.136Z</time></trkpt><trkpt lat="43.4585001" lon="11.1353633"><ele>118.00000000000001</ele><time>2026-04-05T06:55:24.157Z</time></trkpt><trkpt lat="43.4585438" lon="11.13546"><ele>118.0</ele><time>2026-04-05T06:55:26.137Z</time></trkpt><trkpt lat="43.4585934" lon="11.1355708"><ele>118.0</ele><time>2026-04-05T06:55:28.15Z</time></trkpt><trkpt lat="43.4586403" lon="11.1356625"><ele>118.0</ele><time>2026-04-05T06:55:30.156Z</time></trkpt><trkpt lat="43.4586979" lon="11.1357578"><ele>118.00000000000001</ele><time>2026-04-05T06:55:32.14Z</time></trkpt><trkpt lat="43.4587531" lon="11.1358268"><ele>118.0</ele><time>2026-04-05T06:55:34.161Z</time></trkpt><trkpt lat="43.4588165" lon="11.1358961"><ele>118.60000000000001</ele><time>2026-04-05T06:55:36.134Z</time></trkpt><trkpt lat="43.458875" lon="11.1359786"><ele>119.20000000000002</ele><time>2026-04-05T06:55:38.136Z</time></trkpt><trkpt lat="43.4589517" lon="11.1360672"><ele>119.8</ele><time>2026-04-05T06:55:40.156Z</time></trkpt><trkpt lat="43.4590323" lon="11.1361546"><ele>120.4</ele><time>2026-04-05T06:55:42.139Z</time></trkpt><trkpt lat="43.4591223" lon="11.1362463"><ele>121.0</ele><time>2026-04-05T06:55:44.134Z</time></trkpt><trkpt lat="43.4592257" lon="11.1363328"><ele>121.0</ele><time>2026-04-05T06:55:46.138Z</time></trkpt><trkpt lat="43.4593223" lon="11.1364144"><ele>121.0</ele><time>2026-04-05T06:55:48.147Z</time></trkpt><trkpt lat="43.4593793" lon="11.1364517"><ele>121.0</ele><time>2026-04-05T06:55:49.151Z</time></trkpt><trkpt lat="43.4594386" lon="11.136485"><ele>121.0</ele><time>2026-04-05T06:55:50.146Z</time></trkpt><trkpt lat="43.4595489" lon="11.1365536"><ele>121.0</ele><time>2026-04-05T06:55:52.146Z</time></trkpt><trkpt lat="43.4596605" lon="11.1366056"><ele>119.0</ele><time>2026-04-05T06:55:54.137Z</time></trkpt><trkpt lat="43.4597701" lon="11.1366492"><ele>117.0</ele><time>2026-04-05T06:55:56.134Z</time></trkpt><trkpt lat="43.4598838" lon="11.136692"><ele>115.0</ele><time>2026-04-05T06:55:58.146Z</time></trkpt><trkpt lat="43.4600034" lon="11.1367083"><ele>113.0</ele><time>2026-04-05T06:56:00.148Z</time></trkpt><trkpt lat="43.4601162" lon="11.1367322"><ele>112.99999999999999</ele><time>2026-04-05T06:56:02.137Z</time></trkpt><trkpt lat="43.4602112" lon="11.1367377"><ele>113.0</ele><time>2026-04-05T06:56:04.147Z</time></trkpt><trkpt lat="43.4602908" lon="11.1367319"><ele>113.0</ele><time>2026-04-05T06:56:06.138Z</time></trkpt><trkpt lat="43.4603172" lon="11.1366212"><ele>113.0</ele><time>2026-04-05T06:56:09.149Z</time></trkpt><trkpt lat="43.4603056" lon="11.1365242"><ele>112.99999999999999</ele><time>2026-04-05T06:56:12.137Z</time></trkpt><trkpt lat="43.4603449" lon="11.1364504"><ele>113.0</ele><time>2026-04-05T06:56:16.141Z</time></trkpt><trkpt lat="43.4604314" lon="11.13648"><ele>112.16666666666666</ele><time>2026-04-05T06:56:19.14Z</time></trkpt><trkpt lat="43.4604983" lon="11.1365145"><ele>111.33333333333333</ele><time>2026-04-05T06:56:21.15Z</time></trkpt><trkpt lat="43.4605694" lon="11.1365534"><ele>110.5</ele><time>2026-04-05T06:56:23.137Z</time></trkpt><trkpt lat="43.4606446" lon="11.1365701"><ele>109.66666666666666</ele><time>2026-04-05T06:56:25.137Z</time></trkpt><trkpt lat="43.4607205" lon="11.1365741"><ele>108.83333333333333</ele><time>2026-04-05T06:56:27.138Z</time></trkpt><trkpt lat="43.4607865" lon="11.136564"><ele>108.0</ele><time>2026-04-05T06:56:29.136Z</time></trkpt><trkpt lat="43.4608763" lon="11.1365405"><ele>110.14285714285714</ele><time>2026-04-05T06:56:32.135Z</time></trkpt><trkpt lat="43.4609411" lon="11.1365076"><ele>112.28571428571428</ele><time>2026-04-05T06:56:35.136Z</time></trkpt><trkpt lat="43.4610178" lon="11.1364914"><ele>114.42857142857144</ele><time>2026-04-05T06:56:38.159Z</time></trkpt><trkpt lat="43.4610872" lon="11.1364763"><ele>116.57142857142858</ele><time>2026-04-05T06:56:40.142Z</time></trkpt><trkpt lat="43.4611581" lon="11.1364659"><ele>118.71428571428572</ele><time>2026-04-05T06:56:42.131Z</time></trkpt><trkpt lat="43.4612348" lon="11.1364523"><ele>120.85714285714288</ele><time>2026-04-05T06:56:44.148Z</time></trkpt><trkpt lat="43.461299" lon="11.13644"><ele>123.00000000000001</ele><time>2026-04-05T06:56:46.14Z</time></trkpt><trkpt lat="43.4613668" lon="11.1364372"><ele>126.2</ele><time>2026-04-05T06:56:48.147Z</time></trkpt><trkpt lat="43.4614482" lon="11.1364344"><ele>129.4</ele><time>2026-04-05T06:56:50.129Z</time></trkpt><trkpt lat="43.4615441" lon="11.1364424"><ele>132.60000000000002</ele><time>2026-04-05T06:56:52.131Z</time></trkpt><trkpt lat="43.4616398" lon="11.136458"><ele>135.8</ele><time>2026-04-05T06:56:54.134Z</time></trkpt><trkpt lat="43.4617377" lon="11.1364859"><ele>139.0</ele><time>2026-04-05T06:56:56.131Z</time></trkpt><trkpt lat="43.4618388" lon="11.1365112"><ele>137.6</ele><time>2026-04-05T06:56:58.145Z</time></trkpt><trkpt lat="43.4619425" lon="11.1365599"><ele>136.2</ele><time>2026-04-05T06:57:00.148Z</time></trkpt><trkpt lat="43.4620524" lon="11.1366381"><ele>134.79999999999998</ele><time>2026-04-05T06:57:02.155Z</time></trkpt><trkpt lat="43.462113" lon="11.1366929"><ele>133.4</ele><time>2026-04-05T06:57:03.139Z</time></trkpt><trkpt lat="43.4621736" lon="11.13675"><ele>132.0</ele><time>2026-04-05T06:57:04.137Z</time></trkpt><trkpt lat="43.462233" lon="11.1368095"><ele>132.0</ele><time>2026-04-05T06:57:05.156Z</time></trkpt><trkpt lat="43.4622986" lon="11.1368664"><ele>132.0</ele><time>2026-04-05T06:57:06.127Z</time></trkpt><trkpt lat="43.4623609" lon="11.1369217"><ele>132.0</ele><time>2026-04-05T06:57:07.139Z</time></trkpt><trkpt lat="43.4624144" lon="11.1369777"><ele>132.0</ele><time>2026-04-05T06:57:08.134Z</time></trkpt><trkpt lat="43.4624645" lon="11.1370357"><ele>132.0</ele><time>2026-04-05T06:57:09.14Z</time></trkpt><trkpt lat="43.462565" lon="11.1371417"><ele>132.0</ele><time>2026-04-05T06:57:11.136Z</time></trkpt><trkpt lat="43.4626192" lon="11.1371917"><ele>132.0</ele><time>2026-04-05T06:57:12.138Z</time></trkpt><trkpt lat="43.4626711" lon="11.1372421"><ele>132.0</ele><time>2026-04-05T06:57:13.153Z</time></trkpt><trkpt lat="43.4627673" lon="11.1373393"><ele>132.0</ele><time>2026-04-05T06:57:15.136Z</time></trkpt><trkpt lat="43.4628517" lon="11.1374478"><ele>132.0</ele><time>2026-04-05T06:57:17.151Z</time></trkpt><trkpt lat="43.4629272" lon="11.1375424"><ele>132.0</ele><time>2026-04-05T06:57:19.156Z</time></trkpt><trkpt lat="43.4629981" lon="11.1376391"><ele>131.5</ele><time>2026-04-05T06:57:21.133Z</time></trkpt><trkpt lat="43.4630558" lon="11.1377044"><ele>131.0</ele><time>2026-04-05T06:57:23.133Z</time></trkpt><trkpt lat="43.4631213" lon="11.1376879"><ele>130.5</ele><time>2026-04-05T06:57:27.143Z</time></trkpt><trkpt lat="43.4631618" lon="11.13776"><ele>130.0</ele><time>2026-04-05T06:57:31.143Z</time></trkpt><trkpt lat="43.4631985" lon="11.1378674"><ele>129.5</ele><time>2026-04-05T06:57:34.143Z</time></trkpt><trkpt lat="43.463258" lon="11.1379573"><ele>129.0</ele><time>2026-04-05T06:57:37.144Z</time></trkpt><trkpt lat="43.4633044" lon="11.1380446"><ele>128.99999999999997</ele><time>2026-04-05T06:57:40.147Z</time></trkpt><trkpt lat="43.4633444" lon="11.1381411"><ele>129.0</ele><time>2026-04-05T06:57:43.151Z</time></trkpt><trkpt lat="43.4633936" lon="11.1382173"><ele>129.0</ele><time>2026-04-05T06:57:47.148Z</time></trkpt><trkpt lat="43.463356" lon="11.1382884"><ele>129.0</ele><time>2026-04-05T06:57:55.135Z</time></trkpt><trkpt lat="43.4633254" lon="11.1383862"><ele>129.0</ele><time>2026-04-05T06:57:59.141Z</time></trkpt><trkpt lat="43.463305" lon="11.1384691"><ele>128.99999999999997</ele><time>2026-04-05T06:58:04.135Z</time></trkpt><trkpt lat="43.4632993" lon="11.1385591"><ele>129.0</ele><time>2026-04-05T06:58:09.151Z</time></trkpt><trkpt lat="43.463328" lon="11.1384544"><ele>129.0</ele><time>2026-04-05T06:58:16.243Z</time></trkpt><trkpt lat="43.4633525" lon="11.1383475"><ele>129.0</ele><time>2026-04-05T06:58:19.211Z</time></trkpt><trkpt lat="43.4633383" lon="11.1382158"><ele>129.0</ele><time>2026-04-05T06:58:22.134Z</time></trkpt><trkpt lat="43.4633239" lon="11.1381061"><ele>129.0</ele><time>2026-04-05T06:58:24.146Z</time></trkpt><trkpt lat="43.4632931" lon="11.1380263"><ele>129.0</ele><time>2026-04-05T06:58:26.135Z</time></trkpt><trkpt lat="43.4632562" lon="11.1379426"><ele>129.0</ele><time>2026-04-05T06:58:28.139Z</time></trkpt><trkpt lat="43.4631987" lon="11.1378669"><ele>129.0</ele><time>2026-04-05T06:58:30.134Z</time></trkpt><trkpt lat="43.4631348" lon="11.1377905"><ele>129.0</ele><time>2026-04-05T06:58:32.143Z</time></trkpt><trkpt lat="43.463075" lon="11.1377199"><ele>129.0</ele><time>2026-04-05T06:58:34.143Z</time></trkpt><trkpt lat="43.4630065" lon="11.1376465"><ele>129.0</ele><time>2026-04-05T06:58:36.21Z</time></trkpt><trkpt lat="43.4629416" lon="11.1375646"><ele>129.0</ele><time>2026-04-05T06:58:38.141Z</time></trkpt><trkpt lat="43.4628727" lon="11.1374724"><ele>129.0</ele><time>2026-04-05T06:58:40.217Z</time></trkpt><trkpt lat="43.4628093" lon="11.1373693"><ele>129.6</ele><time>2026-04-05T06:58:42.134Z</time></trkpt><trkpt lat="43.462712" lon="11.1372966"><ele>130.2</ele><time>2026-04-05T06:58:44.137Z</time></trkpt><trkpt lat="43.4626474" lon="11.1372107"><ele>130.79999999999998</ele><time>2026-04-05T06:58:46.208Z</time></trkpt><trkpt lat="43.4625709" lon="11.1371153"><ele>131.4</ele><time>2026-04-05T06:58:48.144Z</time></trkpt><trkpt lat="43.4624901" lon="11.1370338"><ele>132.0</ele><time>2026-04-05T06:58:50.217Z</time></trkpt><trkpt lat="43.4624271" lon="11.1369523"><ele>132.0</ele><time>2026-04-05T06:58:52.138Z</time></trkpt><trkpt lat="43.46235" lon="11.1368851"><ele>132.0</ele><time>2026-04-05T06:58:54.147Z</time></trkpt><trkpt lat="43.4622818" lon="11.1368127"><ele>132.0</ele><time>2026-04-05T06:58:56.212Z</time></trkpt><trkpt lat="43.4622084" lon="11.1367485"><ele>132.0</ele><time>2026-04-05T06:58:58.143Z</time></trkpt><trkpt lat="43.4621446" lon="11.1366871"><ele>132.0</ele><time>2026-04-05T06:59:00.126Z</time></trkpt><trkpt lat="43.4620826" lon="11.1366208"><ele>132.0</ele><time>2026-04-05T06:59:02.149Z</time></trkpt><trkpt lat="43.4620273" lon="11.1365649"><ele>133.16666666666666</ele><time>2026-04-05T06:59:04.138Z</time></trkpt><trkpt lat="43.4619677" lon="11.1365224"><ele>134.33333333333334</ele><time>2026-04-05T06:59:06.217Z</time></trkpt><trkpt lat="43.4618912" lon="11.1364612"><ele>135.5</ele><time>2026-04-05T06:59:08.145Z</time></trkpt><trkpt lat="43.4618284" lon="11.1364499"><ele>136.66666666666669</ele><time>2026-04-05T06:59:10.146Z</time></trkpt><trkpt lat="43.4617586" lon="11.1364341"><ele>137.83333333333334</ele><time>2026-04-05T06:59:12.143Z</time></trkpt><trkpt lat="43.4616977" lon="11.1364"><ele>139.0</ele><time>2026-04-05T06:59:14.144Z</time></trkpt><trkpt lat="43.4615514" lon="11.1363811"><ele>139.0</ele><time>2026-04-05T06:59:18.134Z</time></trkpt><trkpt lat="43.4614743" lon="11.1363749"><ele>139.0</ele><time>2026-04-05T06:59:20.142Z</time></trkpt><trkpt lat="43.4613663" lon="11.1363846"><ele>139.0</ele><time>2026-04-05T06:59:23.145Z</time></trkpt><trkpt lat="43.4612829" lon="11.1363928"><ele>139.0</ele><time>2026-04-05T06:59:25.125Z</time></trkpt><trkpt lat="43.4612125" lon="11.1363908"><ele>139.0</ele><time>2026-04-05T06:59:27.135Z</time></trkpt><trkpt lat="43.4611321" lon="11.1363919"><ele>139.0</ele><time>2026-04-05T06:59:29.206Z</time></trkpt><trkpt lat="43.4610538" lon="11.1363841"><ele>136.33333333333334</ele><time>2026-04-05T06:59:31.123Z</time></trkpt><trkpt lat="43.4609859" lon="11.1363844"><ele>133.66666666666669</ele><time>2026-04-05T06:59:33.149Z</time></trkpt><trkpt lat="43.4608862" lon="11.1364307"><ele>131.0</ele><time>2026-04-05T06:59:35.131Z</time></trkpt><trkpt lat="43.4607811" lon="11.1364902"><ele>128.33333333333334</ele><time>2026-04-05T06:59:37.122Z</time></trkpt><trkpt lat="43.4607177" lon="11.1365076"><ele>125.66666666666667</ele><time>2026-04-05T06:59:38.155Z</time></trkpt><trkpt lat="43.4606483" lon="11.136511"><ele>123.0</ele><time>2026-04-05T06:59:39.217Z</time></trkpt><trkpt lat="43.4605847" lon="11.1365004"><ele>123.0</ele><time>2026-04-05T06:59:40.212Z</time></trkpt><trkpt lat="43.4604662" lon="11.1364616"><ele>123.00000000000001</ele><time>2026-04-05T06:59:42.153Z</time></trkpt><trkpt lat="43.4603573" lon="11.1364155"><ele>123.00000000000001</ele><time>2026-04-05T06:59:44.22Z</time></trkpt><trkpt lat="43.4602537" lon="11.1363634"><ele>123.0</ele><time>2026-04-05T06:59:46.135Z</time></trkpt><trkpt lat="43.4601836" lon="11.1363253"><ele>123.0</ele><time>2026-04-05T06:59:47.151Z</time></trkpt><trkpt lat="43.4601053" lon="11.1363376"><ele>122.33333333333333</ele><time>2026-04-05T06:59:49.142Z</time></trkpt><trkpt lat="43.4600296" lon="11.1363396"><ele>121.66666666666666</ele><time>2026-04-05T06:59:52.14Z</time></trkpt><trkpt lat="43.4599565" lon="11.1363014"><ele>121.0</ele><time>2026-04-05T06:59:55.126Z</time></trkpt><trkpt lat="43.4599039" lon="11.1362461"><ele>120.33333333333333</ele><time>2026-04-05T06:59:58.14Z</time></trkpt><trkpt lat="43.4598554" lon="11.1361804"><ele>119.66666666666666</ele><time>2026-04-05T07:00:02.156Z</time></trkpt><trkpt lat="43.4599108" lon="11.1362613"><ele>119.0</ele><time>2026-04-05T07:00:06.135Z</time></trkpt><trkpt lat="43.4599874" lon="11.136334"><ele>119.0</ele><time>2026-04-05T07:00:08.152Z</time></trkpt><trkpt lat="43.4600867" lon="11.1363886"><ele>119.0</ele><time>2026-04-05T07:00:10.121Z</time></trkpt><trkpt lat="43.4602067" lon="11.1364366"><ele>119.0</ele><time>2026-04-05T07:00:12.13Z</time></trkpt><trkpt lat="43.4602725" lon="11.1364604"><ele>119.0</ele><time>2026-04-05T07:00:13.142Z</time></trkpt><trkpt lat="43.460345" lon="11.1364844"><ele>119.0</ele><time>2026-04-05T07:00:14.211Z</time></trkpt><trkpt lat="43.4604186" lon="11.1365083"><ele>119.66666666666666</ele><time>2026-04-05T07:00:15.203Z</time></trkpt><trkpt lat="43.4604899" lon="11.1365345"><ele>120.33333333333333</ele><time>2026-04-05T07:00:16.128Z</time></trkpt><trkpt lat="43.4605597" lon="11.1365601"><ele>121.0</ele><time>2026-04-05T07:00:17.129Z</time></trkpt><trkpt lat="43.4606239" lon="11.1365793"><ele>121.66666666666666</ele><time>2026-04-05T07:00:18.12Z</time></trkpt><trkpt lat="43.4607386" lon="11.1365889"><ele>122.33333333333333</ele><time>2026-04-05T07:00:20.22Z</time></trkpt><trkpt lat="43.460831" lon="11.1365696"><ele>123.0</ele><time>2026-04-05T07:00:22.153Z</time></trkpt><trkpt lat="43.4609041" lon="11.1365417"><ele>123.0</ele><time>2026-04-05T07:00:24.125Z</time></trkpt><trkpt lat="43.4609901" lon="11.1365254"><ele>123.0</ele><time>2026-04-05T07:00:27.141Z</time></trkpt><trkpt lat="43.4610646" lon="11.136501"><ele>123.0</ele><time>2026-04-05T07:00:30.142Z</time></trkpt><trkpt lat="43.4611355" lon="11.1364735"><ele>123.0</ele><time>2026-04-05T07:00:34.139Z</time></trkpt><trkpt lat="43.4612231" lon="11.1364582"><ele>123.0</ele><time>2026-04-05T07:00:38.139Z</time></trkpt><trkpt lat="43.4613085" lon="11.1364376"><ele>123.0</ele><time>2026-04-05T07:00:41.133Z</time></trkpt><trkpt lat="43.4614022" lon="11.1364255"><ele>125.66666666666667</ele><time>2026-04-05T07:00:44.133Z</time></trkpt><trkpt lat="43.4614652" lon="11.1364194"><ele>128.33333333333334</ele><time>2026-04-05T07:00:46.116Z</time></trkpt><trkpt lat="43.4615294" lon="11.1364194"><ele>131.0</ele><time>2026-04-05T07:00:48.14Z</time></trkpt><trkpt lat="43.4616015" lon="11.136431"><ele>133.66666666666669</ele><time>2026-04-05T07:00:50.144Z</time></trkpt><trkpt lat="43.4616872" lon="11.1364461"><ele>136.33333333333334</ele><time>2026-04-05T07:00:52.137Z</time></trkpt><trkpt lat="43.4617758" lon="11.1364719"><ele>139.0</ele><time>2026-04-05T07:00:54.137Z</time></trkpt><trkpt lat="43.4618699" lon="11.136501"><ele>139.0</ele><time>2026-04-05T07:00:56.135Z</time></trkpt><trkpt lat="43.4619648" lon="11.1365431"><ele>139.0</ele><time>2026-04-05T07:00:58.134Z</time></trkpt><trkpt lat="43.4620623" lon="11.1366097"><ele>139.0</ele><time>2026-04-05T07:01:00.118Z</time></trkpt><trkpt lat="43.4621667" lon="11.1367051"><ele>139.0</ele><time>2026-04-05T07:01:02.139Z</time></trkpt><trkpt lat="43.4622224" lon="11.1367558"><ele>139.0</ele><time>2026-04-05T07:01:03.12Z</time></trkpt><trkpt lat="43.4622796" lon="11.1368052"><ele>137.83333333333334</ele><time>2026-04-05T07:01:04.134Z</time></trkpt><trkpt lat="43.462334" lon="11.1368601"><ele>136.66666666666669</ele><time>2026-04-05T07:01:05.132Z</time></trkpt><trkpt lat="43.4623898" lon="11.1369153"><ele>135.5</ele><time>2026-04-05T07:01:06.142Z</time></trkpt><trkpt lat="43.4624453" lon="11.1369697"><ele>134.33333333333334</ele><time>2026-04-05T07:01:07.131Z</time></trkpt><trkpt lat="43.462494" lon="11.1370273"><ele>133.16666666666666</ele><time>2026-04-05T07:01:08.14Z</time></trkpt><trkpt lat="43.4625896" lon="11.1371362"><ele>132.0</ele><time>2026-04-05T07:01:10.13Z</time></trkpt><trkpt lat="43.4626895" lon="11.1372336"><ele>132.0</ele><time>2026-04-05T07:01:12.126Z</time></trkpt><trkpt lat="43.4627853" lon="11.1373349"><ele>132.0</ele><time>2026-04-05T07:01:14.138Z</time></trkpt><trkpt lat="43.4628682" lon="11.1374344"><ele>132.0</ele><time>2026-04-05T07:01:16.128Z</time></trkpt><trkpt lat="43.4629535" lon="11.1375314"><ele>132.0</ele><time>2026-04-05T07:01:18.125Z</time></trkpt><trkpt lat="43.4630291" lon="11.1376181"><ele>132.0</ele><time>2026-04-05T07:01:20.135Z</time></trkpt><trkpt lat="43.4630996" lon="11.1376891"><ele>131.57142857142856</ele><time>2026-04-05T07:01:22.145Z</time></trkpt><trkpt lat="43.4631569" lon="11.1377598"><ele>131.14285714285714</ele><time>2026-04-05T07:01:24.143Z</time></trkpt><trkpt lat="43.4632169" lon="11.1378228"><ele>130.71428571428572</ele><time>2026-04-05T07:01:26.137Z</time></trkpt><trkpt lat="43.4632668" lon="11.1379021"><ele>130.28571428571428</ele><time>2026-04-05T07:01:28.145Z</time></trkpt><trkpt lat="43.4633184" lon="11.137974"><ele>129.85714285714286</ele><time>2026-04-05T07:01:30.148Z</time></trkpt><trkpt lat="43.4633437" lon="11.1380539"><ele>129.42857142857142</ele><time>2026-04-05T07:01:32.131Z</time></trkpt><trkpt lat="43.4633614" lon="11.1381391"><ele>129.0</ele><time>2026-04-05T07:01:34.129Z</time></trkpt><trkpt lat="43.4633684" lon="11.138257"><ele>126.5</ele><time>2026-04-05T07:01:37.146Z</time></trkpt><trkpt lat="43.4633384" lon="11.1383541"><ele>124.0</ele><time>2026-04-05T07:01:40.121Z</time></trkpt><trkpt lat="43.4633189" lon="11.1384439"><ele>121.5</ele><time>2026-04-05T07:01:43.129Z</time></trkpt><trkpt lat="43.4633116" lon="11.1385344"><ele>119.0</ele><time>2026-04-05T07:01:46.147Z</time></trkpt><trkpt lat="43.4633272" lon="11.138654"><ele>116.5</ele><time>2026-04-05T07:01:50.161Z</time></trkpt><trkpt lat="43.4633535" lon="11.1387861"><ele>114.0</ele><time>2026-04-05T07:01:53.15Z</time></trkpt><trkpt lat="43.4633889" lon="11.1389013"><ele>114.0</ele><time>2026-04-05T07:01:55.136Z</time></trkpt><trkpt lat="43.4634205" lon="11.1390241"><ele>114.0</ele><time>2026-04-05T07:01:57.12Z</time></trkpt><trkpt lat="43.4634392" lon="11.1391508"><ele>114.0</ele><time>2026-04-05T07:01:59.142Z</time></trkpt><trkpt lat="43.4634651" lon="11.1392825"><ele>114.0</ele><time>2026-04-05T07:02:01.144Z</time></trkpt><trkpt lat="43.4634753" lon="11.1394196"><ele>114.0</ele><time>2026-04-05T07:02:03.131Z</time></trkpt><trkpt lat="43.4634513" lon="11.1395774"><ele>112.80000000000001</ele><time>2026-04-05T07:02:05.14Z</time></trkpt><trkpt lat="43.4634349" lon="11.139717"><ele>111.60000000000001</ele><time>2026-04-05T07:02:07.132Z</time></trkpt><trkpt lat="43.4635059" lon="11.1398596"><ele>110.4</ele><time>2026-04-05T07:02:09.135Z</time></trkpt><trkpt lat="43.4635656" lon="11.1399321"><ele>109.2</ele><time>2026-04-05T07:02:10.145Z</time></trkpt><trkpt lat="43.4636236" lon="11.1400048"><ele>108.0</ele><time>2026-04-05T07:02:11.131Z</time></trkpt><trkpt lat="43.4636835" lon="11.1400678"><ele>107.83333333333333</ele><time>2026-04-05T07:02:12.127Z</time></trkpt><trkpt lat="43.4637487" lon="11.140133"><ele>107.66666666666666</ele><time>2026-04-05T07:02:13.135Z</time></trkpt><trkpt lat="43.4638178" lon="11.1402009"><ele>107.5</ele><time>2026-04-05T07:02:14.134Z</time></trkpt><trkpt lat="43.4638921" lon="11.140267"><ele>107.33333333333333</ele><time>2026-04-05T07:02:15.138Z</time></trkpt><trkpt lat="43.4639677" lon="11.1403373"><ele>107.16666666666666</ele><time>2026-04-05T07:02:16.144Z</time></trkpt><trkpt lat="43.4640464" lon="11.1404109"><ele>107.0</ele><time>2026-04-05T07:02:17.14Z</time></trkpt><trkpt lat="43.4641264" lon="11.1404878"><ele>106.99999999999999</ele><time>2026-04-05T07:02:18.125Z</time></trkpt><trkpt lat="43.4642066" lon="11.1405589"><ele>107.0</ele><time>2026-04-05T07:02:19.136Z</time></trkpt><trkpt lat="43.4642861" lon="11.1406174"><ele>107.0</ele><time>2026-04-05T07:02:20.142Z</time></trkpt><trkpt lat="43.4643626" lon="11.1406752"><ele>107.0</ele><time>2026-04-05T07:02:21.138Z</time></trkpt><trkpt lat="43.4644337" lon="11.1407386"><ele>106.99999999999999</ele><time>2026-04-05T07:02:22.139Z</time></trkpt><trkpt lat="43.4644986" lon="11.1408075"><ele>107.0</ele><time>2026-04-05T07:02:23.138Z</time></trkpt><trkpt lat="43.4645559" lon="11.1408786"><ele>106.14285714285715</ele><time>2026-04-05T07:02:24.143Z</time></trkpt><trkpt lat="43.4646076" lon="11.1409553"><ele>105.28571428571429</ele><time>2026-04-05T07:02:25.14Z</time></trkpt><trkpt lat="43.4646637" lon="11.1410227"><ele>104.42857142857143</ele><time>2026-04-05T07:02:26.13Z</time></trkpt><trkpt lat="43.4647316" lon="11.141073"><ele>103.57142857142858</ele><time>2026-04-05T07:02:27.127Z</time></trkpt><trkpt lat="43.4648051" lon="11.1410869"><ele>102.71428571428571</ele><time>2026-04-05T07:02:28.142Z</time></trkpt><trkpt lat="43.4648755" lon="11.1410832"><ele>101.85714285714286</ele><time>2026-04-05T07:02:29.146Z</time></trkpt><trkpt lat="43.4649406" lon="11.1410693"><ele>101.0</ele><time>2026-04-05T07:02:30.135Z</time></trkpt><trkpt lat="43.4650534" lon="11.1410207"><ele>100.99999999999999</ele><time>2026-04-05T07:02:32.124Z</time></trkpt><trkpt lat="43.465146" lon="11.1409822"><ele>101.0</ele><time>2026-04-05T07:02:34.138Z</time></trkpt><trkpt lat="43.4652249" lon="11.1409509"><ele>101.0</ele><time>2026-04-05T07:02:36.141Z</time></trkpt><trkpt lat="43.4652874" lon="11.1409098"><ele>101.0</ele><time>2026-04-05T07:02:38.133Z</time></trkpt><trkpt lat="43.465355" lon="11.1408648"><ele>100.99999999999999</ele><time>2026-04-05T07:02:40.154Z</time></trkpt><trkpt lat="43.4654295" lon="11.1408124"><ele>101.0</ele><time>2026-04-05T07:02:42.14Z</time></trkpt><trkpt lat="43.4654999" lon="11.1407201"><ele>101.0</ele><time>2026-04-05T07:02:44.165Z</time></trkpt><trkpt lat="43.4655692" lon="11.1406006"><ele>101.0</ele><time>2026-04-05T07:02:46.134Z</time></trkpt><trkpt lat="43.4656249" lon="11.1404744"><ele>101.0</ele><time>2026-04-05T07:02:48.149Z</time></trkpt><trkpt lat="43.4656789" lon="11.1403377"><ele>101.0</ele><time>2026-04-05T07:02:50.153Z</time></trkpt><trkpt lat="43.4657545" lon="11.1401923"><ele>100.99999999999999</ele><time>2026-04-05T07:02:52.144Z</time></trkpt><trkpt lat="43.465796" lon="11.140116"><ele>101.0</ele><time>2026-04-05T07:02:53.149Z</time></trkpt><trkpt lat="43.465839" lon="11.1400436"><ele>101.0</ele><time>2026-04-05T07:02:54.14Z</time></trkpt><trkpt lat="43.4659088" lon="11.139902"><ele>101.0</ele><time>2026-04-05T07:02:56.152Z</time></trkpt><trkpt lat="43.4659478" lon="11.139832"><ele>100.99999999999999</ele><time>2026-04-05T07:02:57.14Z</time></trkpt><trkpt lat="43.4659939" lon="11.1397711"><ele>101.0</ele><time>2026-04-05T07:02:58.137Z</time></trkpt><trkpt lat="43.4661069" lon="11.1396812"><ele>100.49999999999999</ele><time>2026-04-05T07:03:00.131Z</time></trkpt><trkpt lat="43.4661715" lon="11.1396586"><ele>100.0</ele><time>2026-04-05T07:03:01.145Z</time></trkpt><trkpt lat="43.4662352" lon="11.1396468"><ele>99.5</ele><time>2026-04-05T07:03:02.142Z</time></trkpt><trkpt lat="43.4663414" lon="11.1396821"><ele>99.0</ele><time>2026-04-05T07:03:04.133Z</time></trkpt><trkpt lat="43.4664066" lon="11.1397701"><ele>98.49999999999999</ele><time>2026-04-05T07:03:06.131Z</time></trkpt><trkpt lat="43.4664778" lon="11.1398732"><ele>98.0</ele><time>2026-04-05T07:03:08.138Z</time></trkpt><trkpt lat="43.4665464" lon="11.1399912"><ele>98.0</ele><time>2026-04-05T07:03:10.142Z</time></trkpt><trkpt lat="43.4666068" lon="11.1401156"><ele>98.0</ele><time>2026-04-05T07:03:12.137Z</time></trkpt><trkpt lat="43.4666581" lon="11.1402398"><ele>98.0</ele><time>2026-04-05T07:03:14.137Z</time></trkpt><trkpt lat="43.4667204" lon="11.1403573"><ele>98.0</ele><time>2026-04-05T07:03:16.131Z</time></trkpt><trkpt lat="43.4667823" lon="11.1404655"><ele>98.0</ele><time>2026-04-05T07:03:18.14Z</time></trkpt><trkpt lat="43.4668365" lon="11.1405778"><ele>98.0</ele><time>2026-04-05T07:03:20.147Z</time></trkpt><trkpt lat="43.4668927" lon="11.1406894"><ele>98.0</ele><time>2026-04-05T07:03:22.147Z</time></trkpt><trkpt lat="43.4669606" lon="11.1408021"><ele>98.0</ele><time>2026-04-05T07:03:24.132Z</time></trkpt><trkpt lat="43.4670407" lon="11.140911"><ele>98.0</ele><time>2026-04-05T07:03:26.135Z</time></trkpt><trkpt lat="43.4671358" lon="11.1409479"><ele>98.0</ele><time>2026-04-05T07:03:28.146Z</time></trkpt><trkpt lat="43.467246" lon="11.1408819"><ele>97.5</ele><time>2026-04-05T07:03:30.14Z</time></trkpt><trkpt lat="43.4673563" lon="11.1408381"><ele>97.0</ele><time>2026-04-05T07:03:32.134Z</time></trkpt><trkpt lat="43.4674786" lon="11.1408228"><ele>96.5</ele><time>2026-04-05T07:03:34.144Z</time></trkpt><trkpt lat="43.4675938" lon="11.140806"><ele>96.0</ele><time>2026-04-05T07:03:36.151Z</time></trkpt><trkpt lat="43.4677149" lon="11.1407925"><ele>96.0</ele><time>2026-04-05T07:03:38.137Z</time></trkpt><trkpt lat="43.4678352" lon="11.1407832"><ele>96.0</ele><time>2026-04-05T07:03:40.153Z</time></trkpt><trkpt lat="43.4679561" lon="11.1407748"><ele>96.0</ele><time>2026-04-05T07:03:42.168Z</time></trkpt><trkpt lat="43.46807" lon="11.140775"><ele>96.0</ele><time>2026-04-05T07:03:44.145Z</time></trkpt><trkpt lat="43.4681792" lon="11.1407635"><ele>95.4</ele><time>2026-04-05T07:03:46.137Z</time></trkpt><trkpt lat="43.4682947" lon="11.1407533"><ele>94.8</ele><time>2026-04-05T07:03:48.139Z</time></trkpt><trkpt lat="43.4684014" lon="11.1407435"><ele>94.2</ele><time>2026-04-05T07:03:50.137Z</time></trkpt><trkpt lat="43.4685101" lon="11.1407313"><ele>93.60000000000001</ele><time>2026-04-05T07:03:52.137Z</time></trkpt><trkpt lat="43.4686155" lon="11.1407238"><ele>93.0</ele><time>2026-04-05T07:03:54.126Z</time></trkpt><trkpt lat="43.4687312" lon="11.140708"><ele>93.5</ele><time>2026-04-05T07:03:56.15Z</time></trkpt><trkpt lat="43.4688489" lon="11.1406931"><ele>94.0</ele><time>2026-04-05T07:03:58.147Z</time></trkpt><trkpt lat="43.4689643" lon="11.1406857"><ele>94.5</ele><time>2026-04-05T07:04:00.141Z</time></trkpt><trkpt lat="43.4690762" lon="11.1406949"><ele>95.0</ele><time>2026-04-05T07:04:02.145Z</time></trkpt><trkpt lat="43.4691823" lon="11.1407176"><ele>95.0</ele><time>2026-04-05T07:04:04.139Z</time></trkpt><trkpt lat="43.4692773" lon="11.1407622"><ele>95.0</ele><time>2026-04-05T07:04:06.15Z</time></trkpt><trkpt lat="43.4693706" lon="11.1408131"><ele>95.0</ele><time>2026-04-05T07:04:08.137Z</time></trkpt><trkpt lat="43.4694609" lon="11.1408556"><ele>95.0</ele><time>2026-04-05T07:04:10.15Z</time></trkpt><trkpt lat="43.4695568" lon="11.140904"><ele>95.0</ele><time>2026-04-05T07:04:12.144Z</time></trkpt><trkpt lat="43.4696531" lon="11.1409574"><ele>95.6</ele><time>2026-04-05T07:04:14.146Z</time></trkpt><trkpt lat="43.4697452" lon="11.141012"><ele>96.2</ele><time>2026-04-05T07:04:16.147Z</time></trkpt><trkpt lat="43.4698375" lon="11.1410644"><ele>96.80000000000001</ele><time>2026-04-05T07:04:18.152Z</time></trkpt><trkpt lat="43.4699328" lon="11.1411135"><ele>97.4</ele><time>2026-04-05T07:04:20.146Z</time></trkpt><trkpt lat="43.4700191" lon="11.1411714"><ele>98.0</ele><time>2026-04-05T07:04:22.14Z</time></trkpt><trkpt lat="43.4701054" lon="11.1412371"><ele>97.99999999999999</ele><time>2026-04-05T07:04:24.144Z</time></trkpt><trkpt lat="43.4701846" lon="11.141289"><ele>98.0</ele><time>2026-04-05T07:04:26.148Z</time></trkpt><trkpt lat="43.4702645" lon="11.141346"><ele>98.0</ele><time>2026-04-05T07:04:28.135Z</time></trkpt><trkpt lat="43.4703348" lon="11.1414179"><ele>98.0</ele><time>2026-04-05T07:04:30.158Z</time></trkpt><trkpt lat="43.470397" lon="11.1415042"><ele>97.99999999999999</ele><time>2026-04-05T07:04:32.152Z</time></trkpt><trkpt lat="43.4704555" lon="11.1415973"><ele>98.0</ele><time>2026-04-05T07:04:34.133Z</time></trkpt><trkpt lat="43.4704973" lon="11.1417009"><ele>99.2</ele><time>2026-04-05T07:04:36.132Z</time></trkpt><trkpt lat="43.4705464" lon="11.1418118"><ele>100.4</ele><time>2026-04-05T07:04:38.138Z</time></trkpt><trkpt lat="43.470594" lon="11.1419268"><ele>101.60000000000001</ele><time>2026-04-05T07:04:40.151Z</time></trkpt><trkpt lat="43.4706317" lon="11.14204"><ele>102.80000000000001</ele><time>2026-04-05T07:04:42.146Z</time></trkpt><trkpt lat="43.4706588" lon="11.1421639"><ele>104.0</ele><time>2026-04-05T07:04:44.157Z</time></trkpt><trkpt lat="43.4706788" lon="11.1422863"><ele>104.83333333333333</ele><time>2026-04-05T07:04:46.156Z</time></trkpt><trkpt lat="43.4707065" lon="11.1424008"><ele>105.66666666666666</ele><time>2026-04-05T07:04:48.147Z</time></trkpt><trkpt lat="43.4707209" lon="11.1425137"><ele>106.5</ele><time>2026-04-05T07:04:50.156Z</time></trkpt><trkpt lat="43.4707299" lon="11.142622"><ele>107.33333333333334</ele><time>2026-04-05T07:04:52.14Z</time></trkpt><trkpt lat="43.4707484" lon="11.1427179"><ele>108.16666666666667</ele><time>2026-04-05T07:04:54.152Z</time></trkpt><trkpt lat="43.4707609" lon="11.1428123"><ele>109.0</ele><time>2026-04-05T07:04:56.141Z</time></trkpt><trkpt lat="43.4707783" lon="11.1429282"><ele>109.0</ele><time>2026-04-05T07:04:58.141Z</time></trkpt><trkpt lat="43.4708035" lon="11.1430625"><ele>109.0</ele><time>2026-04-05T07:05:00.135Z</time></trkpt><trkpt lat="43.4708265" lon="11.1432139"><ele>109.0</ele><time>2026-04-05T07:05:02.142Z</time></trkpt><trkpt lat="43.4708294" lon="11.1433582"><ele>109.0</ele><time>2026-04-05T07:05:04.133Z</time></trkpt><trkpt lat="43.4708277" lon="11.1435011"><ele>109.0</ele><time>2026-04-05T07:05:06.138Z</time></trkpt><trkpt lat="43.4708734" lon="11.1436105"><ele>108.4</ele><time>2026-04-05T07:05:08.138Z</time></trkpt><trkpt lat="43.4709724" lon="11.1436008"><ele>107.80000000000001</ele><time>2026-04-05T07:05:10.142Z</time></trkpt><trkpt lat="43.4710726" lon="11.1435152"><ele>107.19999999999999</ele><time>2026-04-05T07:05:12.132Z</time></trkpt><trkpt lat="43.4711674" lon="11.1434309"><ele>106.6</ele><time>2026-04-05T07:05:14.149Z</time></trkpt><trkpt lat="43.4712588" lon="11.1433562"><ele>106.0</ele><time>2026-04-05T07:05:16.131Z</time></trkpt><trkpt lat="43.4713487" lon="11.1432927"><ele>106.19999999999999</ele><time>2026-04-05T07:05:18.162Z</time></trkpt><trkpt lat="43.4714367" lon="11.1432406"><ele>106.39999999999999</ele><time>2026-04-05T07:05:20.146Z</time></trkpt><trkpt lat="43.4715317" lon="11.1431972"><ele>106.6</ele><time>2026-04-05T07:05:22.132Z</time></trkpt><trkpt lat="43.4716242" lon="11.1431567"><ele>106.8</ele><time>2026-04-05T07:05:24.144Z</time></trkpt><trkpt lat="43.471715" lon="11.1430918"><ele>107.0</ele><time>2026-04-05T07:05:26.128Z</time></trkpt><trkpt lat="43.4718107" lon="11.1430265"><ele>106.99999999999999</ele><time>2026-04-05T07:05:28.142Z</time></trkpt><trkpt lat="43.4719028" lon="11.1429682"><ele>107.0</ele><time>2026-04-05T07:05:30.151Z</time></trkpt><trkpt lat="43.4720091" lon="11.1429671"><ele>107.0</ele><time>2026-04-05T07:05:32.165Z</time></trkpt><trkpt lat="43.4720701" lon="11.1430017"><ele>107.0</ele><time>2026-04-05T07:05:33.16Z</time></trkpt><trkpt lat="43.4721266" lon="11.1430604"><ele>106.99999999999999</ele><time>2026-04-05T07:05:34.148Z</time></trkpt><trkpt lat="43.4721833" lon="11.1431339"><ele>107.0</ele><time>2026-04-05T07:05:35.143Z</time></trkpt><trkpt lat="43.4722459" lon="11.1432249"><ele>105.39999999999999</ele><time>2026-04-05T07:05:36.133Z</time></trkpt><trkpt lat="43.4723089" lon="11.1433188"><ele>103.79999999999998</ele><time>2026-04-05T07:05:37.134Z</time></trkpt><trkpt lat="43.4723765" lon="11.1434161"><ele>102.2</ele><time>2026-04-05T07:05:38.147Z</time></trkpt><trkpt lat="43.4724454" lon="11.143512"><ele>100.6</ele><time>2026-04-05T07:05:39.133Z</time></trkpt><trkpt lat="43.4725207" lon="11.1435892"><ele>99.0</ele><time>2026-04-05T07:05:40.127Z</time></trkpt><trkpt lat="43.4725957" lon="11.1436062"><ele>99.0</ele><time>2026-04-05T07:05:41.153Z</time></trkpt><trkpt lat="43.4726675" lon="11.1435941"><ele>99.0</ele><time>2026-04-05T07:05:42.135Z</time></trkpt><trkpt lat="43.4727727" lon="11.1435305"><ele>99.0</ele><time>2026-04-05T07:05:44.14Z</time></trkpt><trkpt lat="43.4728649" lon="11.1435092"><ele>99.0</ele><time>2026-04-05T07:05:46.148Z</time></trkpt><trkpt lat="43.4729385" lon="11.1435331"><ele>99.0</ele><time>2026-04-05T07:05:48.137Z</time></trkpt><trkpt lat="43.47301" lon="11.1434926"><ele>99.0</ele><time>2026-04-05T07:05:50.159Z</time></trkpt><trkpt lat="43.473048" lon="11.1434218"><ele>98.25</ele><time>2026-04-05T07:05:51.138Z</time></trkpt><trkpt lat="43.4731244" lon="11.1433089"><ele>97.5</ele><time>2026-04-05T07:05:53.142Z</time></trkpt><trkpt lat="43.4731958" lon="11.1431856"><ele>96.75</ele><time>2026-04-05T07:05:55.134Z</time></trkpt><trkpt lat="43.4732621" lon="11.1430633"><ele>96.0</ele><time>2026-04-05T07:05:57.14Z</time></trkpt><trkpt lat="43.4733388" lon="11.1429492"><ele>96.0</ele><time>2026-04-05T07:05:59.142Z</time></trkpt><trkpt lat="43.4734146" lon="11.1428405"><ele>96.0</ele><time>2026-04-05T07:06:01.136Z</time></trkpt><trkpt lat="43.4734923" lon="11.1427235"><ele>96.0</ele><time>2026-04-05T07:06:03.148Z</time></trkpt><trkpt lat="43.4735743" lon="11.1426225"><ele>96.0</ele><time>2026-04-05T07:06:05.15Z</time></trkpt><trkpt lat="43.473655" lon="11.142516"><ele>96.0</ele><time>2026-04-05T07:06:07.147Z</time></trkpt><trkpt lat="43.4737397" lon="11.1424116"><ele>96.75</ele><time>2026-04-05T07:06:09.143Z</time></trkpt><trkpt lat="43.4738163" lon="11.1422889"><ele>97.5</ele><time>2026-04-05T07:06:11.148Z</time></trkpt><trkpt lat="43.4738911" lon="11.1421676"><ele>98.25</ele><time>2026-04-05T07:06:13.157Z</time></trkpt><trkpt lat="43.4739685" lon="11.1420568"><ele>99.0</ele><time>2026-04-05T07:06:15.151Z</time></trkpt><trkpt lat="43.4740563" lon="11.141948"><ele>99.0</ele><time>2026-04-05T07:06:17.147Z</time></trkpt><trkpt lat="43.4741462" lon="11.1418386"><ele>99.0</ele><time>2026-04-05T07:06:19.13Z</time></trkpt><trkpt lat="43.4742258" lon="11.1417282"><ele>99.0</ele><time>2026-04-05T07:06:21.141Z</time></trkpt><trkpt lat="43.4743068" lon="11.1416245"><ele>99.0</ele><time>2026-04-05T07:06:23.133Z</time></trkpt><trkpt lat="43.4743828" lon="11.1415169"><ele>98.80000000000001</ele><time>2026-04-05T07:06:25.134Z</time></trkpt><trkpt lat="43.4744572" lon="11.1414003"><ele>98.60000000000001</ele><time>2026-04-05T07:06:27.139Z</time></trkpt><trkpt lat="43.4745384" lon="11.1412967"><ele>98.4</ele><time>2026-04-05T07:06:29.148Z</time></trkpt><trkpt lat="43.474614" lon="11.1411824"><ele>98.2</ele><time>2026-04-05T07:06:31.145Z</time></trkpt><trkpt lat="43.4746943" lon="11.1410802"><ele>98.0</ele><time>2026-04-05T07:06:33.137Z</time></trkpt><trkpt lat="43.4747679" lon="11.1410075"><ele>98.0</ele><time>2026-04-05T07:06:35.127Z</time></trkpt><trkpt lat="43.4748554" lon="11.1410766"><ele>98.0</ele><time>2026-04-05T07:06:37.124Z</time></trkpt><trkpt lat="43.4749548" lon="11.1411528"><ele>98.0</ele><time>2026-04-05T07:06:39.135Z</time></trkpt><trkpt lat="43.4750419" lon="11.1411021"><ele>98.0</ele><time>2026-04-05T07:06:41.135Z</time></trkpt><trkpt lat="43.4751339" lon="11.1409996"><ele>98.0</ele><time>2026-04-05T07:06:43.148Z</time></trkpt><trkpt lat="43.4752184" lon="11.1408922"><ele>98.0</ele><time>2026-04-05T07:06:45.136Z</time></trkpt><trkpt lat="43.4752978" lon="11.1407842"><ele>98.0</ele><time>2026-04-05T07:06:47.128Z</time></trkpt><trkpt lat="43.4753731" lon="11.1406814"><ele>98.0</ele><time>2026-04-05T07:06:49.126Z</time></trkpt><trkpt lat="43.4754433" lon="11.1405742"><ele>98.0</ele><time>2026-04-05T07:06:51.139Z</time></trkpt><trkpt lat="43.4754951" lon="11.1404867"><ele>98.0</ele><time>2026-04-05T07:06:53.14Z</time></trkpt><trkpt lat="43.4755604" lon="11.1404516"><ele>98.28571428571429</ele><time>2026-04-05T07:06:56.138Z</time></trkpt><trkpt lat="43.4756209" lon="11.14049"><ele>98.57142857142857</ele><time>2026-04-05T07:07:22.137Z</time></trkpt><trkpt lat="43.4756159" lon="11.1405881"><ele>98.85714285714286</ele><time>2026-04-05T07:07:46.211Z</time></trkpt><trkpt lat="43.4755462" lon="11.1405635"><ele>99.14285714285714</ele><time>2026-04-05T07:08:04.218Z</time></trkpt><trkpt lat="43.4755829" lon="11.1404847"><ele>99.42857142857143</ele><time>2026-04-05T07:09:25.225Z</time></trkpt><trkpt lat="43.4756079" lon="11.140394"><ele>99.71428571428572</ele><time>2026-04-05T07:10:12.133Z</time></trkpt><trkpt lat="43.4756629" lon="11.1404409"><ele>100.0</ele><time>2026-04-05T07:10:37.134Z</time></trkpt><trkpt lat="43.4755932" lon="11.1403863"><ele>100.00000000000001</ele><time>2026-04-05T07:10:44.206Z</time></trkpt><trkpt lat="43.4756336" lon="11.1403004"><ele>100.0</ele><time>2026-04-05T07:11:10.148Z</time></trkpt><trkpt lat="43.475674" lon="11.1402266"><ele>100.0</ele><time>2026-04-05T07:11:13.16Z</time></trkpt><trkpt lat="43.4756713" lon="11.1401378"><ele>100.0</ele><time>2026-04-05T07:11:15.14Z</time></trkpt><trkpt lat="43.4756314" lon="11.1400615"><ele>100.0</ele><time>2026-04-05T07:11:17.137Z</time></trkpt><trkpt lat="43.4755695" lon="11.1400133"><ele>100.00000000000001</ele><time>2026-04-05T07:11:19.136Z</time></trkpt><trkpt lat="43.4754948" lon="11.140017"><ele>100.0</ele><time>2026-04-05T07:11:21.136Z</time></trkpt><trkpt lat="43.4754299" lon="11.140048"><ele>99.85714285714286</ele><time>2026-04-05T07:11:23.139Z</time></trkpt><trkpt lat="43.4753658" lon="11.1400947"><ele>99.71428571428572</ele><time>2026-04-05T07:11:25.14Z</time></trkpt><trkpt lat="43.4753085" lon="11.1401611"><ele>99.57142857142858</ele><time>2026-04-05T07:11:27.134Z</time></trkpt><trkpt lat="43.4752588" lon="11.1402281"><ele>99.42857142857143</ele><time>2026-04-05T07:11:29.138Z</time></trkpt><trkpt lat="43.4752011" lon="11.140288"><ele>99.28571428571428</ele><time>2026-04-05T07:11:31.134Z</time></trkpt><trkpt lat="43.475137" lon="11.1403314"><ele>99.14285714285715</ele><time>2026-04-05T07:11:33.136Z</time></trkpt><trkpt lat="43.4750628" lon="11.1403543"><ele>99.0</ele><time>2026-04-05T07:11:35.148Z</time></trkpt><trkpt lat="43.4749804" lon="11.1403881"><ele>99.0</ele><time>2026-04-05T07:11:37.15Z</time></trkpt><trkpt lat="43.4748994" lon="11.1404346"><ele>99.0</ele><time>2026-04-05T07:11:39.13Z</time></trkpt><trkpt lat="43.4748038" lon="11.1404474"><ele>99.0</ele><time>2026-04-05T07:11:41.132Z</time></trkpt><trkpt lat="43.47469" lon="11.1403883"><ele>99.0</ele><time>2026-04-05T07:11:43.141Z</time></trkpt><trkpt lat="43.4746292" lon="11.1403612"><ele>99.0</ele><time>2026-04-05T07:11:44.122Z</time></trkpt><trkpt lat="43.474554" lon="11.1403014"><ele>98.66666666666667</ele><time>2026-04-05T07:11:45.132Z</time></trkpt><trkpt lat="43.4745072" lon="11.1402424"><ele>98.33333333333334</ele><time>2026-04-05T07:11:46.143Z</time></trkpt><trkpt lat="43.474447" lon="11.140181"><ele>98.0</ele><time>2026-04-05T07:11:48.146Z</time></trkpt><trkpt lat="43.4743901" lon="11.1400833"><ele>97.66666666666667</ele><time>2026-04-05T07:11:50.135Z</time></trkpt><trkpt lat="43.4743081" lon="11.140031"><ele>97.33333333333334</ele><time>2026-04-05T07:11:52.159Z</time></trkpt><trkpt lat="43.4742258" lon="11.1400707"><ele>97.0</ele><time>2026-04-05T07:11:54.152Z</time></trkpt><trkpt lat="43.474152" lon="11.140151"><ele>97.0</ele><time>2026-04-05T07:11:56.149Z</time></trkpt><trkpt lat="43.474081" lon="11.1402526"><ele>97.0</ele><time>2026-04-05T07:11:58.156Z</time></trkpt><trkpt lat="43.4740196" lon="11.1403655"><ele>97.0</ele><time>2026-04-05T07:12:00.129Z</time></trkpt><trkpt lat="43.4739498" lon="11.1404492"><ele>97.0</ele><time>2026-04-05T07:12:02.146Z</time></trkpt><trkpt lat="43.4738716" lon="11.1403819"><ele>97.0</ele><time>2026-04-05T07:12:05.139Z</time></trkpt><trkpt lat="43.4737789" lon="11.1402828"><ele>97.0</ele><time>2026-04-05T07:12:07.143Z</time></trkpt><trkpt lat="43.4736824" lon="11.1401775"><ele>97.0</ele><time>2026-04-05T07:12:09.155Z</time></trkpt><trkpt lat="43.4736125" lon="11.1400681"><ele>97.0</ele><time>2026-04-05T07:12:11.139Z</time></trkpt><trkpt lat="43.4736497" lon="11.1399445"><ele>97.0</ele><time>2026-04-05T07:12:13.138Z</time></trkpt><trkpt lat="43.4737159" lon="11.1398346"><ele>97.0</ele><time>2026-04-05T07:12:15.134Z</time></trkpt><trkpt lat="43.4737877" lon="11.1397221"><ele>97.0</ele><time>2026-04-05T07:12:17.142Z</time></trkpt><trkpt lat="43.4738677" lon="11.1396036"><ele>97.0</ele><time>2026-04-05T07:12:19.125Z</time></trkpt><trkpt lat="43.4739497" lon="11.1394996"><ele>97.0</ele><time>2026-04-05T07:12:21.139Z</time></trkpt><trkpt lat="43.4740297" lon="11.1393924"><ele>97.0</ele><time>2026-04-05T07:12:23.143Z</time></trkpt><trkpt lat="43.4740872" lon="11.1392721"><ele>97.0</ele><time>2026-04-05T07:12:25.14Z</time></trkpt><trkpt lat="43.4741204" lon="11.1391352"><ele>96.6</ele><time>2026-04-05T07:12:27.141Z</time></trkpt><trkpt lat="43.474076" lon="11.1390045"><ele>96.19999999999999</ele><time>2026-04-05T07:12:29.138Z</time></trkpt><trkpt lat="43.4739744" lon="11.138934"><ele>95.8</ele><time>2026-04-05T07:12:31.153Z</time></trkpt><trkpt lat="43.4738821" lon="11.1389079"><ele>95.4</ele><time>2026-04-05T07:12:33.132Z</time></trkpt><trkpt lat="43.4737776" lon="11.1389271"><ele>95.0</ele><time>2026-04-05T07:12:35.138Z</time></trkpt><trkpt lat="43.4736641" lon="11.1389892"><ele>95.4</ele><time>2026-04-05T07:12:37.137Z</time></trkpt><trkpt lat="43.4735604" lon="11.1390652"><ele>95.8</ele><time>2026-04-05T07:12:39.139Z</time></trkpt><trkpt lat="43.4734679" lon="11.1391359"><ele>96.19999999999999</ele><time>2026-04-05T07:12:41.139Z</time></trkpt><trkpt lat="43.4733706" lon="11.1392049"><ele>96.6</ele><time>2026-04-05T07:12:43.143Z</time></trkpt><trkpt lat="43.4732719" lon="11.1392465"><ele>97.0</ele><time>2026-04-05T07:12:45.149Z</time></trkpt><trkpt lat="43.4731956" lon="11.1391903"><ele>97.0</ele><time>2026-04-05T07:12:47.14Z</time></trkpt><trkpt lat="43.4731319" lon="11.1390706"><ele>97.0</ele><time>2026-04-05T07:12:49.138Z</time></trkpt><trkpt lat="43.4730698" lon="11.1389435"><ele>97.0</ele><time>2026-04-05T07:12:51.144Z</time></trkpt><trkpt lat="43.4730031" lon="11.1388371"><ele>97.0</ele><time>2026-04-05T07:12:53.134Z</time></trkpt><trkpt lat="43.4729271" lon="11.1387345"><ele>97.0</ele><time>2026-04-05T07:12:55.135Z</time></trkpt><trkpt lat="43.4728525" lon="11.1386255"><ele>96.8</ele><time>2026-04-05T07:12:57.148Z</time></trkpt><trkpt lat="43.4727763" lon="11.1385188"><ele>96.6</ele><time>2026-04-05T07:12:59.146Z</time></trkpt><trkpt lat="43.47271" lon="11.1383971"><ele>96.39999999999999</ele><time>2026-04-05T07:13:01.137Z</time></trkpt><trkpt lat="43.4726372" lon="11.1382813"><ele>96.19999999999999</ele><time>2026-04-05T07:13:03.135Z</time></trkpt><trkpt lat="43.4725584" lon="11.1381702"><ele>96.0</ele><time>2026-04-05T07:13:05.128Z</time></trkpt><trkpt lat="43.4724858" lon="11.1380523"><ele>95.8</ele><time>2026-04-05T07:13:07.137Z</time></trkpt><trkpt lat="43.4724067" lon="11.1379392"><ele>95.6</ele><time>2026-04-05T07:13:09.132Z</time></trkpt><trkpt lat="43.4723242" lon="11.1378346"><ele>95.4</ele><time>2026-04-05T07:13:11.137Z</time></trkpt><trkpt lat="43.4722302" lon="11.1377557"><ele>95.2</ele><time>2026-04-05T07:13:13.135Z</time></trkpt><trkpt lat="43.4721223" lon="11.1377111"><ele>95.0</ele><time>2026-04-05T07:13:15.14Z</time></trkpt><trkpt lat="43.4720116" lon="11.1377132"><ele>95.5</ele><time>2026-04-05T07:13:17.139Z</time></trkpt><trkpt lat="43.4718981" lon="11.1377536"><ele>96.0</ele><time>2026-04-05T07:13:19.14Z</time></trkpt><trkpt lat="43.4717957" lon="11.1378278"><ele>96.5</ele><time>2026-04-05T07:13:21.144Z</time></trkpt><trkpt lat="43.4717156" lon="11.1379436"><ele>97.0</ele><time>2026-04-05T07:13:23.14Z</time></trkpt><trkpt lat="43.4716468" lon="11.1380609"><ele>97.0</ele><time>2026-04-05T07:13:25.14Z</time></trkpt><trkpt lat="43.4715724" lon="11.13816"><ele>97.0</ele><time>2026-04-05T07:13:27.132Z</time></trkpt><trkpt lat="43.4714977" lon="11.1382608"><ele>97.0</ele><time>2026-04-05T07:13:29.153Z</time></trkpt><trkpt lat="43.4714157" lon="11.1383622"><ele>97.0</ele><time>2026-04-05T07:13:31.136Z</time></trkpt><trkpt lat="43.4713422" lon="11.1384675"><ele>97.0</ele><time>2026-04-05T07:13:33.134Z</time></trkpt><trkpt lat="43.4712715" lon="11.1385635"><ele>97.0</ele><time>2026-04-05T07:13:35.13Z</time></trkpt><trkpt lat="43.4712021" lon="11.1386628"><ele>97.0</ele><time>2026-04-05T07:13:37.134Z</time></trkpt><trkpt lat="43.4711355" lon="11.1387726"><ele>97.0</ele><time>2026-04-05T07:13:39.132Z</time></trkpt><trkpt lat="43.4710653" lon="11.1388774"><ele>97.0</ele><time>2026-04-05T07:13:41.149Z</time></trkpt><trkpt lat="43.4709891" lon="11.1389854"><ele>97.0</ele><time>2026-04-05T07:13:43.134Z</time></trkpt><trkpt lat="43.4709127" lon="11.1390777"><ele>97.0</ele><time>2026-04-05T07:13:45.123Z</time></trkpt><trkpt lat="43.4708331" lon="11.1391697"><ele>97.0</ele><time>2026-04-05T07:13:47.134Z</time></trkpt><trkpt lat="43.4707591" lon="11.1392722"><ele>97.0</ele><time>2026-04-05T07:13:49.149Z</time></trkpt><trkpt lat="43.470682" lon="11.1393802"><ele>97.0</ele><time>2026-04-05T07:13:51.141Z</time></trkpt><trkpt lat="43.4706032" lon="11.1394777"><ele>97.0</ele><time>2026-04-05T07:13:53.139Z</time></trkpt><trkpt lat="43.4705521" lon="11.1396002"><ele>97.0</ele><time>2026-04-05T07:13:55.138Z</time></trkpt><trkpt lat="43.4705126" lon="11.1397351"><ele>97.0</ele><time>2026-04-05T07:13:57.132Z</time></trkpt><trkpt lat="43.4704779" lon="11.1398645"><ele>97.0</ele><time>2026-04-05T07:13:59.138Z</time></trkpt><trkpt lat="43.4704436" lon="11.1399916"><ele>97.0</ele><time>2026-04-05T07:14:01.135Z</time></trkpt><trkpt lat="43.4704042" lon="11.1401224"><ele>97.0</ele><time>2026-04-05T07:14:03.136Z</time></trkpt><trkpt lat="43.4703722" lon="11.1402483"><ele>97.00000000000001</ele><time>2026-04-05T07:14:05.143Z</time></trkpt><trkpt lat="43.4703409" lon="11.1403612"><ele>97.0</ele><time>2026-04-05T07:14:07.135Z</time></trkpt><trkpt lat="43.4703065" lon="11.1404629"><ele>97.0</ele><time>2026-04-05T07:14:09.129Z</time></trkpt><trkpt lat="43.4702664" lon="11.140572"><ele>97.0</ele><time>2026-04-05T07:14:11.138Z</time></trkpt><trkpt lat="43.4702193" lon="11.1406804"><ele>97.00000000000001</ele><time>2026-04-05T07:14:13.129Z</time></trkpt><trkpt lat="43.4701825" lon="11.140797"><ele>97.0</ele><time>2026-04-05T07:14:15.16Z</time></trkpt><trkpt lat="43.4701533" lon="11.140908"><ele>97.19999999999999</ele><time>2026-04-05T07:14:17.143Z</time></trkpt><trkpt lat="43.4701186" lon="11.1410069"><ele>97.4</ele><time>2026-04-05T07:14:19.134Z</time></trkpt><trkpt lat="43.4700519" lon="11.1410805"><ele>97.6</ele><time>2026-04-05T07:14:21.139Z</time></trkpt><trkpt lat="43.4699531" lon="11.1410597"><ele>97.80000000000001</ele><time>2026-04-05T07:14:23.136Z</time></trkpt><trkpt lat="43.4698737" lon="11.1409998"><ele>98.0</ele><time>2026-04-05T07:14:25.136Z</time></trkpt><trkpt lat="43.4697835" lon="11.1409421"><ele>98.0</ele><time>2026-04-05T07:14:27.13Z</time></trkpt><trkpt lat="43.4696883" lon="11.1408904"><ele>98.0</ele><time>2026-04-05T07:14:29.142Z</time></trkpt><trkpt lat="43.46959" lon="11.1408407"><ele>98.0</ele><time>2026-04-05T07:14:31.145Z</time></trkpt><trkpt lat="43.4694902" lon="11.1407934"><ele>98.0</ele><time>2026-04-05T07:14:33.134Z</time></trkpt><trkpt lat="43.4693926" lon="11.1407491"><ele>98.0</ele><time>2026-04-05T07:14:35.146Z</time></trkpt><trkpt lat="43.4692967" lon="11.1407024"><ele>97.25</ele><time>2026-04-05T07:14:37.14Z</time></trkpt><trkpt lat="43.4691935" lon="11.1406686"><ele>96.5</ele><time>2026-04-05T07:14:39.141Z</time></trkpt><trkpt lat="43.469085" lon="11.140642"><ele>95.75</ele><time>2026-04-05T07:14:41.129Z</time></trkpt><trkpt lat="43.4689674" lon="11.1406284"><ele>95.0</ele><time>2026-04-05T07:14:43.151Z</time></trkpt><trkpt lat="43.4688477" lon="11.1406309"><ele>94.25</ele><time>2026-04-05T07:14:45.139Z</time></trkpt><trkpt lat="43.4687311" lon="11.1406356"><ele>93.5</ele><time>2026-04-05T07:14:47.146Z</time></trkpt><trkpt lat="43.4686119" lon="11.1406473"><ele>92.75</ele><time>2026-04-05T07:14:49.158Z</time></trkpt><trkpt lat="43.4684973" lon="11.140656"><ele>92.0</ele><time>2026-04-05T07:14:51.148Z</time></trkpt><trkpt lat="43.4683823" lon="11.1406623"><ele>92.0</ele><time>2026-04-05T07:14:53.143Z</time></trkpt><trkpt lat="43.4682718" lon="11.1406703"><ele>92.0</ele><time>2026-04-05T07:14:55.138Z</time></trkpt><trkpt lat="43.468159" lon="11.1406852"><ele>92.0</ele><time>2026-04-05T07:14:57.157Z</time></trkpt><trkpt lat="43.468046" lon="11.140701"><ele>92.0</ele><time>2026-04-05T07:14:59.138Z</time></trkpt><trkpt lat="43.4679329" lon="11.1407133"><ele>92.8</ele><time>2026-04-05T07:15:01.13Z</time></trkpt><trkpt lat="43.467823" lon="11.140721"><ele>93.6</ele><time>2026-04-05T07:15:03.131Z</time></trkpt><trkpt lat="43.4677077" lon="11.14074"><ele>94.39999999999999</ele><time>2026-04-05T07:15:05.137Z</time></trkpt><trkpt lat="43.467598" lon="11.1407506"><ele>95.19999999999999</ele><time>2026-04-05T07:15:07.138Z</time></trkpt><trkpt lat="43.46749" lon="11.1407633"><ele>96.0</ele><time>2026-04-05T07:15:09.143Z</time></trkpt><trkpt lat="43.4673833" lon="11.1407802"><ele>96.0</ele><time>2026-04-05T07:15:11.153Z</time></trkpt><trkpt lat="43.4672711" lon="11.1407654"><ele>96.0</ele><time>2026-04-05T07:15:13.155Z</time></trkpt><trkpt lat="43.4671728" lon="11.1407202"><ele>96.0</ele><time>2026-04-05T07:15:15.144Z</time></trkpt><trkpt lat="43.4670651" lon="11.1406962"><ele>96.0</ele><time>2026-04-05T07:15:17.148Z</time></trkpt><trkpt lat="43.4669745" lon="11.1406572"><ele>96.0</ele><time>2026-04-05T07:15:19.136Z</time></trkpt><trkpt lat="43.4669165" lon="11.1405692"><ele>96.4</ele><time>2026-04-05T07:15:21.134Z</time></trkpt><trkpt lat="43.4668637" lon="11.1404635"><ele>96.8</ele><time>2026-04-05T07:15:23.132Z</time></trkpt><trkpt lat="43.4667976" lon="11.1403625"><ele>97.2</ele><time>2026-04-05T07:15:25.142Z</time></trkpt><trkpt lat="43.4667417" lon="11.1402439"><ele>97.60000000000001</ele><time>2026-04-05T07:15:27.15Z</time></trkpt><trkpt lat="43.466684" lon="11.1401265"><ele>98.0</ele><time>2026-04-05T07:15:29.134Z</time></trkpt><trkpt lat="43.4666245" lon="11.1400073"><ele>98.0</ele><time>2026-04-05T07:15:31.149Z</time></trkpt><trkpt lat="43.4665683" lon="11.1398844"><ele>98.0</ele><time>2026-04-05T07:15:33.141Z</time></trkpt><trkpt lat="43.4665094" lon="11.1397686"><ele>98.0</ele><time>2026-04-05T07:15:35.148Z</time></trkpt><trkpt lat="43.4664391" lon="11.1396628"><ele>98.0</ele><time>2026-04-05T07:15:37.151Z</time></trkpt><trkpt lat="43.4663574" lon="11.1395879"><ele>98.0</ele><time>2026-04-05T07:15:39.147Z</time></trkpt><trkpt lat="43.4662625" lon="11.1395671"><ele>98.60000000000001</ele><time>2026-04-05T07:15:41.148Z</time></trkpt><trkpt lat="43.4661675" lon="11.1395618"><ele>99.2</ele><time>2026-04-05T07:15:43.139Z</time></trkpt><trkpt lat="43.4660675" lon="11.1396111"><ele>99.8</ele><time>2026-04-05T07:15:45.131Z</time></trkpt><trkpt lat="43.4659821" lon="11.1397161"><ele>100.4</ele><time>2026-04-05T07:15:47.137Z</time></trkpt><trkpt lat="43.4659141" lon="11.1398356"><ele>101.0</ele><time>2026-04-05T07:15:49.138Z</time></trkpt><trkpt lat="43.4658592" lon="11.1399464"><ele>101.0</ele><time>2026-04-05T07:15:51.123Z</time></trkpt><trkpt lat="43.4658024" lon="11.1400655"><ele>101.0</ele><time>2026-04-05T07:15:53.12Z</time></trkpt><trkpt lat="43.4657486" lon="11.1401831"><ele>101.0</ele><time>2026-04-05T07:15:55.129Z</time></trkpt><trkpt lat="43.465695" lon="11.1402888"><ele>101.0</ele><time>2026-04-05T07:15:57.135Z</time></trkpt><trkpt lat="43.4656448" lon="11.1403992"><ele>101.0</ele><time>2026-04-05T07:15:59.134Z</time></trkpt><trkpt lat="43.465586" lon="11.140505"><ele>101.0</ele><time>2026-04-05T07:16:01.132Z</time></trkpt><trkpt lat="43.4655272" lon="11.1405961"><ele>101.0</ele><time>2026-04-05T07:16:03.134Z</time></trkpt><trkpt lat="43.4654588" lon="11.1406895"><ele>101.0</ele><time>2026-04-05T07:16:05.135Z</time></trkpt><trkpt lat="43.465373" lon="11.1407611"><ele>101.0</ele><time>2026-04-05T07:16:07.135Z</time></trkpt><trkpt lat="43.4652861" lon="11.1408175"><ele>101.0</ele><time>2026-04-05T07:16:09.126Z</time></trkpt><trkpt lat="43.4652149" lon="11.1408677"><ele>101.0</ele><time>2026-04-05T07:16:11.138Z</time></trkpt><trkpt lat="43.4651528" lon="11.1409047"><ele>101.0</ele><time>2026-04-05T07:16:13.148Z</time></trkpt><trkpt lat="43.4650936" lon="11.1409352"><ele>101.0</ele><time>2026-04-05T07:16:15.146Z</time></trkpt><trkpt lat="43.4650078" lon="11.140962"><ele>101.0</ele><time>2026-04-05T07:16:17.143Z</time></trkpt><trkpt lat="43.4648833" lon="11.1409875"><ele>101.0</ele><time>2026-04-05T07:16:19.133Z</time></trkpt><trkpt lat="43.4647567" lon="11.1409811"><ele>101.0</ele><time>2026-04-05T07:16:21.127Z</time></trkpt><trkpt lat="43.4646957" lon="11.1409484"><ele>101.0</ele><time>2026-04-05T07:16:22.13Z</time></trkpt><trkpt lat="43.4646427" lon="11.1409011"><ele>101.0</ele><time>2026-04-05T07:16:23.146Z</time></trkpt><trkpt lat="43.464555" lon="11.1407787"><ele>101.0</ele><time>2026-04-05T07:16:25.138Z</time></trkpt><trkpt lat="43.4644564" lon="11.140682"><ele>101.0</ele><time>2026-04-05T07:16:27.137Z</time></trkpt><trkpt lat="43.4643593" lon="11.1406022"><ele>102.19999999999999</ele><time>2026-04-05T07:16:29.133Z</time></trkpt><trkpt lat="43.4642706" lon="11.140524"><ele>103.39999999999999</ele><time>2026-04-05T07:16:31.135Z</time></trkpt><trkpt lat="43.4641826" lon="11.140454"><ele>104.6</ele><time>2026-04-05T07:16:33.14Z</time></trkpt><trkpt lat="43.464093" lon="11.1403915"><ele>105.8</ele><time>2026-04-05T07:16:35.135Z</time></trkpt><trkpt lat="43.4640117" lon="11.1403134"><ele>107.0</ele><time>2026-04-05T07:16:37.15Z</time></trkpt><trkpt lat="43.4639415" lon="11.1402383"><ele>106.99999999999999</ele><time>2026-04-05T07:16:39.138Z</time></trkpt><trkpt lat="43.4638785" lon="11.140175"><ele>107.0</ele><time>2026-04-05T07:16:41.136Z</time></trkpt><trkpt lat="43.4638023" lon="11.1401147"><ele>107.0</ele><time>2026-04-05T07:16:44.138Z</time></trkpt><trkpt lat="43.4637463" lon="11.1400556"><ele>107.0</ele><time>2026-04-05T07:16:47.147Z</time></trkpt><trkpt lat="43.4636975" lon="11.1399872"><ele>106.99999999999999</ele><time>2026-04-05T07:16:50.129Z</time></trkpt><trkpt lat="43.4636393" lon="11.1399104"><ele>107.0</ele><time>2026-04-05T07:16:53.133Z</time></trkpt><trkpt lat="43.4635853" lon="11.1398318"><ele>107.14285714285715</ele><time>2026-04-05T07:16:56.136Z</time></trkpt><trkpt lat="43.4635343" lon="11.1397594"><ele>107.28571428571429</ele><time>2026-04-05T07:16:59.147Z</time></trkpt><trkpt lat="43.4635033" lon="11.1396726"><ele>107.42857142857143</ele><time>2026-04-05T07:17:02.14Z</time></trkpt><trkpt lat="43.463522" lon="11.1395741"><ele>107.57142857142858</ele><time>2026-04-05T07:17:05.119Z</time></trkpt><trkpt lat="43.4635367" lon="11.1394818"><ele>107.71428571428571</ele><time>2026-04-05T07:17:08.13Z</time></trkpt><trkpt lat="43.4635392" lon="11.1393842"><ele>107.85714285714286</ele><time>2026-04-05T07:17:11.142Z</time></trkpt><trkpt lat="43.4635338" lon="11.1392894"><ele>108.0</ele><time>2026-04-05T07:17:14.143Z</time></trkpt><trkpt lat="43.463525" lon="11.1391935"><ele>108.0</ele><time>2026-04-05T07:17:17.148Z</time></trkpt><trkpt lat="43.4635032" lon="11.1391069"><ele>108.0</ele><time>2026-04-05T07:17:20.144Z</time></trkpt><trkpt lat="43.4634662" lon="11.1390159"><ele>108.0</ele><time>2026-04-05T07:17:23.154Z</time></trkpt><trkpt lat="43.4634357" lon="11.138923"><ele>108.0</ele><time>2026-04-05T07:17:26.145Z</time></trkpt><trkpt lat="43.4634146" lon="11.1388297"><ele>108.0</ele><time>2026-04-05T07:17:29.122Z</time></trkpt><trkpt lat="43.4633887" lon="11.1387383"><ele>108.0</ele><time>2026-04-05T07:17:32.136Z</time></trkpt><trkpt lat="43.4633812" lon="11.1386477"><ele>108.0</ele><time>2026-04-05T07:17:36.14Z</time></trkpt><trkpt lat="43.4633806" lon="11.1385343"><ele>108.85714285714286</ele><time>2026-04-05T07:17:40.129Z</time></trkpt><trkpt lat="43.4633991" lon="11.1384342"><ele>109.71428571428571</ele><time>2026-04-05T07:17:43.13Z</time></trkpt><trkpt lat="43.4634152" lon="11.1383122"><ele>110.57142857142857</ele><time>2026-04-05T07:17:46.123Z</time></trkpt><trkpt lat="43.4634475" lon="11.138223"><ele>111.42857142857142</ele><time>2026-04-05T07:17:49.135Z</time></trkpt><trkpt lat="43.4634113" lon="11.1383155"><ele>112.28571428571428</ele><time>2026-04-05T07:18:01.118Z</time></trkpt><trkpt lat="43.4633938" lon="11.1384"><ele>113.14285714285714</ele><time>2026-04-05T07:18:03.144Z</time></trkpt><trkpt lat="43.46338" lon="11.1384924"><ele>114.0</ele><time>2026-04-05T07:18:05.154Z</time></trkpt><trkpt lat="43.4633765" lon="11.1385829"><ele>114.0</ele><time>2026-04-05T07:18:07.152Z</time></trkpt><trkpt lat="43.4634004" lon="11.1387013"><ele>114.0</ele><time>2026-04-05T07:18:10.139Z</time></trkpt><trkpt lat="43.4634144" lon="11.1387996"><ele>114.0</ele><time>2026-04-05T07:18:12.127Z</time></trkpt><trkpt lat="43.4634431" lon="11.1389024"><ele>114.0</ele><time>2026-04-05T07:18:14.127Z</time></trkpt><trkpt lat="43.4634715" lon="11.1390231"><ele>114.0</ele><time>2026-04-05T07:18:16.147Z</time></trkpt><trkpt lat="43.4634941" lon="11.1391529"><ele>114.0</ele><time>2026-04-05T07:18:18.131Z</time></trkpt><trkpt lat="43.4635241" lon="11.1393023"><ele>112.80000000000001</ele><time>2026-04-05T07:18:20.145Z</time></trkpt><trkpt lat="43.4635311" lon="11.1394598"><ele>111.60000000000001</ele><time>2026-04-05T07:18:22.149Z</time></trkpt><trkpt lat="43.4635" lon="11.139609"><ele>110.4</ele><time>2026-04-05T07:18:24.139Z</time></trkpt><trkpt lat="43.4635082" lon="11.1397678"><ele>109.2</ele><time>2026-04-05T07:18:26.129Z</time></trkpt><trkpt lat="43.4635496" lon="11.1398485"><ele>108.0</ele><time>2026-04-05T07:18:27.132Z</time></trkpt><trkpt lat="43.4636057" lon="11.1399299"><ele>107.80000000000001</ele><time>2026-04-05T07:18:28.142Z</time></trkpt><trkpt lat="43.4636698" lon="11.1400079"><ele>107.60000000000001</ele><time>2026-04-05T07:18:29.126Z</time></trkpt><trkpt lat="43.4637372" lon="11.1400819"><ele>107.39999999999999</ele><time>2026-04-05T07:18:30.143Z</time></trkpt><trkpt lat="43.4638112" lon="11.1401617"><ele>107.19999999999999</ele><time>2026-04-05T07:18:31.145Z</time></trkpt><trkpt lat="43.4638959" lon="11.1402426"><ele>107.0</ele><time>2026-04-05T07:18:32.146Z</time></trkpt><trkpt lat="43.4639858" lon="11.1403243"><ele>107.0</ele><time>2026-04-05T07:18:33.132Z</time></trkpt><trkpt lat="43.464075" lon="11.1404073"><ele>106.99999999999999</ele><time>2026-04-05T07:18:34.121Z</time></trkpt><trkpt lat="43.4641637" lon="11.1404893"><ele>106.99999999999999</ele><time>2026-04-05T07:18:35.136Z</time></trkpt><trkpt lat="43.4642518" lon="11.1405664"><ele>107.0</ele><time>2026-04-05T07:18:36.138Z</time></trkpt><trkpt lat="43.4643387" lon="11.1406435"><ele>107.0</ele><time>2026-04-05T07:18:37.146Z</time></trkpt><trkpt lat="43.4644173" lon="11.1407198"><ele>105.8</ele><time>2026-04-05T07:18:38.135Z</time></trkpt><trkpt lat="43.4644923" lon="11.1407992"><ele>104.6</ele><time>2026-04-05T07:18:39.139Z</time></trkpt><trkpt lat="43.4645651" lon="11.140883"><ele>103.39999999999999</ele><time>2026-04-05T07:18:40.132Z</time></trkpt><trkpt lat="43.4646407" lon="11.1409655"><ele>102.19999999999999</ele><time>2026-04-05T07:18:41.138Z</time></trkpt><trkpt lat="43.4647213" lon="11.1410328"><ele>101.0</ele><time>2026-04-05T07:18:42.132Z</time></trkpt><trkpt lat="43.4648066" lon="11.1410699"><ele>100.99999999999999</ele><time>2026-04-05T07:18:43.121Z</time></trkpt><trkpt lat="43.4648829" lon="11.1410666"><ele>101.0</ele><time>2026-04-05T07:18:44.14Z</time></trkpt><trkpt lat="43.4649573" lon="11.1410445"><ele>101.0</ele><time>2026-04-05T07:18:45.135Z</time></trkpt><trkpt lat="43.4650308" lon="11.141019"><ele>101.0</ele><time>2026-04-05T07:18:46.119Z</time></trkpt><trkpt lat="43.4651079" lon="11.1409961"><ele>100.99999999999999</ele><time>2026-04-05T07:18:47.127Z</time></trkpt><trkpt lat="43.4651744" lon="11.1409817"><ele>101.0</ele><time>2026-04-05T07:18:48.135Z</time></trkpt><trkpt lat="43.4652758" lon="11.1409402"><ele>101.0</ele><time>2026-04-05T07:18:50.14Z</time></trkpt><trkpt lat="43.4653782" lon="11.1408916"><ele>101.0</ele><time>2026-04-05T07:18:52.129Z</time></trkpt><trkpt lat="43.4654679" lon="11.1408187"><ele>101.0</ele><time>2026-04-05T07:18:54.14Z</time></trkpt><trkpt lat="43.4655492" lon="11.1407098"><ele>101.0</ele><time>2026-04-05T07:18:56.136Z</time></trkpt><trkpt lat="43.4656235" lon="11.1405848"><ele>101.0</ele><time>2026-04-05T07:18:58.126Z</time></trkpt><trkpt lat="43.4656919" lon="11.1404446"><ele>101.0</ele><time>2026-04-05T07:19:00.14Z</time></trkpt><trkpt lat="43.4657535" lon="11.1402954"><ele>101.0</ele><time>2026-04-05T07:19:02.13Z</time></trkpt><trkpt lat="43.4657871" lon="11.1402195"><ele>101.0</ele><time>2026-04-05T07:19:03.139Z</time></trkpt><trkpt lat="43.4658223" lon="11.140147"><ele>101.0</ele><time>2026-04-05T07:19:04.137Z</time></trkpt><trkpt lat="43.4658966" lon="11.1400041"><ele>101.0</ele><time>2026-04-05T07:19:06.126Z</time></trkpt><trkpt lat="43.4659342" lon="11.1399217"><ele>100.42857142857143</ele><time>2026-04-05T07:19:07.156Z</time></trkpt><trkpt lat="43.4659759" lon="11.1398398"><ele>99.85714285714286</ele><time>2026-04-05T07:19:08.142Z</time></trkpt><trkpt lat="43.4660205" lon="11.1397608"><ele>99.28571428571428</ele><time>2026-04-05T07:19:09.137Z</time></trkpt><trkpt lat="43.4660743" lon="11.1396877"><ele>98.71428571428572</ele><time>2026-04-05T07:19:10.135Z</time></trkpt><trkpt lat="43.4661389" lon="11.1396397"><ele>98.14285714285715</ele><time>2026-04-05T07:19:11.146Z</time></trkpt><trkpt lat="43.4662033" lon="11.1396009"><ele>97.57142857142857</ele><time>2026-04-05T07:19:12.138Z</time></trkpt><trkpt lat="43.4662721" lon="11.1395939"><ele>97.0</ele><time>2026-04-05T07:19:13.132Z</time></trkpt><trkpt lat="43.466336" lon="11.1396092"><ele>97.0</ele><time>2026-04-05T07:19:14.13Z</time></trkpt><trkpt lat="43.4664283" lon="11.139693"><ele>97.0</ele><time>2026-04-05T07:19:16.13Z</time></trkpt><trkpt lat="43.4665034" lon="11.1398212"><ele>97.0</ele><time>2026-04-05T07:19:18.147Z</time></trkpt><trkpt lat="43.4665646" lon="11.1399584"><ele>97.0</ele><time>2026-04-05T07:19:20.134Z</time></trkpt><trkpt lat="43.4666364" lon="11.1400828"><ele>97.19999999999999</ele><time>2026-04-05T07:19:22.125Z</time></trkpt><trkpt lat="43.4667026" lon="11.1402053"><ele>97.4</ele><time>2026-04-05T07:19:24.132Z</time></trkpt><trkpt lat="43.4667628" lon="11.1403329"><ele>97.6</ele><time>2026-04-05T07:19:26.149Z</time></trkpt><trkpt lat="43.4668297" lon="11.1404596"><ele>97.80000000000001</ele><time>2026-04-05T07:19:28.139Z</time></trkpt><trkpt lat="43.4668997" lon="11.1405737"><ele>98.0</ele><time>2026-04-05T07:19:30.132Z</time></trkpt><trkpt lat="43.4669605" lon="11.1406962"><ele>97.5</ele><time>2026-04-05T07:19:32.129Z</time></trkpt><trkpt lat="43.4670224" lon="11.1408249"><ele>97.0</ele><time>2026-04-05T07:19:34.131Z</time></trkpt><trkpt lat="43.4670909" lon="11.1409548"><ele>96.5</ele><time>2026-04-05T07:19:36.147Z</time></trkpt><trkpt lat="43.4671542" lon="11.1410812"><ele>96.0</ele><time>2026-04-05T07:19:38.131Z</time></trkpt><trkpt lat="43.4672132" lon="11.1412114"><ele>96.0</ele><time>2026-04-05T07:19:40.133Z</time></trkpt><trkpt lat="43.4672706" lon="11.1413314"><ele>96.0</ele><time>2026-04-05T07:19:42.147Z</time></trkpt><trkpt lat="43.4673229" lon="11.1414468"><ele>96.0</ele><time>2026-04-05T07:19:44.136Z</time></trkpt><trkpt lat="43.4673742" lon="11.141547"><ele>96.0</ele><time>2026-04-05T07:19:46.157Z</time></trkpt><trkpt lat="43.4674199" lon="11.1416513"><ele>96.0</ele><time>2026-04-05T07:19:48.139Z</time></trkpt><trkpt lat="43.4674768" lon="11.1417746"><ele>96.0</ele><time>2026-04-05T07:19:50.138Z</time></trkpt><trkpt lat="43.4675258" lon="11.1419103"><ele>96.0</ele><time>2026-04-05T07:19:52.133Z</time></trkpt><trkpt lat="43.4675706" lon="11.1420672"><ele>96.0</ele><time>2026-04-05T07:19:54.124Z</time></trkpt><trkpt lat="43.4675899" lon="11.1421587"><ele>96.0</ele><time>2026-04-05T07:19:55.138Z</time></trkpt><trkpt lat="43.4676105" lon="11.1422502"><ele>96.0</ele><time>2026-04-05T07:19:56.141Z</time></trkpt><trkpt lat="43.467631" lon="11.142342"><ele>96.0</ele><time>2026-04-05T07:19:57.138Z</time></trkpt><trkpt lat="43.4676474" lon="11.1424321"><ele>96.0</ele><time>2026-04-05T07:19:58.157Z</time></trkpt><trkpt lat="43.4676786" lon="11.1425954"><ele>96.0</ele><time>2026-04-05T07:20:00.119Z</time></trkpt><trkpt lat="43.4677198" lon="11.1427464"><ele>96.0</ele><time>2026-04-05T07:20:02.143Z</time></trkpt><trkpt lat="43.4677553" lon="11.1428882"><ele>96.0</ele><time>2026-04-05T07:20:04.146Z</time></trkpt><trkpt lat="43.4677883" lon="11.1430203"><ele>96.0</ele><time>2026-04-05T07:20:06.153Z</time></trkpt><trkpt lat="43.4678219" lon="11.1431533"><ele>96.0</ele><time>2026-04-05T07:20:08.13Z</time></trkpt><trkpt lat="43.4678588" lon="11.1432778"><ele>96.0</ele><time>2026-04-05T07:20:10.146Z</time></trkpt><trkpt lat="43.4678928" lon="11.1433993"><ele>96.0</ele><time>2026-04-05T07:20:12.132Z</time></trkpt><trkpt lat="43.4679257" lon="11.1435245"><ele>96.0</ele><time>2026-04-05T07:20:14.127Z</time></trkpt><trkpt lat="43.4679654" lon="11.1436472"><ele>97.0</ele><time>2026-04-05T07:20:16.134Z</time></trkpt><trkpt lat="43.4679995" lon="11.1437642"><ele>98.0</ele><time>2026-04-05T07:20:18.144Z</time></trkpt><trkpt lat="43.4680269" lon="11.1438787"><ele>99.0</ele><time>2026-04-05T07:20:20.12Z</time></trkpt><trkpt lat="43.4680545" lon="11.1439929"><ele>100.0</ele><time>2026-04-05T07:20:22.151Z</time></trkpt><trkpt lat="43.4680877" lon="11.144103"><ele>101.0</ele><time>2026-04-05T07:20:24.135Z</time></trkpt><trkpt lat="43.4681153" lon="11.1442251"><ele>102.0</ele><time>2026-04-05T07:20:26.137Z</time></trkpt><trkpt lat="43.4681441" lon="11.1443489"><ele>102.83333333333333</ele><time>2026-04-05T07:20:28.146Z</time></trkpt><trkpt lat="43.4681741" lon="11.1444639"><ele>103.66666666666666</ele><time>2026-04-05T07:20:30.134Z</time></trkpt><trkpt lat="43.4681989" lon="11.1445796"><ele>104.5</ele><time>2026-04-05T07:20:32.138Z</time></trkpt><trkpt lat="43.4682265" lon="11.1446955"><ele>105.33333333333333</ele><time>2026-04-05T07:20:34.127Z</time></trkpt><trkpt lat="43.4682568" lon="11.144814"><ele>106.16666666666666</ele><time>2026-04-05T07:20:36.133Z</time></trkpt><trkpt lat="43.4682668" lon="11.1449121"><ele>107.0</ele><time>2026-04-05T07:20:38.149Z</time></trkpt><trkpt lat="43.4682529" lon="11.1450172"><ele>107.49999999999999</ele><time>2026-04-05T07:20:41.141Z</time></trkpt><trkpt lat="43.4682439" lon="11.1451272"><ele>108.0</ele><time>2026-04-05T07:20:44.147Z</time></trkpt><trkpt lat="43.468264" lon="11.1452384"><ele>108.5</ele><time>2026-04-05T07:20:47.138Z</time></trkpt><trkpt lat="43.4682715" lon="11.145366"><ele>109.0</ele><time>2026-04-05T07:20:50.137Z</time></trkpt><trkpt lat="43.4682928" lon="11.1454853"><ele>109.49999999999999</ele><time>2026-04-05T07:20:53.138Z</time></trkpt><trkpt lat="43.4683034" lon="11.1455923"><ele>110.0</ele><time>2026-04-05T07:20:56.129Z</time></trkpt><trkpt lat="43.4682996" lon="11.1457251"><ele>110.49999999999999</ele><time>2026-04-05T07:20:59.135Z</time></trkpt><trkpt lat="43.4683136" lon="11.145828"><ele>111.0</ele><time>2026-04-05T07:21:01.118Z</time></trkpt><trkpt lat="43.4683335" lon="11.1459256"><ele>111.5</ele><time>2026-04-05T07:21:03.134Z</time></trkpt><trkpt lat="43.4683456" lon="11.1460334"><ele>112.0</ele><time>2026-04-05T07:21:05.122Z</time></trkpt><trkpt lat="43.4683664" lon="11.1461443"><ele>112.49999999999999</ele><time>2026-04-05T07:21:07.138Z</time></trkpt><trkpt lat="43.4683927" lon="11.1462595"><ele>113.0</ele><time>2026-04-05T07:21:09.13Z</time></trkpt><trkpt lat="43.4684042" lon="11.1463541"><ele>112.99999999999999</ele><time>2026-04-05T07:21:11.138Z</time></trkpt><trkpt lat="43.4684104" lon="11.1464531"><ele>113.0</ele><time>2026-04-05T07:21:13.13Z</time></trkpt><trkpt lat="43.4684232" lon="11.1465643"><ele>113.0</ele><time>2026-04-05T07:21:15.129Z</time></trkpt><trkpt lat="43.4684367" lon="11.1466819"><ele>113.0</ele><time>2026-04-05T07:21:17.121Z</time></trkpt><trkpt lat="43.4684548" lon="11.1468051"><ele>112.99999999999999</ele><time>2026-04-05T07:21:19.14Z</time></trkpt><trkpt lat="43.4684595" lon="11.1469277"><ele>113.0</ele><time>2026-04-05T07:21:21.137Z</time></trkpt><trkpt lat="43.4684699" lon="11.147054"><ele>112.99999999999999</ele><time>2026-04-05T07:21:23.118Z</time></trkpt><trkpt lat="43.4684874" lon="11.1471732"><ele>113.0</ele><time>2026-04-05T07:21:25.13Z</time></trkpt><trkpt lat="43.4684809" lon="11.1472822"><ele>113.0</ele><time>2026-04-05T07:21:27.124Z</time></trkpt><trkpt lat="43.4684392" lon="11.1473659"><ele>113.0</ele><time>2026-04-05T07:21:29.134Z</time></trkpt><trkpt lat="43.4683543" lon="11.1473892"><ele>112.99999999999999</ele><time>2026-04-05T07:21:31.139Z</time></trkpt><trkpt lat="43.468256" lon="11.1473743"><ele>113.0</ele><time>2026-04-05T07:21:33.124Z</time></trkpt><trkpt lat="43.4681695" lon="11.1473765"><ele>112.33333333333333</ele><time>2026-04-05T07:21:35.147Z</time></trkpt><trkpt lat="43.4680927" lon="11.1473828"><ele>111.66666666666666</ele><time>2026-04-05T07:21:37.133Z</time></trkpt><trkpt lat="43.4680137" lon="11.1474016"><ele>111.0</ele><time>2026-04-05T07:21:39.139Z</time></trkpt><trkpt lat="43.4679456" lon="11.1474182"><ele>110.33333333333334</ele><time>2026-04-05T07:21:41.135Z</time></trkpt><trkpt lat="43.4678554" lon="11.1474212"><ele>109.66666666666667</ele><time>2026-04-05T07:21:44.147Z</time></trkpt><trkpt lat="43.4678689" lon="11.1475086"><ele>109.0</ele><time>2026-04-05T07:21:48.132Z</time></trkpt><trkpt lat="43.4678625" lon="11.1476251"><ele>109.0</ele><time>2026-04-05T07:21:50.135Z</time></trkpt><trkpt lat="43.4678397" lon="11.1477201"><ele>109.0</ele><time>2026-04-05T07:21:52.13Z</time></trkpt><trkpt lat="43.4677823" lon="11.147778"><ele>109.0</ele><time>2026-04-05T07:21:54.128Z</time></trkpt><trkpt lat="43.46772" lon="11.1478052"><ele>109.0</ele><time>2026-04-05T07:21:56.142Z</time></trkpt><trkpt lat="43.4676358" lon="11.147831"><ele>109.0</ele><time>2026-04-05T07:21:59.124Z</time></trkpt><trkpt lat="43.4675709" lon="11.1478333"><ele>109.0</ele><time>2026-04-05T07:22:01.123Z</time></trkpt><trkpt lat="43.4675011" lon="11.1478512"><ele>109.0</ele><time>2026-04-05T07:22:03.139Z</time></trkpt><trkpt lat="43.467438" lon="11.1479043"><ele>109.00000000000001</ele><time>2026-04-05T07:22:05.141Z</time></trkpt><trkpt lat="43.4673853" lon="11.1479764"><ele>109.0</ele><time>2026-04-05T07:22:07.139Z</time></trkpt><trkpt lat="43.4673687" lon="11.1480745"><ele>109.0</ele><time>2026-04-05T07:22:09.136Z</time></trkpt><trkpt lat="43.4673917" lon="11.1482068"><ele>109.0</ele><time>2026-04-05T07:22:11.129Z</time></trkpt><trkpt lat="43.4674128" lon="11.1483364"><ele>109.00000000000001</ele><time>2026-04-05T07:22:13.133Z</time></trkpt><trkpt lat="43.4674359" lon="11.1484643"><ele>109.0</ele><time>2026-04-05T07:22:15.12Z</time></trkpt><trkpt lat="43.467442" lon="11.1485893"><ele>109.4</ele><time>2026-04-05T07:22:17.134Z</time></trkpt><trkpt lat="43.4673689" lon="11.1486858"><ele>109.80000000000001</ele><time>2026-04-05T07:22:19.136Z</time></trkpt><trkpt lat="43.4672571" lon="11.1487212"><ele>110.19999999999999</ele><time>2026-04-05T07:22:21.132Z</time></trkpt><trkpt lat="43.4671651" lon="11.1487648"><ele>110.6</ele><time>2026-04-05T07:22:23.136Z</time></trkpt><trkpt lat="43.4670742" lon="11.1488108"><ele>111.0</ele><time>2026-04-05T07:22:25.121Z</time></trkpt><trkpt lat="43.4669993" lon="11.1489007"><ele>111.0</ele><time>2026-04-05T07:22:27.126Z</time></trkpt><trkpt lat="43.466928" lon="11.1489905"><ele>111.0</ele><time>2026-04-05T07:22:29.137Z</time></trkpt><trkpt lat="43.4668708" lon="11.1491007"><ele>111.0</ele><time>2026-04-05T07:22:31.15Z</time></trkpt><trkpt lat="43.4668047" lon="11.1492184"><ele>111.0</ele><time>2026-04-05T07:22:33.138Z</time></trkpt><trkpt lat="43.4667455" lon="11.1493323"><ele>111.0</ele><time>2026-04-05T07:22:35.133Z</time></trkpt><trkpt lat="43.4666647" lon="11.1494281"><ele>111.0</ele><time>2026-04-05T07:22:37.144Z</time></trkpt><trkpt lat="43.4665919" lon="11.1495225"><ele>111.0</ele><time>2026-04-05T07:22:39.149Z</time></trkpt><trkpt lat="43.4665217" lon="11.1496318"><ele>111.0</ele><time>2026-04-05T07:22:41.13Z</time></trkpt><trkpt lat="43.4664423" lon="11.149737"><ele>111.0</ele><time>2026-04-05T07:22:43.137Z</time></trkpt><trkpt lat="43.4663721" lon="11.1498502"><ele>111.0</ele><time>2026-04-05T07:22:45.127Z</time></trkpt><trkpt lat="43.4663024" lon="11.1499595"><ele>110.4</ele><time>2026-04-05T07:22:47.127Z</time></trkpt><trkpt lat="43.4662338" lon="11.1500858"><ele>109.8</ele><time>2026-04-05T07:22:49.131Z</time></trkpt><trkpt lat="43.4661696" lon="11.1501954"><ele>109.20000000000002</ele><time>2026-04-05T07:22:51.129Z</time></trkpt><trkpt lat="43.466106" lon="11.1502993"><ele>108.60000000000001</ele><time>2026-04-05T07:22:53.129Z</time></trkpt><trkpt lat="43.4660398" lon="11.1504147"><ele>108.0</ele><time>2026-04-05T07:22:55.141Z</time></trkpt><trkpt lat="43.4659834" lon="11.1505273"><ele>108.0</ele><time>2026-04-05T07:22:57.139Z</time></trkpt><trkpt lat="43.465927" lon="11.1506345"><ele>108.00000000000001</ele><time>2026-04-05T07:22:59.16Z</time></trkpt><trkpt lat="43.4658772" lon="11.1507439"><ele>108.00000000000001</ele><time>2026-04-05T07:23:01.129Z</time></trkpt><trkpt lat="43.4658206" lon="11.1508454"><ele>108.0</ele><time>2026-04-05T07:23:03.144Z</time></trkpt><trkpt lat="43.4657666" lon="11.1509399"><ele>108.0</ele><time>2026-04-05T07:23:05.117Z</time></trkpt><trkpt lat="43.4657107" lon="11.1510464"><ele>108.0</ele><time>2026-04-05T07:23:07.13Z</time></trkpt><trkpt lat="43.4656558" lon="11.1511646"><ele>108.00000000000001</ele><time>2026-04-05T07:23:09.13Z</time></trkpt><trkpt lat="43.4655944" lon="11.1512716"><ele>108.00000000000001</ele><time>2026-04-05T07:23:11.13Z</time></trkpt><trkpt lat="43.4655346" lon="11.1513798"><ele>108.0</ele><time>2026-04-05T07:23:13.13Z</time></trkpt><trkpt lat="43.4654748" lon="11.1515007"><ele>108.0</ele><time>2026-04-05T07:23:15.131Z</time></trkpt><trkpt lat="43.4654149" lon="11.1516169"><ele>108.0</ele><time>2026-04-05T07:23:17.133Z</time></trkpt><trkpt lat="43.4653518" lon="11.1517341"><ele>108.00000000000001</ele><time>2026-04-05T07:23:19.133Z</time></trkpt><trkpt lat="43.4652914" lon="11.151833"><ele>108.00000000000001</ele><time>2026-04-05T07:23:21.12Z</time></trkpt><trkpt lat="43.4652405" lon="11.1519287"><ele>108.0</ele><time>2026-04-05T07:23:23.13Z</time></trkpt><trkpt lat="43.4651616" lon="11.1519594"><ele>108.0</ele><time>2026-04-05T07:23:25.145Z</time></trkpt><trkpt lat="43.4650732" lon="11.151908"><ele>108.0</ele><time>2026-04-05T07:23:27.13Z</time></trkpt><trkpt lat="43.4649931" lon="11.1518585"><ele>108.0</ele><time>2026-04-05T07:23:29.122Z</time></trkpt><trkpt lat="43.4649299" lon="11.1518127"><ele>108.0</ele><time>2026-04-05T07:23:31.136Z</time></trkpt><trkpt lat="43.4649172" lon="11.1517189"><ele>108.0</ele><time>2026-04-05T07:23:36.127Z</time></trkpt><trkpt lat="43.4649815" lon="11.151694"><ele>108.0</ele><time>2026-04-05T07:26:21.128Z</time></trkpt><trkpt lat="43.4650027" lon="11.1516096"><ele>108.0</ele><time>2026-04-05T07:26:26.135Z</time></trkpt><trkpt lat="43.4650337" lon="11.1515162"><ele>108.0</ele><time>2026-04-05T07:26:30.135Z</time></trkpt><trkpt lat="43.4650515" lon="11.1514238"><ele>108.5</ele><time>2026-04-05T07:26:33.122Z</time></trkpt><trkpt lat="43.4650743" lon="11.1513377"><ele>109.0</ele><time>2026-04-05T07:26:36.134Z</time></trkpt><trkpt lat="43.4650024" lon="11.1513217"><ele>109.5</ele><time>2026-04-05T07:26:42.13Z</time></trkpt><trkpt lat="43.464931" lon="11.1513542"><ele>110.0</ele><time>2026-04-05T07:26:45.125Z</time></trkpt><trkpt lat="43.4648481" lon="11.1512983"><ele>110.5</ele><time>2026-04-05T07:26:48.123Z</time></trkpt><trkpt lat="43.4647842" lon="11.1512615"><ele>111.0</ele><time>2026-04-05T07:26:50.145Z</time></trkpt><trkpt lat="43.4647119" lon="11.1512255"><ele>111.0</ele><time>2026-04-05T07:26:52.135Z</time></trkpt><trkpt lat="43.4646531" lon="11.1511797"><ele>111.0</ele><time>2026-04-05T07:26:54.128Z</time></trkpt><trkpt lat="43.464564" lon="11.1511911"><ele>111.0</ele><time>2026-04-05T07:26:57.128Z</time></trkpt><trkpt lat="43.4645038" lon="11.15129"><ele>111.0</ele><time>2026-04-05T07:27:00.136Z</time></trkpt><trkpt lat="43.4644686" lon="11.1513633"><ele>111.0</ele><time>2026-04-05T07:27:02.138Z</time></trkpt><trkpt lat="43.4644215" lon="11.1514771"><ele>111.0</ele><time>2026-04-05T07:27:05.125Z</time></trkpt><trkpt lat="43.4643796" lon="11.1515502"><ele>110.71428571428571</ele><time>2026-04-05T07:27:07.146Z</time></trkpt><trkpt lat="43.4643363" lon="11.1516259"><ele>110.42857142857143</ele><time>2026-04-05T07:27:09.144Z</time></trkpt><trkpt lat="43.4642961" lon="11.1517022"><ele>110.14285714285714</ele><time>2026-04-05T07:27:11.143Z</time></trkpt><trkpt lat="43.4642575" lon="11.1517828"><ele>109.85714285714286</ele><time>2026-04-05T07:27:13.132Z</time></trkpt><trkpt lat="43.4642124" lon="11.1518546"><ele>109.57142857142858</ele><time>2026-04-05T07:27:15.124Z</time></trkpt><trkpt lat="43.4641669" lon="11.1519312"><ele>109.28571428571429</ele><time>2026-04-05T07:27:17.115Z</time></trkpt><trkpt lat="43.4641266" lon="11.1520198"><ele>109.0</ele><time>2026-04-05T07:27:19.131Z</time></trkpt><trkpt lat="43.4640901" lon="11.1521192"><ele>109.0</ele><time>2026-04-05T07:27:21.136Z</time></trkpt><trkpt lat="43.4640508" lon="11.1522129"><ele>109.0</ele><time>2026-04-05T07:27:23.123Z</time></trkpt><trkpt lat="43.4640201" lon="11.1522966"><ele>109.0</ele><time>2026-04-05T07:27:25.123Z</time></trkpt><trkpt lat="43.4639852" lon="11.1523805"><ele>109.0</ele><time>2026-04-05T07:27:27.135Z</time></trkpt><trkpt lat="43.4639359" lon="11.1524656"><ele>109.0</ele><time>2026-04-05T07:27:29.133Z</time></trkpt><trkpt lat="43.4638841" lon="11.1525401"><ele>109.0</ele><time>2026-04-05T07:27:31.126Z</time></trkpt><trkpt lat="43.4638383" lon="11.1526122"><ele>109.0</ele><time>2026-04-05T07:27:33.128Z</time></trkpt><trkpt lat="43.4637847" lon="11.1526885"><ele>109.83333333333334</ele><time>2026-04-05T07:27:35.136Z</time></trkpt><trkpt lat="43.4637276" lon="11.1527699"><ele>110.66666666666667</ele><time>2026-04-05T07:27:37.131Z</time></trkpt><trkpt lat="43.4636763" lon="11.1528734"><ele>111.5</ele><time>2026-04-05T07:27:39.138Z</time></trkpt><trkpt lat="43.4636281" lon="11.1529789"><ele>112.33333333333334</ele><time>2026-04-05T07:27:41.138Z</time></trkpt><trkpt lat="43.4635814" lon="11.1530746"><ele>113.16666666666667</ele><time>2026-04-05T07:27:43.139Z</time></trkpt><trkpt lat="43.463532" lon="11.1531746"><ele>114.0</ele><time>2026-04-05T07:27:45.131Z</time></trkpt><trkpt lat="43.4634855" lon="11.1532798"><ele>114.0</ele><time>2026-04-05T07:27:47.141Z</time></trkpt><trkpt lat="43.4634317" lon="11.1533763"><ele>114.0</ele><time>2026-04-05T07:27:49.13Z</time></trkpt><trkpt lat="43.463373" lon="11.1534748"><ele>114.0</ele><time>2026-04-05T07:27:51.131Z</time></trkpt><trkpt lat="43.4633195" lon="11.1535778"><ele>114.0</ele><time>2026-04-05T07:27:53.133Z</time></trkpt><trkpt lat="43.4632785" lon="11.1536875"><ele>114.0</ele><time>2026-04-05T07:27:55.137Z</time></trkpt><trkpt lat="43.4632383" lon="11.1537981"><ele>114.0</ele><time>2026-04-05T07:27:57.131Z</time></trkpt><trkpt lat="43.4631967" lon="11.1539113"><ele>114.0</ele><time>2026-04-05T07:27:59.13Z</time></trkpt><trkpt lat="43.4631543" lon="11.1540321"><ele>114.0</ele><time>2026-04-05T07:28:01.125Z</time></trkpt><trkpt lat="43.4631175" lon="11.1541507"><ele>114.0</ele><time>2026-04-05T07:28:03.13Z</time></trkpt><trkpt lat="43.4630823" lon="11.1542681"><ele>114.0</ele><time>2026-04-05T07:28:05.133Z</time></trkpt><trkpt lat="43.4630457" lon="11.1543906"><ele>114.0</ele><time>2026-04-05T07:28:07.146Z</time></trkpt><trkpt lat="43.4630234" lon="11.1545163"><ele>114.0</ele><time>2026-04-05T07:28:09.131Z</time></trkpt><trkpt lat="43.4629941" lon="11.1546392"><ele>114.0</ele><time>2026-04-05T07:28:11.135Z</time></trkpt><trkpt lat="43.462944" lon="11.154759"><ele>114.0</ele><time>2026-04-05T07:28:13.132Z</time></trkpt><trkpt lat="43.4629001" lon="11.1548796"><ele>114.0</ele><time>2026-04-05T07:28:15.134Z</time></trkpt><trkpt lat="43.4628532" lon="11.1549872"><ele>114.0</ele><time>2026-04-05T07:28:17.129Z</time></trkpt><trkpt lat="43.462804" lon="11.1551059"><ele>114.0</ele><time>2026-04-05T07:28:19.138Z</time></trkpt><trkpt lat="43.4627606" lon="11.1552374"><ele>114.0</ele><time>2026-04-05T07:28:21.145Z</time></trkpt><trkpt lat="43.4627353" lon="11.1553739"><ele>114.0</ele><time>2026-04-05T07:28:23.138Z</time></trkpt><trkpt lat="43.4627039" lon="11.1555112"><ele>114.0</ele><time>2026-04-05T07:28:25.144Z</time></trkpt><trkpt lat="43.4626607" lon="11.1556411"><ele>113.4</ele><time>2026-04-05T07:28:27.151Z</time></trkpt><trkpt lat="43.4626167" lon="11.1557633"><ele>112.80000000000001</ele><time>2026-04-05T07:28:29.136Z</time></trkpt><trkpt lat="43.4625664" lon="11.1558732"><ele>112.19999999999999</ele><time>2026-04-05T07:28:31.142Z</time></trkpt><trkpt lat="43.4625281" lon="11.1559909"><ele>111.6</ele><time>2026-04-05T07:28:33.131Z</time></trkpt><trkpt lat="43.4624928" lon="11.1561162"><ele>111.0</ele><time>2026-04-05T07:28:35.141Z</time></trkpt><trkpt lat="43.4624595" lon="11.156234"><ele>111.0</ele><time>2026-04-05T07:28:37.133Z</time></trkpt><trkpt lat="43.4624202" lon="11.1563411"><ele>111.0</ele><time>2026-04-05T07:28:39.145Z</time></trkpt><trkpt lat="43.4623769" lon="11.1564508"><ele>111.0</ele><time>2026-04-05T07:28:41.128Z</time></trkpt><trkpt lat="43.4623442" lon="11.1565718"><ele>111.0</ele><time>2026-04-05T07:28:43.142Z</time></trkpt><trkpt lat="43.4623115" lon="11.1566962"><ele>111.0</ele><time>2026-04-05T07:28:45.132Z</time></trkpt><trkpt lat="43.4622691" lon="11.1568085"><ele>111.16666666666667</ele><time>2026-04-05T07:28:47.145Z</time></trkpt><trkpt lat="43.4622241" lon="11.1569123"><ele>111.33333333333334</ele><time>2026-04-05T07:28:49.135Z</time></trkpt><trkpt lat="43.4621852" lon="11.1570153"><ele>111.5</ele><time>2026-04-05T07:28:51.14Z</time></trkpt><trkpt lat="43.462158" lon="11.157134"><ele>111.66666666666667</ele><time>2026-04-05T07:28:53.13Z</time></trkpt><trkpt lat="43.462128" lon="11.157245"><ele>111.83333333333334</ele><time>2026-04-05T07:28:55.141Z</time></trkpt><trkpt lat="43.4620962" lon="11.1573588"><ele>112.0</ele><time>2026-04-05T07:28:57.129Z</time></trkpt><trkpt lat="43.4620543" lon="11.1574578"><ele>112.16666666666667</ele><time>2026-04-05T07:28:59.137Z</time></trkpt><trkpt lat="43.4620089" lon="11.1575588"><ele>112.33333333333334</ele><time>2026-04-05T07:29:01.15Z</time></trkpt><trkpt lat="43.4619694" lon="11.1576721"><ele>112.5</ele><time>2026-04-05T07:29:03.14Z</time></trkpt><trkpt lat="43.4619297" lon="11.1577747"><ele>112.66666666666666</ele><time>2026-04-05T07:29:05.137Z</time></trkpt><trkpt lat="43.4618712" lon="11.1578615"><ele>112.83333333333333</ele><time>2026-04-05T07:29:07.129Z</time></trkpt><trkpt lat="43.4618141" lon="11.1579519"><ele>113.0</ele><time>2026-04-05T07:29:09.125Z</time></trkpt><trkpt lat="43.4617609" lon="11.1580592"><ele>112.99999999999999</ele><time>2026-04-05T07:29:11.138Z</time></trkpt><trkpt lat="43.4616998" lon="11.1581526"><ele>113.0</ele><time>2026-04-05T07:29:13.137Z</time></trkpt><trkpt lat="43.4616381" lon="11.1582409"><ele>113.0</ele><time>2026-04-05T07:29:15.131Z</time></trkpt><trkpt lat="43.4615644" lon="11.1583142"><ele>113.0</ele><time>2026-04-05T07:29:17.131Z</time></trkpt><trkpt lat="43.461487" lon="11.1583641"><ele>112.99999999999999</ele><time>2026-04-05T07:29:19.138Z</time></trkpt><trkpt lat="43.4614201" lon="11.1584235"><ele>113.0</ele><time>2026-04-05T07:29:21.121Z</time></trkpt><trkpt lat="43.4613527" lon="11.1584928"><ele>114.16666666666666</ele><time>2026-04-05T07:29:23.14Z</time></trkpt><trkpt lat="43.4612784" lon="11.1585637"><ele>115.33333333333333</ele><time>2026-04-05T07:29:25.14Z</time></trkpt><trkpt lat="43.4611979" lon="11.1586206"><ele>116.5</ele><time>2026-04-05T07:29:27.137Z</time></trkpt><trkpt lat="43.4611219" lon="11.1586599"><ele>117.66666666666666</ele><time>2026-04-05T07:29:29.148Z</time></trkpt><trkpt lat="43.4610388" lon="11.1586973"><ele>118.83333333333333</ele><time>2026-04-05T07:29:31.121Z</time></trkpt><trkpt lat="43.4609495" lon="11.158711"><ele>120.0</ele><time>2026-04-05T07:29:33.132Z</time></trkpt><trkpt lat="43.4608654" lon="11.1587211"><ele>120.0</ele><time>2026-04-05T07:29:35.14Z</time></trkpt><trkpt lat="43.4607806" lon="11.1587265"><ele>120.0</ele><time>2026-04-05T07:29:37.126Z</time></trkpt><trkpt lat="43.460695" lon="11.1587429"><ele>120.0</ele><time>2026-04-05T07:29:39.143Z</time></trkpt><trkpt lat="43.4606124" lon="11.1587481"><ele>120.0</ele><time>2026-04-05T07:29:41.128Z</time></trkpt><trkpt lat="43.4605282" lon="11.1587526"><ele>120.0</ele><time>2026-04-05T07:29:43.132Z</time></trkpt><trkpt lat="43.4604471" lon="11.158756"><ele>120.0</ele><time>2026-04-05T07:29:45.137Z</time></trkpt><trkpt lat="43.4603656" lon="11.1587538"><ele>120.66666666666667</ele><time>2026-04-05T07:29:47.132Z</time></trkpt><trkpt lat="43.4602827" lon="11.1587446"><ele>121.33333333333334</ele><time>2026-04-05T07:29:49.132Z</time></trkpt><trkpt lat="43.4601998" lon="11.1587364"><ele>122.0</ele><time>2026-04-05T07:29:51.132Z</time></trkpt><trkpt lat="43.4601133" lon="11.1587271"><ele>122.66666666666667</ele><time>2026-04-05T07:29:53.129Z</time></trkpt><trkpt lat="43.4600194" lon="11.1587189"><ele>123.33333333333334</ele><time>2026-04-05T07:29:55.127Z</time></trkpt><trkpt lat="43.4599375" lon="11.1586955"><ele>124.0</ele><time>2026-04-05T07:29:57.134Z</time></trkpt><trkpt lat="43.4598553" lon="11.1586532"><ele>124.00000000000001</ele><time>2026-04-05T07:29:59.138Z</time></trkpt><trkpt lat="43.4597812" lon="11.1586054"><ele>124.0</ele><time>2026-04-05T07:30:01.13Z</time></trkpt><trkpt lat="43.4597092" lon="11.1585643"><ele>124.0</ele><time>2026-04-05T07:30:03.126Z</time></trkpt><trkpt lat="43.4596369" lon="11.1585232"><ele>124.0</ele><time>2026-04-05T07:30:05.142Z</time></trkpt><trkpt lat="43.4595628" lon="11.1584828"><ele>124.00000000000001</ele><time>2026-04-05T07:30:07.137Z</time></trkpt><trkpt lat="43.4594942" lon="11.1584243"><ele>124.0</ele><time>2026-04-05T07:30:09.14Z</time></trkpt><trkpt lat="43.4594212" lon="11.1583564"><ele>123.66666666666667</ele><time>2026-04-05T07:30:11.134Z</time></trkpt><trkpt lat="43.4593504" lon="11.1582892"><ele>123.33333333333334</ele><time>2026-04-05T07:30:13.148Z</time></trkpt><trkpt lat="43.4592888" lon="11.158224"><ele>123.0</ele><time>2026-04-05T07:30:15.132Z</time></trkpt><trkpt lat="43.4592337" lon="11.1581703"><ele>122.66666666666666</ele><time>2026-04-05T07:30:17.151Z</time></trkpt><trkpt lat="43.4591837" lon="11.1582253"><ele>122.33333333333333</ele><time>2026-04-05T07:30:20.134Z</time></trkpt><trkpt lat="43.4590918" lon="11.1581738"><ele>122.0</ele><time>2026-04-05T07:30:23.14Z</time></trkpt><trkpt lat="43.4590392" lon="11.1581201"><ele>121.85714285714283</ele><time>2026-04-05T07:30:25.144Z</time></trkpt><trkpt lat="43.458976" lon="11.1581143"><ele>121.71428571428571</ele><time>2026-04-05T07:30:28.155Z</time></trkpt><trkpt lat="43.4589203" lon="11.1580548"><ele>121.57142857142856</ele><time>2026-04-05T07:30:33.122Z</time></trkpt><trkpt lat="43.4589909" lon="11.1581127"><ele>121.42857142857142</ele><time>2026-04-05T07:31:06.132Z</time></trkpt><trkpt lat="43.4589156" lon="11.1581103"><ele>121.28571428571428</ele><time>2026-04-05T07:31:11.149Z</time></trkpt><trkpt lat="43.4588604" lon="11.1580645"><ele>121.14285714285714</ele><time>2026-04-05T07:31:13.135Z</time></trkpt><trkpt lat="43.4587986" lon="11.1580247"><ele>121.0</ele><time>2026-04-05T07:31:15.137Z</time></trkpt><trkpt lat="43.4587387" lon="11.1579834"><ele>121.0</ele><time>2026-04-05T07:31:17.123Z</time></trkpt><trkpt lat="43.4586798" lon="11.1579354"><ele>120.99999999999999</ele><time>2026-04-05T07:31:19.114Z</time></trkpt><trkpt lat="43.4586218" lon="11.1578903"><ele>121.0</ele><time>2026-04-05T07:31:21.13Z</time></trkpt><trkpt lat="43.4585594" lon="11.1578354"><ele>121.0</ele><time>2026-04-05T07:31:23.13Z</time></trkpt><trkpt lat="43.4584926" lon="11.1577769"><ele>120.99999999999999</ele><time>2026-04-05T07:31:25.127Z</time></trkpt><trkpt lat="43.4584307" lon="11.1577277"><ele>121.0</ele><time>2026-04-05T07:31:27.142Z</time></trkpt><trkpt lat="43.4583683" lon="11.157665"><ele>121.0</ele><time>2026-04-05T07:31:29.137Z</time></trkpt><trkpt lat="43.4583106" lon="11.1575982"><ele>121.00000000000001</ele><time>2026-04-05T07:31:31.157Z</time></trkpt><trkpt lat="43.4582392" lon="11.1575299"><ele>121.0</ele><time>2026-04-05T07:31:33.141Z</time></trkpt><trkpt lat="43.4581683" lon="11.157463"><ele>121.0</ele><time>2026-04-05T07:31:35.126Z</time></trkpt><trkpt lat="43.4580996" lon="11.1573904"><ele>121.0</ele><time>2026-04-05T07:31:37.13Z</time></trkpt><trkpt lat="43.4580316" lon="11.1573052"><ele>121.00000000000001</ele><time>2026-04-05T07:31:39.131Z</time></trkpt><trkpt lat="43.4579495" lon="11.1572382"><ele>121.0</ele><time>2026-04-05T07:31:41.133Z</time></trkpt><trkpt lat="43.4578841" lon="11.1571689"><ele>120.50000000000001</ele><time>2026-04-05T07:31:43.131Z</time></trkpt><trkpt lat="43.4578233" lon="11.1570994"><ele>120.0</ele><time>2026-04-05T07:31:45.135Z</time></trkpt><trkpt lat="43.4577647" lon="11.1570554"><ele>119.5</ele><time>2026-04-05T07:31:47.134Z</time></trkpt><trkpt lat="43.4576983" lon="11.1570171"><ele>119.0</ele><time>2026-04-05T07:31:50.138Z</time></trkpt><trkpt lat="43.4576444" lon="11.1570713"><ele>118.50000000000001</ele><time>2026-04-05T07:31:55.133Z</time></trkpt><trkpt lat="43.4576391" lon="11.1572211"><ele>118.0</ele><time>2026-04-05T07:32:27.133Z</time></trkpt><trkpt lat="43.4576192" lon="11.1573415"><ele>117.0</ele><time>2026-04-05T07:32:29.127Z</time></trkpt><trkpt lat="43.457588" lon="11.1574737"><ele>116.00000000000001</ele><time>2026-04-05T07:32:31.148Z</time></trkpt><trkpt lat="43.4575734" lon="11.1576311"><ele>115.00000000000001</ele><time>2026-04-05T07:32:33.131Z</time></trkpt><trkpt lat="43.4575905" lon="11.157779"><ele>114.0</ele><time>2026-04-05T07:32:35.133Z</time></trkpt><trkpt lat="43.4576308" lon="11.1578955"><ele>113.0</ele><time>2026-04-05T07:32:37.146Z</time></trkpt><trkpt lat="43.4576744" lon="11.1579997"><ele>113.0</ele><time>2026-04-05T07:32:39.146Z</time></trkpt><trkpt lat="43.4577026" lon="11.1581137"><ele>113.00000000000001</ele><time>2026-04-05T07:32:41.138Z</time></trkpt><trkpt lat="43.4577351" lon="11.1582355"><ele>113.00000000000001</ele><time>2026-04-05T07:32:43.149Z</time></trkpt><trkpt lat="43.4577692" lon="11.1583729"><ele>113.0</ele><time>2026-04-05T07:32:45.119Z</time></trkpt><trkpt lat="43.4577747" lon="11.1585265"><ele>113.0</ele><time>2026-04-05T07:32:47.129Z</time></trkpt><trkpt lat="43.4577171" lon="11.1586404"><ele>111.80000000000001</ele><time>2026-04-05T07:32:49.14Z</time></trkpt><trkpt lat="43.4576257" lon="11.1586951"><ele>110.60000000000001</ele><time>2026-04-05T07:32:51.134Z</time></trkpt><trkpt lat="43.4575348" lon="11.1587441"><ele>109.39999999999999</ele><time>2026-04-05T07:32:53.142Z</time></trkpt><trkpt lat="43.4574217" lon="11.1587472"><ele>108.19999999999999</ele><time>2026-04-05T07:32:55.128Z</time></trkpt><trkpt lat="43.4573066" lon="11.1587432"><ele>107.0</ele><time>2026-04-05T07:32:57.13Z</time></trkpt><trkpt lat="43.4571925" lon="11.1587388"><ele>106.8</ele><time>2026-04-05T07:32:59.131Z</time></trkpt><trkpt lat="43.4570935" lon="11.1587212"><ele>106.6</ele><time>2026-04-05T07:33:01.135Z</time></trkpt><trkpt lat="43.4570018" lon="11.1587318"><ele>106.39999999999999</ele><time>2026-04-05T07:33:03.136Z</time></trkpt><trkpt lat="43.4569113" lon="11.1587226"><ele>106.19999999999999</ele><time>2026-04-05T07:33:05.134Z</time></trkpt><trkpt lat="43.4568216" lon="11.158687"><ele>106.0</ele><time>2026-04-05T07:33:07.117Z</time></trkpt><trkpt lat="43.4567483" lon="11.158675"><ele>106.00000000000001</ele><time>2026-04-05T07:33:09.132Z</time></trkpt><trkpt lat="43.4566869" lon="11.1586204"><ele>106.0</ele><time>2026-04-05T07:33:12.124Z</time></trkpt><trkpt lat="43.4566672" lon="11.1585257"><ele>106.0</ele><time>2026-04-05T07:33:14.128Z</time></trkpt><trkpt lat="43.4566338" lon="11.1584105"><ele>106.0</ele><time>2026-04-05T07:33:16.138Z</time></trkpt><trkpt lat="43.4565294" lon="11.158293"><ele>106.00000000000001</ele><time>2026-04-05T07:33:18.146Z</time></trkpt><trkpt lat="43.4564691" lon="11.158241"><ele>106.0</ele><time>2026-04-05T07:33:19.128Z</time></trkpt><trkpt lat="43.4564112" lon="11.1582043"><ele>106.19999999999999</ele><time>2026-04-05T07:33:20.144Z</time></trkpt><trkpt lat="43.456297" lon="11.1581464"><ele>106.39999999999999</ele><time>2026-04-05T07:33:22.141Z</time></trkpt><trkpt lat="43.4561761" lon="11.1581048"><ele>106.6</ele><time>2026-04-05T07:33:24.133Z</time></trkpt><trkpt lat="43.4561116" lon="11.1580846"><ele>106.8</ele><time>2026-04-05T07:33:25.132Z</time></trkpt><trkpt lat="43.4560467" lon="11.1580692"><ele>107.0</ele><time>2026-04-05T07:33:26.148Z</time></trkpt><trkpt lat="43.4559298" lon="11.1580493"><ele>107.0</ele><time>2026-04-05T07:33:28.134Z</time></trkpt><trkpt lat="43.4558155" lon="11.158044"><ele>106.99999999999999</ele><time>2026-04-05T07:33:30.145Z</time></trkpt><trkpt lat="43.4557058" lon="11.1580394"><ele>106.99999999999999</ele><time>2026-04-05T07:33:32.148Z</time></trkpt><trkpt lat="43.4556062" lon="11.1580295"><ele>107.0</ele><time>2026-04-05T07:33:34.147Z</time></trkpt><trkpt lat="43.4555196" lon="11.1580149"><ele>107.0</ele><time>2026-04-05T07:33:36.13Z</time></trkpt><trkpt lat="43.4554271" lon="11.1580115"><ele>107.16666666666666</ele><time>2026-04-05T07:33:38.135Z</time></trkpt><trkpt lat="43.455335" lon="11.1580011"><ele>107.33333333333333</ele><time>2026-04-05T07:33:40.14Z</time></trkpt><trkpt lat="43.4552648" lon="11.1579651"><ele>107.5</ele><time>2026-04-05T07:33:42.136Z</time></trkpt><trkpt lat="43.4552012" lon="11.157897"><ele>107.66666666666666</ele><time>2026-04-05T07:33:44.139Z</time></trkpt><trkpt lat="43.455144" lon="11.157823"><ele>107.83333333333333</ele><time>2026-04-05T07:33:46.132Z</time></trkpt><trkpt lat="43.4550808" lon="11.1577373"><ele>108.0</ele><time>2026-04-05T07:33:48.136Z</time></trkpt><trkpt lat="43.4550137" lon="11.1576322"><ele>108.0</ele><time>2026-04-05T07:33:50.136Z</time></trkpt><trkpt lat="43.4549344" lon="11.1575201"><ele>108.0</ele><time>2026-04-05T07:33:52.136Z</time></trkpt><trkpt lat="43.4548588" lon="11.157405"><ele>108.0</ele><time>2026-04-05T07:33:54.148Z</time></trkpt><trkpt lat="43.4547825" lon="11.1572865"><ele>108.0</ele><time>2026-04-05T07:33:56.139Z</time></trkpt><trkpt lat="43.4547042" lon="11.1571672"><ele>108.4</ele><time>2026-04-05T07:33:58.137Z</time></trkpt><trkpt lat="43.4546187" lon="11.1570526"><ele>108.80000000000001</ele><time>2026-04-05T07:34:00.143Z</time></trkpt><trkpt lat="43.4545393" lon="11.1569488"><ele>109.2</ele><time>2026-04-05T07:34:02.131Z</time></trkpt><trkpt lat="43.4544735" lon="11.1568494"><ele>109.6</ele><time>2026-04-05T07:34:04.137Z</time></trkpt><trkpt lat="43.4544066" lon="11.1567491"><ele>110.0</ele><time>2026-04-05T07:34:06.135Z</time></trkpt><trkpt lat="43.4543382" lon="11.1566463"><ele>110.0</ele><time>2026-04-05T07:34:08.136Z</time></trkpt><trkpt lat="43.4542662" lon="11.1565499"><ele>110.0</ele><time>2026-04-05T07:34:10.134Z</time></trkpt><trkpt lat="43.4541939" lon="11.1564532"><ele>110.0</ele><time>2026-04-05T07:34:12.135Z</time></trkpt><trkpt lat="43.4541211" lon="11.156354"><ele>110.0</ele><time>2026-04-05T07:34:14.137Z</time></trkpt><trkpt lat="43.4540454" lon="11.156257"><ele>110.0</ele><time>2026-04-05T07:34:16.138Z</time></trkpt><trkpt lat="43.4539725" lon="11.1561506"><ele>110.2</ele><time>2026-04-05T07:34:18.136Z</time></trkpt><trkpt lat="43.4539062" lon="11.1560536"><ele>110.4</ele><time>2026-04-05T07:34:20.141Z</time></trkpt><trkpt lat="43.453836" lon="11.1559631"><ele>110.6</ele><time>2026-04-05T07:34:22.123Z</time></trkpt><trkpt lat="43.453756" lon="11.1558709"><ele>110.8</ele><time>2026-04-05T07:34:24.131Z</time></trkpt><trkpt lat="43.4536753" lon="11.1557952"><ele>111.0</ele><time>2026-04-05T07:34:26.148Z</time></trkpt><trkpt lat="43.4536579" lon="11.1556718"><ele>110.6</ele><time>2026-04-05T07:34:28.14Z</time></trkpt><trkpt lat="43.4536882" lon="11.1555067"><ele>110.19999999999999</ele><time>2026-04-05T07:34:30.127Z</time></trkpt><trkpt lat="43.4536689" lon="11.1553581"><ele>109.80000000000001</ele><time>2026-04-05T07:34:32.124Z</time></trkpt><trkpt lat="43.4535806" lon="11.1552792"><ele>109.4</ele><time>2026-04-05T07:34:34.145Z</time></trkpt><trkpt lat="43.4534759" lon="11.1552288"><ele>109.0</ele><time>2026-04-05T07:34:36.13Z</time></trkpt><trkpt lat="43.4533782" lon="11.1551755"><ele>109.0</ele><time>2026-04-05T07:34:38.135Z</time></trkpt><trkpt lat="43.4532912" lon="11.1551098"><ele>109.0</ele><time>2026-04-05T07:34:40.128Z</time></trkpt><trkpt lat="43.4532041" lon="11.1550377"><ele>109.0</ele><time>2026-04-05T07:34:42.131Z</time></trkpt><trkpt lat="43.4531134" lon="11.1549529"><ele>109.0</ele><time>2026-04-05T07:34:44.143Z</time></trkpt><trkpt lat="43.4530249" lon="11.1548795"><ele>109.0</ele><time>2026-04-05T07:34:46.137Z</time></trkpt><trkpt lat="43.4529455" lon="11.1548047"><ele>108.83333333333334</ele><time>2026-04-05T07:34:48.134Z</time></trkpt><trkpt lat="43.4528667" lon="11.1547339"><ele>108.66666666666667</ele><time>2026-04-05T07:34:50.132Z</time></trkpt><trkpt lat="43.452799" lon="11.1546573"><ele>108.5</ele><time>2026-04-05T07:34:52.134Z</time></trkpt><trkpt lat="43.4527375" lon="11.1545698"><ele>108.33333333333334</ele><time>2026-04-05T07:34:54.139Z</time></trkpt><trkpt lat="43.4526764" lon="11.1544866"><ele>108.16666666666667</ele><time>2026-04-05T07:34:56.132Z</time></trkpt><trkpt lat="43.4526156" lon="11.1543956"><ele>108.0</ele><time>2026-04-05T07:34:58.135Z</time></trkpt><trkpt lat="43.4525788" lon="11.1542866"><ele>108.0</ele><time>2026-04-05T07:35:00.131Z</time></trkpt><trkpt lat="43.4525535" lon="11.1541721"><ele>108.00000000000001</ele><time>2026-04-05T07:35:02.14Z</time></trkpt><trkpt lat="43.4525192" lon="11.1540527"><ele>108.00000000000001</ele><time>2026-04-05T07:35:04.128Z</time></trkpt><trkpt lat="43.4524955" lon="11.1539209"><ele>108.0</ele><time>2026-04-05T07:35:06.127Z</time></trkpt><trkpt lat="43.4524703" lon="11.1538051"><ele>108.0</ele><time>2026-04-05T07:35:08.141Z</time></trkpt><trkpt lat="43.4524482" lon="11.1536941"><ele>108.0</ele><time>2026-04-05T07:35:10.139Z</time></trkpt><trkpt lat="43.4524282" lon="11.1535714"><ele>108.00000000000001</ele><time>2026-04-05T07:35:12.137Z</time></trkpt><trkpt lat="43.452411" lon="11.1534437"><ele>108.00000000000001</ele><time>2026-04-05T07:35:14.143Z</time></trkpt><trkpt lat="43.4523865" lon="11.1533251"><ele>108.0</ele><time>2026-04-05T07:35:16.135Z</time></trkpt><trkpt lat="43.4523553" lon="11.1532039"><ele>108.0</ele><time>2026-04-05T07:35:18.144Z</time></trkpt><trkpt lat="43.4523271" lon="11.1530822"><ele>108.5</ele><time>2026-04-05T07:35:20.131Z</time></trkpt><trkpt lat="43.4522951" lon="11.1529471"><ele>109.0</ele><time>2026-04-05T07:35:22.132Z</time></trkpt><trkpt lat="43.4522957" lon="11.1528284"><ele>109.5</ele><time>2026-04-05T07:35:24.14Z</time></trkpt><trkpt lat="43.4522814" lon="11.1527285"><ele>110.0</ele><time>2026-04-05T07:35:26.127Z</time></trkpt><trkpt lat="43.4522217" lon="11.1526719"><ele>110.5</ele><time>2026-04-05T07:35:28.126Z</time></trkpt><trkpt lat="43.4521397" lon="11.1526087"><ele>111.0</ele><time>2026-04-05T07:35:31.138Z</time></trkpt><trkpt lat="43.4520864" lon="11.1525601"><ele>111.33333333333333</ele><time>2026-04-05T07:35:33.13Z</time></trkpt><trkpt lat="43.4520352" lon="11.152501"><ele>111.66666666666666</ele><time>2026-04-05T07:35:35.138Z</time></trkpt><trkpt lat="43.4519779" lon="11.1524408"><ele>112.0</ele><time>2026-04-05T07:35:37.135Z</time></trkpt><trkpt lat="43.4519262" lon="11.152367"><ele>112.33333333333333</ele><time>2026-04-05T07:35:39.131Z</time></trkpt><trkpt lat="43.4518874" lon="11.152295"><ele>112.66666666666666</ele><time>2026-04-05T07:35:41.122Z</time></trkpt><trkpt lat="43.4518761" lon="11.1521509"><ele>113.0</ele><time>2026-04-05T07:35:44.137Z</time></trkpt><trkpt lat="43.4518552" lon="11.1520089"><ele>113.2</ele><time>2026-04-05T07:35:46.147Z</time></trkpt><trkpt lat="43.4518069" lon="11.1518945"><ele>113.4</ele><time>2026-04-05T07:35:48.122Z</time></trkpt><trkpt lat="43.45175" lon="11.1517986"><ele>113.60000000000001</ele><time>2026-04-05T07:35:50.131Z</time></trkpt><trkpt lat="43.4516736" lon="11.1517155"><ele>113.80000000000001</ele><time>2026-04-05T07:35:52.13Z</time></trkpt><trkpt lat="43.4515989" lon="11.1516458"><ele>114.0</ele><time>2026-04-05T07:35:54.127Z</time></trkpt><trkpt lat="43.4515328" lon="11.1515833"><ele>113.66666666666667</ele><time>2026-04-05T07:35:56.152Z</time></trkpt><trkpt lat="43.4514713" lon="11.1515106"><ele>113.33333333333334</ele><time>2026-04-05T07:35:58.128Z</time></trkpt><trkpt lat="43.4514109" lon="11.151445"><ele>113.0</ele><time>2026-04-05T07:36:00.129Z</time></trkpt><trkpt lat="43.4513512" lon="11.1513908"><ele>112.66666666666667</ele><time>2026-04-05T07:36:02.138Z</time></trkpt><trkpt lat="43.4512891" lon="11.1513414"><ele>112.33333333333334</ele><time>2026-04-05T07:36:04.136Z</time></trkpt><trkpt lat="43.4512256" lon="11.1513102"><ele>112.0</ele><time>2026-04-05T07:36:06.138Z</time></trkpt><trkpt lat="43.4511492" lon="11.1512707"><ele>111.6</ele><time>2026-04-05T07:36:08.127Z</time></trkpt><trkpt lat="43.4510684" lon="11.1512208"><ele>111.19999999999999</ele><time>2026-04-05T07:36:10.137Z</time></trkpt><trkpt lat="43.4509936" lon="11.1511332"><ele>110.8</ele><time>2026-04-05T07:36:12.142Z</time></trkpt><trkpt lat="43.4509061" lon="11.1510037"><ele>110.4</ele><time>2026-04-05T07:36:14.147Z</time></trkpt><trkpt lat="43.45086" lon="11.1509325"><ele>110.0</ele><time>2026-04-05T07:36:15.116Z</time></trkpt><trkpt lat="43.4508072" lon="11.150863"><ele>109.99999999999999</ele><time>2026-04-05T07:36:16.127Z</time></trkpt><trkpt lat="43.4507516" lon="11.150807"><ele>110.0</ele><time>2026-04-05T07:36:17.14Z</time></trkpt><trkpt lat="43.4506926" lon="11.1507661"><ele>110.0</ele><time>2026-04-05T07:36:18.133Z</time></trkpt><trkpt lat="43.4506306" lon="11.150732"><ele>110.0</ele><time>2026-04-05T07:36:19.138Z</time></trkpt><trkpt lat="43.4505693" lon="11.1507023"><ele>110.0</ele><time>2026-04-05T07:36:20.134Z</time></trkpt><trkpt lat="43.4505062" lon="11.1506768"><ele>109.99999999999999</ele><time>2026-04-05T07:36:21.14Z</time></trkpt><trkpt lat="43.4504444" lon="11.1506583"><ele>110.0</ele><time>2026-04-05T07:36:22.138Z</time></trkpt><trkpt lat="43.4503279" lon="11.1506402"><ele>110.2</ele><time>2026-04-05T07:36:24.149Z</time></trkpt><trkpt lat="43.4502154" lon="11.1506691"><ele>110.4</ele><time>2026-04-05T07:36:26.124Z</time></trkpt><trkpt lat="43.45011" lon="11.1507169"><ele>110.6</ele><time>2026-04-05T07:36:28.137Z</time></trkpt><trkpt lat="43.4500005" lon="11.1507677"><ele>110.8</ele><time>2026-04-05T07:36:30.147Z</time></trkpt><trkpt lat="43.4499463" lon="11.1508133"><ele>111.0</ele><time>2026-04-05T07:36:31.142Z</time></trkpt><trkpt lat="43.4498975" lon="11.1508732"><ele>111.0</ele><time>2026-04-05T07:36:32.125Z</time></trkpt><trkpt lat="43.4498513" lon="11.150937"><ele>111.0</ele><time>2026-04-05T07:36:33.131Z</time></trkpt><trkpt lat="43.4497653" lon="11.1510436"><ele>111.0</ele><time>2026-04-05T07:36:35.135Z</time></trkpt><trkpt lat="43.449673" lon="11.1511329"><ele>111.0</ele><time>2026-04-05T07:36:37.135Z</time></trkpt><trkpt lat="43.4495666" lon="11.1512043"><ele>111.0</ele><time>2026-04-05T07:36:39.138Z</time></trkpt><trkpt lat="43.4494689" lon="11.1512887"><ele>111.5</ele><time>2026-04-05T07:36:41.143Z</time></trkpt><trkpt lat="43.4493792" lon="11.1513788"><ele>112.0</ele><time>2026-04-05T07:36:43.132Z</time></trkpt><trkpt lat="43.4492907" lon="11.1514804"><ele>112.5</ele><time>2026-04-05T07:36:45.147Z</time></trkpt><trkpt lat="43.4492052" lon="11.1515988"><ele>113.0</ele><time>2026-04-05T07:36:47.142Z</time></trkpt><trkpt lat="43.449122" lon="11.1517159"><ele>113.0</ele><time>2026-04-05T07:36:49.13Z</time></trkpt><trkpt lat="43.4490413" lon="11.1518295"><ele>113.00000000000001</ele><time>2026-04-05T07:36:51.138Z</time></trkpt><trkpt lat="43.4489573" lon="11.1519189"><ele>113.00000000000001</ele><time>2026-04-05T07:36:53.133Z</time></trkpt><trkpt lat="43.4488618" lon="11.1519973"><ele>113.0</ele><time>2026-04-05T07:36:55.152Z</time></trkpt><trkpt lat="43.4487724" lon="11.1520754"><ele>113.0</ele><time>2026-04-05T07:36:57.137Z</time></trkpt><trkpt lat="43.4486805" lon="11.1521451"><ele>113.2</ele><time>2026-04-05T07:36:59.137Z</time></trkpt><trkpt lat="43.4485819" lon="11.1522072"><ele>113.4</ele><time>2026-04-05T07:37:01.13Z</time></trkpt><trkpt lat="43.4484783" lon="11.1522442"><ele>113.60000000000001</ele><time>2026-04-05T07:37:03.129Z</time></trkpt><trkpt lat="43.4483738" lon="11.1522737"><ele>113.80000000000001</ele><time>2026-04-05T07:37:05.131Z</time></trkpt><trkpt lat="43.4482725" lon="11.1522887"><ele>114.0</ele><time>2026-04-05T07:37:07.128Z</time></trkpt><trkpt lat="43.4481814" lon="11.1523101"><ele>114.0</ele><time>2026-04-05T07:37:09.14Z</time></trkpt><trkpt lat="43.4481047" lon="11.1523553"><ele>114.0</ele><time>2026-04-05T07:37:11.129Z</time></trkpt><trkpt lat="43.4480099" lon="11.1523673"><ele>114.0</ele><time>2026-04-05T07:37:13.129Z</time></trkpt><trkpt lat="43.4479047" lon="11.1523601"><ele>114.0</ele><time>2026-04-05T07:37:15.138Z</time></trkpt><trkpt lat="43.4477806" lon="11.1523875"><ele>114.0</ele><time>2026-04-05T07:37:17.133Z</time></trkpt><trkpt lat="43.4477154" lon="11.1524018"><ele>114.0</ele><time>2026-04-05T07:37:18.119Z</time></trkpt><trkpt lat="43.4476455" lon="11.1524118"><ele>114.0</ele><time>2026-04-05T07:37:19.143Z</time></trkpt><trkpt lat="43.4475261" lon="11.1524422"><ele>114.0</ele><time>2026-04-05T07:37:21.126Z</time></trkpt><trkpt lat="43.4474059" lon="11.1524765"><ele>114.0</ele><time>2026-04-05T07:37:23.149Z</time></trkpt><trkpt lat="43.4472842" lon="11.1525143"><ele>114.0</ele><time>2026-04-05T07:37:25.128Z</time></trkpt><trkpt lat="43.4471697" lon="11.1525441"><ele>113.5</ele><time>2026-04-05T07:37:27.132Z</time></trkpt><trkpt lat="43.4470551" lon="11.1525761"><ele>113.0</ele><time>2026-04-05T07:37:29.138Z</time></trkpt><trkpt lat="43.446941" lon="11.1526029"><ele>112.5</ele><time>2026-04-05T07:37:31.139Z</time></trkpt><trkpt lat="43.4468315" lon="11.1526278"><ele>112.0</ele><time>2026-04-05T07:37:33.125Z</time></trkpt><trkpt lat="43.4467246" lon="11.1526491"><ele>112.0</ele><time>2026-04-05T07:37:35.15Z</time></trkpt><trkpt lat="43.4466179" lon="11.152671"><ele>111.99999999999999</ele><time>2026-04-05T07:37:37.141Z</time></trkpt><trkpt lat="43.4465112" lon="11.1526929"><ele>111.99999999999999</ele><time>2026-04-05T07:37:39.127Z</time></trkpt><trkpt lat="43.446401" lon="11.1527038"><ele>112.0</ele><time>2026-04-05T07:37:41.136Z</time></trkpt><trkpt lat="43.4462941" lon="11.1526934"><ele>112.0</ele><time>2026-04-05T07:37:43.139Z</time></trkpt><trkpt lat="43.4461956" lon="11.1526685"><ele>112.0</ele><time>2026-04-05T07:37:45.134Z</time></trkpt><trkpt lat="43.4460977" lon="11.152611"><ele>112.0</ele><time>2026-04-05T07:37:47.14Z</time></trkpt><trkpt lat="43.4459948" lon="11.1525333"><ele>112.0</ele><time>2026-04-05T07:37:49.133Z</time></trkpt><trkpt lat="43.4459117" lon="11.152435"><ele>112.0</ele><time>2026-04-05T07:37:51.153Z</time></trkpt><trkpt lat="43.4458366" lon="11.1523093"><ele>112.0</ele><time>2026-04-05T07:37:53.115Z</time></trkpt><trkpt lat="43.4457618" lon="11.1521861"><ele>112.0</ele><time>2026-04-05T07:37:55.139Z</time></trkpt><trkpt lat="43.4456707" lon="11.1520918"><ele>112.0</ele><time>2026-04-05T07:37:57.125Z</time></trkpt><trkpt lat="43.4455623" lon="11.1520495"><ele>112.0</ele><time>2026-04-05T07:37:59.135Z</time></trkpt><trkpt lat="43.4454511" lon="11.1520463"><ele>112.0</ele><time>2026-04-05T07:38:01.151Z</time></trkpt><trkpt lat="43.445333" lon="11.1520493"><ele>112.0</ele><time>2026-04-05T07:38:03.138Z</time></trkpt><trkpt lat="43.4452178" lon="11.1520582"><ele>112.0</ele><time>2026-04-05T07:38:05.13Z</time></trkpt><trkpt lat="43.4450987" lon="11.1520732"><ele>112.0</ele><time>2026-04-05T07:38:07.131Z</time></trkpt><trkpt lat="43.4449867" lon="11.1520821"><ele>112.0</ele><time>2026-04-05T07:38:09.127Z</time></trkpt><trkpt lat="43.4448775" lon="11.1520837"><ele>111.99999999999999</ele><time>2026-04-05T07:38:11.128Z</time></trkpt><trkpt lat="43.4447639" lon="11.1520866"><ele>111.99999999999999</ele><time>2026-04-05T07:38:13.129Z</time></trkpt><trkpt lat="43.4446527" lon="11.1520949"><ele>112.0</ele><time>2026-04-05T07:38:15.136Z</time></trkpt><trkpt lat="43.4445463" lon="11.1521003"><ele>112.0</ele><time>2026-04-05T07:38:17.118Z</time></trkpt><trkpt lat="43.4444371" lon="11.1520995"><ele>111.8</ele><time>2026-04-05T07:38:19.135Z</time></trkpt><trkpt lat="43.4443289" lon="11.1521104"><ele>111.6</ele><time>2026-04-05T07:38:21.135Z</time></trkpt><trkpt lat="43.4442189" lon="11.1521394"><ele>111.39999999999999</ele><time>2026-04-05T07:38:23.144Z</time></trkpt><trkpt lat="43.4441265" lon="11.1522221"><ele>111.19999999999999</ele><time>2026-04-05T07:38:25.131Z</time></trkpt><trkpt lat="43.4440453" lon="11.1523373"><ele>111.0</ele><time>2026-04-05T07:38:27.132Z</time></trkpt><trkpt lat="43.4439601" lon="11.1524388"><ele>111.0</ele><time>2026-04-05T07:38:29.124Z</time></trkpt><trkpt lat="43.4438676" lon="11.1525048"><ele>111.0</ele><time>2026-04-05T07:38:31.136Z</time></trkpt><trkpt lat="43.4437605" lon="11.152531"><ele>111.0</ele><time>2026-04-05T07:38:33.123Z</time></trkpt><trkpt lat="43.4436543" lon="11.1525281"><ele>111.0</ele><time>2026-04-05T07:38:35.135Z</time></trkpt><trkpt lat="43.4435454" lon="11.152512"><ele>111.0</ele><time>2026-04-05T07:38:37.131Z</time></trkpt><trkpt lat="43.4434333" lon="11.1524956"><ele>111.0</ele><time>2026-04-05T07:38:39.139Z</time></trkpt><trkpt lat="43.4433152" lon="11.1524827"><ele>111.0</ele><time>2026-04-05T07:38:41.136Z</time></trkpt><trkpt lat="43.4432016" lon="11.1525056"><ele>111.0</ele><time>2026-04-05T07:38:43.124Z</time></trkpt><trkpt lat="43.4430953" lon="11.1525661"><ele>111.0</ele><time>2026-04-05T07:38:45.138Z</time></trkpt><trkpt lat="43.442991" lon="11.1526575"><ele>111.5</ele><time>2026-04-05T07:38:47.135Z</time></trkpt><trkpt lat="43.4429008" lon="11.1527595"><ele>112.0</ele><time>2026-04-05T07:38:49.126Z</time></trkpt><trkpt lat="43.4428246" lon="11.1528773"><ele>112.5</ele><time>2026-04-05T07:38:51.147Z</time></trkpt><trkpt lat="43.4427618" lon="11.1530064"><ele>113.0</ele><time>2026-04-05T07:38:53.135Z</time></trkpt><trkpt lat="43.4426979" lon="11.1531307"><ele>113.4</ele><time>2026-04-05T07:38:55.141Z</time></trkpt><trkpt lat="43.4426429" lon="11.1532562"><ele>113.80000000000001</ele><time>2026-04-05T07:38:57.126Z</time></trkpt><trkpt lat="43.4425777" lon="11.1533677"><ele>114.2</ele><time>2026-04-05T07:38:59.132Z</time></trkpt><trkpt lat="43.4424866" lon="11.1534305"><ele>114.6</ele><time>2026-04-05T07:39:01.139Z</time></trkpt><trkpt lat="43.4424102" lon="11.1535005"><ele>115.0</ele><time>2026-04-05T07:39:03.129Z</time></trkpt><trkpt lat="43.4423331" lon="11.1535806"><ele>115.0</ele><time>2026-04-05T07:39:05.145Z</time></trkpt><trkpt lat="43.4422509" lon="11.1536744"><ele>115.0</ele><time>2026-04-05T07:39:07.146Z</time></trkpt><trkpt lat="43.4421622" lon="11.1537622"><ele>115.0</ele><time>2026-04-05T07:39:09.13Z</time></trkpt><trkpt lat="43.4420682" lon="11.1538206"><ele>115.0</ele><time>2026-04-05T07:39:11.133Z</time></trkpt><trkpt lat="43.4419707" lon="11.1538794"><ele>115.0</ele><time>2026-04-05T07:39:13.127Z</time></trkpt><trkpt lat="43.4418776" lon="11.1539312"><ele>114.8</ele><time>2026-04-05T07:39:15.133Z</time></trkpt><trkpt lat="43.441777" lon="11.1539741"><ele>114.6</ele><time>2026-04-05T07:39:17.138Z</time></trkpt><trkpt lat="43.4416811" lon="11.1539965"><ele>114.4</ele><time>2026-04-05T07:39:19.133Z</time></trkpt><trkpt lat="43.4415894" lon="11.154012"><ele>114.2</ele><time>2026-04-05T07:39:21.138Z</time></trkpt><trkpt lat="43.4415051" lon="11.1539946"><ele>114.0</ele><time>2026-04-05T07:39:23.148Z</time></trkpt><trkpt lat="43.4414298" lon="11.153927"><ele>114.0</ele><time>2026-04-05T07:39:25.144Z</time></trkpt><trkpt lat="43.4413598" lon="11.1538261"><ele>114.0</ele><time>2026-04-05T07:39:27.136Z</time></trkpt><trkpt lat="43.441288" lon="11.1537211"><ele>114.0</ele><time>2026-04-05T07:39:29.143Z</time></trkpt><trkpt lat="43.4412104" lon="11.1536134"><ele>114.0</ele><time>2026-04-05T07:39:31.132Z</time></trkpt><trkpt lat="43.441125" lon="11.1535191"><ele>114.0</ele><time>2026-04-05T07:39:33.115Z</time></trkpt><trkpt lat="43.4410242" lon="11.1534829"><ele>114.2</ele><time>2026-04-05T07:39:35.119Z</time></trkpt><trkpt lat="43.440913" lon="11.1534749"><ele>114.4</ele><time>2026-04-05T07:39:37.133Z</time></trkpt><trkpt lat="43.4408034" lon="11.1534821"><ele>114.6</ele><time>2026-04-05T07:39:39.142Z</time></trkpt><trkpt lat="43.440701" lon="11.153496"><ele>114.8</ele><time>2026-04-05T07:39:41.128Z</time></trkpt><trkpt lat="43.4405981" lon="11.1535175"><ele>115.0</ele><time>2026-04-05T07:39:43.131Z</time></trkpt><trkpt lat="43.4404985" lon="11.1535518"><ele>115.2</ele><time>2026-04-05T07:39:45.152Z</time></trkpt><trkpt lat="43.4404117" lon="11.1535978"><ele>115.4</ele><time>2026-04-05T07:39:47.135Z</time></trkpt><trkpt lat="43.4403313" lon="11.1536617"><ele>115.6</ele><time>2026-04-05T07:39:49.127Z</time></trkpt><trkpt lat="43.4402555" lon="11.1537279"><ele>115.8</ele><time>2026-04-05T07:39:51.131Z</time></trkpt><trkpt lat="43.4401722" lon="11.1537849"><ele>116.0</ele><time>2026-04-05T07:39:53.126Z</time></trkpt><trkpt lat="43.4400835" lon="11.1538456"><ele>116.0</ele><time>2026-04-05T07:39:55.131Z</time></trkpt><trkpt lat="43.4399964" lon="11.1539132"><ele>116.0</ele><time>2026-04-05T07:39:57.138Z</time></trkpt><trkpt lat="43.43991" lon="11.1539822"><ele>116.0</ele><time>2026-04-05T07:39:59.14Z</time></trkpt><trkpt lat="43.439827" lon="11.15406"><ele>116.0</ele><time>2026-04-05T07:40:01.117Z</time></trkpt><trkpt lat="43.4397383" lon="11.154136"><ele>116.0</ele><time>2026-04-05T07:40:03.131Z</time></trkpt><trkpt lat="43.4396487" lon="11.1542082"><ele>116.4</ele><time>2026-04-05T07:40:05.128Z</time></trkpt><trkpt lat="43.4395568" lon="11.1542888"><ele>116.8</ele><time>2026-04-05T07:40:07.131Z</time></trkpt><trkpt lat="43.4394659" lon="11.1543698"><ele>117.20000000000002</ele><time>2026-04-05T07:40:09.145Z</time></trkpt><trkpt lat="43.4393771" lon="11.1544465"><ele>117.60000000000001</ele><time>2026-04-05T07:40:11.143Z</time></trkpt><trkpt lat="43.4393003" lon="11.1545331"><ele>118.0</ele><time>2026-04-05T07:40:13.134Z</time></trkpt><trkpt lat="43.4392312" lon="11.1546261"><ele>118.0</ele><time>2026-04-05T07:40:15.13Z</time></trkpt><trkpt lat="43.439158" lon="11.1547224"><ele>118.00000000000001</ele><time>2026-04-05T07:40:17.132Z</time></trkpt><trkpt lat="43.4390828" lon="11.1548366"><ele>118.00000000000001</ele><time>2026-04-05T07:40:19.135Z</time></trkpt><trkpt lat="43.439017" lon="11.154962"><ele>118.0</ele><time>2026-04-05T07:40:21.132Z</time></trkpt><trkpt lat="43.4389492" lon="11.1550703"><ele>118.0</ele><time>2026-04-05T07:40:23.13Z</time></trkpt><trkpt lat="43.4388798" lon="11.1551736"><ele>117.60000000000001</ele><time>2026-04-05T07:40:25.141Z</time></trkpt><trkpt lat="43.438811" lon="11.1552643"><ele>117.20000000000002</ele><time>2026-04-05T07:40:27.13Z</time></trkpt><trkpt lat="43.4387431" lon="11.1553715"><ele>116.8</ele><time>2026-04-05T07:40:29.138Z</time></trkpt><trkpt lat="43.4386873" lon="11.1554959"><ele>116.4</ele><time>2026-04-05T07:40:31.139Z</time></trkpt><trkpt lat="43.4386683" lon="11.1556434"><ele>116.0</ele><time>2026-04-05T07:40:33.141Z</time></trkpt><trkpt lat="43.4386789" lon="11.1557939"><ele>116.0</ele><time>2026-04-05T07:40:35.123Z</time></trkpt><trkpt lat="43.4387208" lon="11.1559328"><ele>116.0</ele><time>2026-04-05T07:40:37.138Z</time></trkpt><trkpt lat="43.4387824" lon="11.15607"><ele>116.0</ele><time>2026-04-05T07:40:39.134Z</time></trkpt><trkpt lat="43.438838" lon="11.1561995"><ele>116.0</ele><time>2026-04-05T07:40:41.131Z</time></trkpt><trkpt lat="43.4388962" lon="11.1563328"><ele>116.0</ele><time>2026-04-05T07:40:43.134Z</time></trkpt><trkpt lat="43.4389507" lon="11.1564632"><ele>116.19999999999999</ele><time>2026-04-05T07:40:45.147Z</time></trkpt><trkpt lat="43.4389995" lon="11.1565947"><ele>116.39999999999999</ele><time>2026-04-05T07:40:47.124Z</time></trkpt><trkpt lat="43.4390317" lon="11.1567264"><ele>116.6</ele><time>2026-04-05T07:40:49.124Z</time></trkpt><trkpt lat="43.4390457" lon="11.156874"><ele>116.8</ele><time>2026-04-05T07:40:51.143Z</time></trkpt><trkpt lat="43.4390425" lon="11.1570228"><ele>117.0</ele><time>2026-04-05T07:40:53.149Z</time></trkpt><trkpt lat="43.4390362" lon="11.1571701"><ele>117.0</ele><time>2026-04-05T07:40:55.141Z</time></trkpt><trkpt lat="43.4390294" lon="11.1573098"><ele>116.99999999999999</ele><time>2026-04-05T07:40:57.126Z</time></trkpt><trkpt lat="43.4390192" lon="11.157441"><ele>116.99999999999999</ele><time>2026-04-05T07:40:59.133Z</time></trkpt><trkpt lat="43.4390121" lon="11.1575553"><ele>117.0</ele><time>2026-04-05T07:41:01.122Z</time></trkpt><trkpt lat="43.4390048" lon="11.1576702"><ele>117.0</ele><time>2026-04-05T07:41:03.134Z</time></trkpt><trkpt lat="43.4389841" lon="11.1577858"><ele>117.83333333333333</ele><time>2026-04-05T07:41:05.127Z</time></trkpt><trkpt lat="43.4389395" lon="11.1578731"><ele>118.66666666666666</ele><time>2026-04-05T07:41:07.133Z</time></trkpt><trkpt lat="43.4388841" lon="11.1579432"><ele>119.5</ele><time>2026-04-05T07:41:09.129Z</time></trkpt><trkpt lat="43.4388341" lon="11.1580211"><ele>120.33333333333333</ele><time>2026-04-05T07:41:11.13Z</time></trkpt><trkpt lat="43.43878" lon="11.1581116"><ele>121.16666666666666</ele><time>2026-04-05T07:41:13.126Z</time></trkpt><trkpt lat="43.4387255" lon="11.1582076"><ele>122.0</ele><time>2026-04-05T07:41:15.144Z</time></trkpt><trkpt lat="43.4386667" lon="11.1583098"><ele>122.19999999999999</ele><time>2026-04-05T07:41:17.149Z</time></trkpt><trkpt lat="43.438604" lon="11.1584112"><ele>122.39999999999999</ele><time>2026-04-05T07:41:19.142Z</time></trkpt><trkpt lat="43.4385322" lon="11.1585273"><ele>122.60000000000001</ele><time>2026-04-05T07:41:21.123Z</time></trkpt><trkpt lat="43.438462" lon="11.1586546"><ele>122.80000000000001</ele><time>2026-04-05T07:41:23.139Z</time></trkpt><trkpt lat="43.4383954" lon="11.1587813"><ele>123.0</ele><time>2026-04-05T07:41:25.125Z</time></trkpt><trkpt lat="43.438325" lon="11.1589106"><ele>123.0</ele><time>2026-04-05T07:41:27.131Z</time></trkpt><trkpt lat="43.4382575" lon="11.1590411"><ele>123.0</ele><time>2026-04-05T07:41:29.136Z</time></trkpt><trkpt lat="43.438199" lon="11.1591788"><ele>123.0</ele><time>2026-04-05T07:41:31.131Z</time></trkpt><trkpt lat="43.4381398" lon="11.1593183"><ele>123.0</ele><time>2026-04-05T07:41:33.135Z</time></trkpt><trkpt lat="43.4380833" lon="11.1594574"><ele>123.0</ele><time>2026-04-05T07:41:35.126Z</time></trkpt><trkpt lat="43.4380286" lon="11.1595998"><ele>123.0</ele><time>2026-04-05T07:41:37.12Z</time></trkpt><trkpt lat="43.4379731" lon="11.1597412"><ele>123.0</ele><time>2026-04-05T07:41:39.125Z</time></trkpt><trkpt lat="43.4379199" lon="11.1598772"><ele>123.0</ele><time>2026-04-05T07:41:41.143Z</time></trkpt><trkpt lat="43.4378672" lon="11.1600124"><ele>122.60000000000001</ele><time>2026-04-05T07:41:43.142Z</time></trkpt><trkpt lat="43.4378175" lon="11.160148"><ele>122.20000000000002</ele><time>2026-04-05T07:41:45.15Z</time></trkpt><trkpt lat="43.437769" lon="11.1602838"><ele>121.8</ele><time>2026-04-05T07:41:47.136Z</time></trkpt><trkpt lat="43.4377303" lon="11.1604234"><ele>121.4</ele><time>2026-04-05T07:41:49.127Z</time></trkpt><trkpt lat="43.4376958" lon="11.1605669"><ele>121.0</ele><time>2026-04-05T07:41:51.155Z</time></trkpt><trkpt lat="43.437661" lon="11.160714"><ele>121.0</ele><time>2026-04-05T07:41:53.127Z</time></trkpt><trkpt lat="43.43763" lon="11.1608553"><ele>121.0</ele><time>2026-04-05T07:41:55.13Z</time></trkpt><trkpt lat="43.4375966" lon="11.160995"><ele>121.0</ele><time>2026-04-05T07:41:57.14Z</time></trkpt><trkpt lat="43.4375656" lon="11.16114"><ele>121.0</ele><time>2026-04-05T07:41:59.133Z</time></trkpt><trkpt lat="43.4375443" lon="11.1612779"><ele>121.0</ele><time>2026-04-05T07:42:01.141Z</time></trkpt><trkpt lat="43.4375226" lon="11.1614181"><ele>120.75</ele><time>2026-04-05T07:42:03.134Z</time></trkpt><trkpt lat="43.4375009" lon="11.1615716"><ele>120.5</ele><time>2026-04-05T07:42:05.142Z</time></trkpt><trkpt lat="43.4374793" lon="11.1617288"><ele>120.25</ele><time>2026-04-05T07:42:07.142Z</time></trkpt><trkpt lat="43.4374614" lon="11.1618862"><ele>120.0</ele><time>2026-04-05T07:42:09.134Z</time></trkpt><trkpt lat="43.4374393" lon="11.1620384"><ele>120.0</ele><time>2026-04-05T07:42:11.134Z</time></trkpt><trkpt lat="43.437417" lon="11.1621855"><ele>120.0</ele><time>2026-04-05T07:42:13.149Z</time></trkpt><trkpt lat="43.4373959" lon="11.1623297"><ele>120.0</ele><time>2026-04-05T07:42:15.131Z</time></trkpt><trkpt lat="43.4373795" lon="11.1624758"><ele>120.0</ele><time>2026-04-05T07:42:17.148Z</time></trkpt><trkpt lat="43.4373609" lon="11.1626201"><ele>120.0</ele><time>2026-04-05T07:42:19.127Z</time></trkpt><trkpt lat="43.4373471" lon="11.1627636"><ele>120.4</ele><time>2026-04-05T07:42:21.129Z</time></trkpt><trkpt lat="43.4373348" lon="11.162908"><ele>120.8</ele><time>2026-04-05T07:42:23.144Z</time></trkpt><trkpt lat="43.4373265" lon="11.1630482"><ele>121.19999999999999</ele><time>2026-04-05T07:42:25.146Z</time></trkpt><trkpt lat="43.4373254" lon="11.1631869"><ele>121.6</ele><time>2026-04-05T07:42:27.139Z</time></trkpt><trkpt lat="43.437323" lon="11.1633344"><ele>122.0</ele><time>2026-04-05T07:42:29.131Z</time></trkpt><trkpt lat="43.437324" lon="11.1634842"><ele>122.0</ele><time>2026-04-05T07:42:31.13Z</time></trkpt><trkpt lat="43.4373265" lon="11.1636368"><ele>121.99999999999999</ele><time>2026-04-05T07:42:33.127Z</time></trkpt><trkpt lat="43.4373273" lon="11.1637857"><ele>121.99999999999999</ele><time>2026-04-05T07:42:35.142Z</time></trkpt><trkpt lat="43.4373366" lon="11.1639363"><ele>122.0</ele><time>2026-04-05T07:42:37.143Z</time></trkpt><trkpt lat="43.4373564" lon="11.1640791"><ele>122.0</ele><time>2026-04-05T07:42:39.14Z</time></trkpt><trkpt lat="43.4373877" lon="11.1642195"><ele>122.0</ele><time>2026-04-05T07:42:41.145Z</time></trkpt><trkpt lat="43.437424" lon="11.1643611"><ele>121.99999999999999</ele><time>2026-04-05T07:42:43.139Z</time></trkpt><trkpt lat="43.4374565" lon="11.1645004"><ele>121.99999999999999</ele><time>2026-04-05T07:42:45.129Z</time></trkpt><trkpt lat="43.4374903" lon="11.1646381"><ele>122.0</ele><time>2026-04-05T07:42:47.146Z</time></trkpt><trkpt lat="43.4375264" lon="11.1647768"><ele>122.0</ele><time>2026-04-05T07:42:49.139Z</time></trkpt><trkpt lat="43.4375737" lon="11.1649147"><ele>122.0</ele><time>2026-04-05T07:42:51.132Z</time></trkpt><trkpt lat="43.4376204" lon="11.1650525"><ele>121.99999999999999</ele><time>2026-04-05T07:42:53.14Z</time></trkpt><trkpt lat="43.4376768" lon="11.1651784"><ele>121.99999999999999</ele><time>2026-04-05T07:42:55.146Z</time></trkpt><trkpt lat="43.437741" lon="11.1652927"><ele>122.0</ele><time>2026-04-05T07:42:57.138Z</time></trkpt><trkpt lat="43.4377989" lon="11.1653956"><ele>122.0</ele><time>2026-04-05T07:42:59.145Z</time></trkpt><trkpt lat="43.43786" lon="11.1654996"><ele>122.0</ele><time>2026-04-05T07:43:01.14Z</time></trkpt><trkpt lat="43.4379127" lon="11.1656043"><ele>121.99999999999999</ele><time>2026-04-05T07:43:03.149Z</time></trkpt><trkpt lat="43.4379543" lon="11.1657164"><ele>121.99999999999999</ele><time>2026-04-05T07:43:05.118Z</time></trkpt><trkpt lat="43.4380044" lon="11.1658239"><ele>122.0</ele><time>2026-04-05T07:43:07.124Z</time></trkpt><trkpt lat="43.4380532" lon="11.1659295"><ele>122.0</ele><time>2026-04-05T07:43:09.14Z</time></trkpt><trkpt lat="43.4381076" lon="11.1660292"><ele>122.66666666666666</ele><time>2026-04-05T07:43:11.134Z</time></trkpt><trkpt lat="43.4381615" lon="11.166125"><ele>123.33333333333333</ele><time>2026-04-05T07:43:13.144Z</time></trkpt><trkpt lat="43.4382315" lon="11.1662136"><ele>124.0</ele><time>2026-04-05T07:43:15.134Z</time></trkpt><trkpt lat="43.4383004" lon="11.1662875"><ele>124.66666666666666</ele><time>2026-04-05T07:43:17.136Z</time></trkpt><trkpt lat="43.4383578" lon="11.166342"><ele>125.33333333333333</ele><time>2026-04-05T07:43:19.144Z</time></trkpt><trkpt lat="43.4384293" lon="11.1664202"><ele>126.0</ele><time>2026-04-05T07:43:22.143Z</time></trkpt><trkpt lat="43.4384991" lon="11.1665089"><ele>125.66666666666667</ele><time>2026-04-05T07:43:25.136Z</time></trkpt><trkpt lat="43.4385535" lon="11.1665589"><ele>125.33333333333334</ele><time>2026-04-05T07:43:27.126Z</time></trkpt><trkpt lat="43.438614" lon="11.1666005"><ele>125.0</ele><time>2026-04-05T07:43:29.124Z</time></trkpt><trkpt lat="43.4386783" lon="11.1666511"><ele>124.66666666666667</ele><time>2026-04-05T07:43:31.126Z</time></trkpt><trkpt lat="43.4387506" lon="11.1667032"><ele>124.33333333333334</ele><time>2026-04-05T07:43:33.138Z</time></trkpt><trkpt lat="43.4388326" lon="11.1667705"><ele>124.0</ele><time>2026-04-05T07:43:35.136Z</time></trkpt><trkpt lat="43.438919" lon="11.166841"><ele>125.25</ele><time>2026-04-05T07:43:37.143Z</time></trkpt><trkpt lat="43.4390087" lon="11.1669291"><ele>126.5</ele><time>2026-04-05T07:43:39.151Z</time></trkpt><trkpt lat="43.4391124" lon="11.1670217"><ele>127.75</ele><time>2026-04-05T07:43:41.136Z</time></trkpt><trkpt lat="43.4392251" lon="11.1670771"><ele>129.0</ele><time>2026-04-05T07:43:43.15Z</time></trkpt><trkpt lat="43.4393133" lon="11.16713"><ele>129.0</ele><time>2026-04-05T07:43:45.121Z</time></trkpt><trkpt lat="43.4393777" lon="11.1671826"><ele>129.0</ele><time>2026-04-05T07:43:47.135Z</time></trkpt><trkpt lat="43.4394261" lon="11.1672394"><ele>129.0</ele><time>2026-04-05T07:43:49.156Z</time></trkpt><trkpt lat="43.43949" lon="11.1673083"><ele>129.0</ele><time>2026-04-05T07:43:51.133Z</time></trkpt><trkpt lat="43.4395822" lon="11.167431"><ele>129.0</ele><time>2026-04-05T07:43:53.138Z</time></trkpt><trkpt lat="43.4396423" lon="11.1675051"><ele>129.0</ele><time>2026-04-05T07:43:54.135Z</time></trkpt><trkpt lat="43.4397059" lon="11.1675848"><ele>128.83333333333334</ele><time>2026-04-05T07:43:55.124Z</time></trkpt><trkpt lat="43.4397714" lon="11.1676641"><ele>128.66666666666666</ele><time>2026-04-05T07:43:56.133Z</time></trkpt><trkpt lat="43.4398337" lon="11.1677534"><ele>128.5</ele><time>2026-04-05T07:43:57.126Z</time></trkpt><trkpt lat="43.4398861" lon="11.1678491"><ele>128.33333333333331</ele><time>2026-04-05T07:43:58.12Z</time></trkpt><trkpt lat="43.4399135" lon="11.1679475"><ele>128.16666666666666</ele><time>2026-04-05T07:43:59.143Z</time></trkpt><trkpt lat="43.4399298" lon="11.1680464"><ele>128.0</ele><time>2026-04-05T07:44:00.13Z</time></trkpt><trkpt lat="43.4399523" lon="11.1681435"><ele>127.0</ele><time>2026-04-05T07:44:01.144Z</time></trkpt><trkpt lat="43.4399939" lon="11.1682179"><ele>126.00000000000001</ele><time>2026-04-05T07:44:02.132Z</time></trkpt><trkpt lat="43.4400342" lon="11.1682891"><ele>125.00000000000001</ele><time>2026-04-05T07:44:03.133Z</time></trkpt><trkpt lat="43.440108" lon="11.1684241"><ele>124.0</ele><time>2026-04-05T07:44:05.138Z</time></trkpt><trkpt lat="43.4401795" lon="11.168562"><ele>123.0</ele><time>2026-04-05T07:44:07.132Z</time></trkpt><trkpt lat="43.4402447" lon="11.1686867"><ele>123.0</ele><time>2026-04-05T07:44:09.126Z</time></trkpt><trkpt lat="43.4403006" lon="11.1688138"><ele>123.00000000000001</ele><time>2026-04-05T07:44:11.142Z</time></trkpt><trkpt lat="43.440359" lon="11.1689368"><ele>123.00000000000001</ele><time>2026-04-05T07:44:13.135Z</time></trkpt><trkpt lat="43.4404115" lon="11.1690651"><ele>123.0</ele><time>2026-04-05T07:44:15.152Z</time></trkpt><trkpt lat="43.4404609" lon="11.1691991"><ele>123.0</ele><time>2026-04-05T07:44:17.123Z</time></trkpt><trkpt lat="43.4405097" lon="11.1693421"><ele>123.60000000000001</ele><time>2026-04-05T07:44:19.13Z</time></trkpt><trkpt lat="43.4405589" lon="11.1694901"><ele>124.20000000000002</ele><time>2026-04-05T07:44:21.124Z</time></trkpt><trkpt lat="43.4406176" lon="11.1696253"><ele>124.8</ele><time>2026-04-05T07:44:23.124Z</time></trkpt><trkpt lat="43.4406721" lon="11.1697551"><ele>125.4</ele><time>2026-04-05T07:44:25.129Z</time></trkpt><trkpt lat="43.440714" lon="11.1698902"><ele>126.0</ele><time>2026-04-05T07:44:27.125Z</time></trkpt><trkpt lat="43.440757" lon="11.1700213"><ele>126.0</ele><time>2026-04-05T07:44:29.158Z</time></trkpt><trkpt lat="43.4407951" lon="11.170153"><ele>126.0</ele><time>2026-04-05T07:44:31.134Z</time></trkpt><trkpt lat="43.4408336" lon="11.1702889"><ele>126.0</ele><time>2026-04-05T07:44:33.123Z</time></trkpt><trkpt lat="43.4408645" lon="11.1704339"><ele>126.0</ele><time>2026-04-05T07:44:35.134Z</time></trkpt><trkpt lat="43.4408551" lon="11.1705981"><ele>126.0</ele><time>2026-04-05T07:44:37.135Z</time></trkpt><trkpt lat="43.4408312" lon="11.1707552"><ele>125.5</ele><time>2026-04-05T07:44:39.147Z</time></trkpt><trkpt lat="43.440819" lon="11.1709141"><ele>125.0</ele><time>2026-04-05T07:44:41.141Z</time></trkpt><trkpt lat="43.4408114" lon="11.1710754"><ele>124.5</ele><time>2026-04-05T07:44:43.14Z</time></trkpt><trkpt lat="43.4408012" lon="11.1712358"><ele>124.0</ele><time>2026-04-05T07:44:45.125Z</time></trkpt><trkpt lat="43.4407801" lon="11.1713912"><ele>123.80000000000001</ele><time>2026-04-05T07:44:47.162Z</time></trkpt><trkpt lat="43.440752" lon="11.1715376"><ele>123.60000000000001</ele><time>2026-04-05T07:44:49.126Z</time></trkpt><trkpt lat="43.4406972" lon="11.1716846"><ele>123.4</ele><time>2026-04-05T07:44:51.13Z</time></trkpt><trkpt lat="43.4406401" lon="11.1718218"><ele>123.2</ele><time>2026-04-05T07:44:53.134Z</time></trkpt><trkpt lat="43.4405737" lon="11.1719259"><ele>123.0</ele><time>2026-04-05T07:44:55.126Z</time></trkpt><trkpt lat="43.4405057" lon="11.1720121"><ele>123.2</ele><time>2026-04-05T07:44:57.137Z</time></trkpt><trkpt lat="43.4404291" lon="11.1720985"><ele>123.4</ele><time>2026-04-05T07:44:59.139Z</time></trkpt><trkpt lat="43.4403533" lon="11.1721855"><ele>123.60000000000001</ele><time>2026-04-05T07:45:01.132Z</time></trkpt><trkpt lat="43.4402805" lon="11.1722739"><ele>123.80000000000001</ele><time>2026-04-05T07:45:03.132Z</time></trkpt><trkpt lat="43.4402054" lon="11.1723633"><ele>124.0</ele><time>2026-04-05T07:45:05.121Z</time></trkpt><trkpt lat="43.4401286" lon="11.1724478"><ele>123.4</ele><time>2026-04-05T07:45:07.134Z</time></trkpt><trkpt lat="43.4400567" lon="11.1725336"><ele>122.80000000000001</ele><time>2026-04-05T07:45:09.132Z</time></trkpt><trkpt lat="43.4399791" lon="11.1726161"><ele>122.19999999999999</ele><time>2026-04-05T07:45:11.135Z</time></trkpt><trkpt lat="43.4398943" lon="11.1726922"><ele>121.6</ele><time>2026-04-05T07:45:13.134Z</time></trkpt><trkpt lat="43.4398115" lon="11.1727731"><ele>121.0</ele><time>2026-04-05T07:45:15.136Z</time></trkpt><trkpt lat="43.4397284" lon="11.1728575"><ele>121.0</ele><time>2026-04-05T07:45:17.134Z</time></trkpt><trkpt lat="43.4396376" lon="11.1729303"><ele>121.0</ele><time>2026-04-05T07:45:19.128Z</time></trkpt><trkpt lat="43.4395438" lon="11.1729875"><ele>121.0</ele><time>2026-04-05T07:45:21.13Z</time></trkpt><trkpt lat="43.4394598" lon="11.1730665"><ele>121.0</ele><time>2026-04-05T07:45:23.134Z</time></trkpt><trkpt lat="43.4394044" lon="11.1732023"><ele>121.0</ele><time>2026-04-05T07:45:25.135Z</time></trkpt><trkpt lat="43.4393866" lon="11.1733545"><ele>121.4</ele><time>2026-04-05T07:45:27.14Z</time></trkpt><trkpt lat="43.439389" lon="11.1735021"><ele>121.8</ele><time>2026-04-05T07:45:29.128Z</time></trkpt><trkpt lat="43.4394181" lon="11.1736397"><ele>122.20000000000002</ele><time>2026-04-05T07:45:31.138Z</time></trkpt><trkpt lat="43.439471" lon="11.1737854"><ele>122.60000000000001</ele><time>2026-04-05T07:45:33.141Z</time></trkpt><trkpt lat="43.4395154" lon="11.1739321"><ele>123.0</ele><time>2026-04-05T07:45:35.141Z</time></trkpt><trkpt lat="43.4395383" lon="11.1740792"><ele>123.0</ele><time>2026-04-05T07:45:37.143Z</time></trkpt><trkpt lat="43.4395759" lon="11.1742229"><ele>123.00000000000001</ele><time>2026-04-05T07:45:39.146Z</time></trkpt><trkpt lat="43.4396116" lon="11.1743661"><ele>123.00000000000001</ele><time>2026-04-05T07:45:41.138Z</time></trkpt><trkpt lat="43.4396224" lon="11.1745185"><ele>123.0</ele><time>2026-04-05T07:45:43.126Z</time></trkpt><trkpt lat="43.4396252" lon="11.1746617"><ele>123.0</ele><time>2026-04-05T07:45:45.144Z</time></trkpt><trkpt lat="43.439615" lon="11.174805"><ele>123.25</ele><time>2026-04-05T07:45:47.143Z</time></trkpt><trkpt lat="43.4395915" lon="11.1749561"><ele>123.5</ele><time>2026-04-05T07:45:49.155Z</time></trkpt><trkpt lat="43.4395513" lon="11.1751066"><ele>123.75</ele><time>2026-04-05T07:45:51.144Z</time></trkpt><trkpt lat="43.4395104" lon="11.1752547"><ele>124.0</ele><time>2026-04-05T07:45:53.132Z</time></trkpt><trkpt lat="43.4394712" lon="11.175407"><ele>124.0</ele><time>2026-04-05T07:45:55.13Z</time></trkpt><trkpt lat="43.439437" lon="11.1755579"><ele>124.0</ele><time>2026-04-05T07:45:57.146Z</time></trkpt><trkpt lat="43.4394015" lon="11.1757027"><ele>124.0</ele><time>2026-04-05T07:45:59.126Z</time></trkpt><trkpt lat="43.4393685" lon="11.1758429"><ele>124.0</ele><time>2026-04-05T07:46:01.135Z</time></trkpt><trkpt lat="43.4393361" lon="11.1759803"><ele>124.0</ele><time>2026-04-05T07:46:03.146Z</time></trkpt><trkpt lat="43.4393062" lon="11.1761218"><ele>123.80000000000001</ele><time>2026-04-05T07:46:05.127Z</time></trkpt><trkpt lat="43.439281" lon="11.1762707"><ele>123.60000000000001</ele><time>2026-04-05T07:46:07.141Z</time></trkpt><trkpt lat="43.4392623" lon="11.1764214"><ele>123.4</ele><time>2026-04-05T07:46:09.144Z</time></trkpt><trkpt lat="43.4392392" lon="11.1765749"><ele>123.2</ele><time>2026-04-05T07:46:11.147Z</time></trkpt><trkpt lat="43.439217" lon="11.1767238"><ele>123.0</ele><time>2026-04-05T07:46:13.138Z</time></trkpt><trkpt lat="43.4391952" lon="11.1768689"><ele>123.2</ele><time>2026-04-05T07:46:15.128Z</time></trkpt><trkpt lat="43.4391868" lon="11.1770104"><ele>123.4</ele><time>2026-04-05T07:46:17.154Z</time></trkpt><trkpt lat="43.4391907" lon="11.1771632"><ele>123.60000000000001</ele><time>2026-04-05T07:46:19.152Z</time></trkpt><trkpt lat="43.4392137" lon="11.1773083"><ele>123.80000000000001</ele><time>2026-04-05T07:46:21.135Z</time></trkpt><trkpt lat="43.4392414" lon="11.1774573"><ele>124.0</ele><time>2026-04-05T07:46:23.138Z</time></trkpt><trkpt lat="43.4392685" lon="11.1775956"><ele>124.0</ele><time>2026-04-05T07:46:25.157Z</time></trkpt><trkpt lat="43.4392898" lon="11.1777397"><ele>124.0</ele><time>2026-04-05T07:46:27.151Z</time></trkpt><trkpt lat="43.4393041" lon="11.1778818"><ele>124.0</ele><time>2026-04-05T07:46:29.143Z</time></trkpt><trkpt lat="43.439304" lon="11.1780183"><ele>124.0</ele><time>2026-04-05T07:46:31.138Z</time></trkpt><trkpt lat="43.4392946" lon="11.1781445"><ele>124.0</ele><time>2026-04-05T07:46:33.152Z</time></trkpt><trkpt lat="43.4392569" lon="11.1782753"><ele>124.2</ele><time>2026-04-05T07:46:35.15Z</time></trkpt><trkpt lat="43.4392025" lon="11.1783912"><ele>124.4</ele><time>2026-04-05T07:46:37.127Z</time></trkpt><trkpt lat="43.4391379" lon="11.1784981"><ele>124.6</ele><time>2026-04-05T07:46:39.13Z</time></trkpt><trkpt lat="43.43906" lon="11.1786072"><ele>124.8</ele><time>2026-04-05T07:46:41.135Z</time></trkpt><trkpt lat="43.4389845" lon="11.1787163"><ele>125.0</ele><time>2026-04-05T07:46:43.144Z</time></trkpt><trkpt lat="43.4389188" lon="11.1788287"><ele>125.0</ele><time>2026-04-05T07:46:45.14Z</time></trkpt><trkpt lat="43.4388516" lon="11.1789413"><ele>125.0</ele><time>2026-04-05T07:46:47.127Z</time></trkpt><trkpt lat="43.4387758" lon="11.1790402"><ele>125.0</ele><time>2026-04-05T07:46:49.142Z</time></trkpt><trkpt lat="43.4386829" lon="11.1791226"><ele>125.0</ele><time>2026-04-05T07:46:51.134Z</time></trkpt><trkpt lat="43.4385879" lon="11.1791884"><ele>125.0</ele><time>2026-04-05T07:46:53.16Z</time></trkpt><trkpt lat="43.4385022" lon="11.1792188"><ele>125.0</ele><time>2026-04-05T07:46:55.15Z</time></trkpt><trkpt lat="43.4384298" lon="11.1792422"><ele>125.0</ele><time>2026-04-05T07:46:57.131Z</time></trkpt><trkpt lat="43.4383315" lon="11.1792631"><ele>125.0</ele><time>2026-04-05T07:46:59.14Z</time></trkpt><trkpt lat="43.4382292" lon="11.1792737"><ele>125.0</ele><time>2026-04-05T07:47:01.138Z</time></trkpt><trkpt lat="43.4381195" lon="11.1792792"><ele>125.0</ele><time>2026-04-05T07:47:03.137Z</time></trkpt><trkpt lat="43.4379991" lon="11.1792595"><ele>125.2</ele><time>2026-04-05T07:47:05.131Z</time></trkpt><trkpt lat="43.4379357" lon="11.1792413"><ele>125.4</ele><time>2026-04-05T07:47:06.132Z</time></trkpt><trkpt lat="43.4378205" lon="11.1791885"><ele>125.6</ele><time>2026-04-05T07:47:08.126Z</time></trkpt><trkpt lat="43.4377132" lon="11.1791355"><ele>125.8</ele><time>2026-04-05T07:47:10.136Z</time></trkpt><trkpt lat="43.4376099" lon="11.1790829"><ele>126.0</ele><time>2026-04-05T07:47:12.136Z</time></trkpt><trkpt lat="43.4375045" lon="11.1790441"><ele>126.0</ele><time>2026-04-05T07:47:14.135Z</time></trkpt><trkpt lat="43.4373937" lon="11.1790039"><ele>126.0</ele><time>2026-04-05T07:47:16.139Z</time></trkpt><trkpt lat="43.4372912" lon="11.1789613"><ele>126.0</ele><time>2026-04-05T07:47:18.142Z</time></trkpt><trkpt lat="43.4371986" lon="11.1789222"><ele>126.0</ele><time>2026-04-05T07:47:20.139Z</time></trkpt><trkpt lat="43.4371032" lon="11.1788857"><ele>126.0</ele><time>2026-04-05T07:47:22.138Z</time></trkpt><trkpt lat="43.4370113" lon="11.1788424"><ele>126.4</ele><time>2026-04-05T07:47:24.153Z</time></trkpt><trkpt lat="43.4369229" lon="11.178793"><ele>126.8</ele><time>2026-04-05T07:47:26.14Z</time></trkpt><trkpt lat="43.4368306" lon="11.1787412"><ele>127.20000000000002</ele><time>2026-04-05T07:47:28.124Z</time></trkpt><trkpt lat="43.436727" lon="11.1786998"><ele>127.60000000000001</ele><time>2026-04-05T07:47:30.142Z</time></trkpt><trkpt lat="43.4366237" lon="11.1786662"><ele>128.0</ele><time>2026-04-05T07:47:32.13Z</time></trkpt><trkpt lat="43.436532" lon="11.1786417"><ele>128.0</ele><time>2026-04-05T07:47:34.131Z</time></trkpt><trkpt lat="43.4364404" lon="11.1786136"><ele>128.0</ele><time>2026-04-05T07:47:36.14Z</time></trkpt><trkpt lat="43.4363448" lon="11.1785876"><ele>128.0</ele><time>2026-04-05T07:47:38.144Z</time></trkpt><trkpt lat="43.4362444" lon="11.1785724"><ele>128.0</ele><time>2026-04-05T07:47:40.137Z</time></trkpt><trkpt lat="43.4361358" lon="11.1785688"><ele>128.0</ele><time>2026-04-05T07:47:42.15Z</time></trkpt><trkpt lat="43.4360226" lon="11.1785689"><ele>129.20000000000002</ele><time>2026-04-05T07:47:44.129Z</time></trkpt><trkpt lat="43.4359077" lon="11.178587"><ele>130.4</ele><time>2026-04-05T07:47:46.151Z</time></trkpt><trkpt lat="43.4358029" lon="11.1786088"><ele>131.60000000000002</ele><time>2026-04-05T07:47:48.133Z</time></trkpt><trkpt lat="43.4357061" lon="11.1786247"><ele>132.8</ele><time>2026-04-05T07:47:50.136Z</time></trkpt><trkpt lat="43.4356043" lon="11.1786395"><ele>134.0</ele><time>2026-04-05T07:47:52.131Z</time></trkpt><trkpt lat="43.4354948" lon="11.1786507"><ele>133.2</ele><time>2026-04-05T07:47:54.137Z</time></trkpt><trkpt lat="43.435384" lon="11.1786639"><ele>132.4</ele><time>2026-04-05T07:47:56.136Z</time></trkpt><trkpt lat="43.4352752" lon="11.1786782"><ele>131.6</ele><time>2026-04-05T07:47:58.147Z</time></trkpt><trkpt lat="43.4351709" lon="11.1786974"><ele>130.8</ele><time>2026-04-05T07:48:00.131Z</time></trkpt><trkpt lat="43.4350639" lon="11.1787267"><ele>130.0</ele><time>2026-04-05T07:48:02.146Z</time></trkpt><trkpt lat="43.4349523" lon="11.1787482"><ele>130.0</ele><time>2026-04-05T07:48:04.135Z</time></trkpt><trkpt lat="43.434845" lon="11.1787628"><ele>130.0</ele><time>2026-04-05T07:48:06.137Z</time></trkpt><trkpt lat="43.4347395" lon="11.1787796"><ele>130.0</ele><time>2026-04-05T07:48:08.126Z</time></trkpt><trkpt lat="43.4346251" lon="11.1787973"><ele>130.0</ele><time>2026-04-05T07:48:10.124Z</time></trkpt><trkpt lat="43.4345122" lon="11.1788141"><ele>130.0</ele><time>2026-04-05T07:48:12.132Z</time></trkpt><trkpt lat="43.4344013" lon="11.1788263"><ele>129.75</ele><time>2026-04-05T07:48:14.139Z</time></trkpt><trkpt lat="43.4342928" lon="11.1788405"><ele>129.5</ele><time>2026-04-05T07:48:16.122Z</time></trkpt><trkpt lat="43.4341723" lon="11.1788586"><ele>129.25</ele><time>2026-04-05T07:48:18.14Z</time></trkpt><trkpt lat="43.4340513" lon="11.1788704"><ele>129.0</ele><time>2026-04-05T07:48:20.128Z</time></trkpt><trkpt lat="43.4339325" lon="11.1788684"><ele>129.0</ele><time>2026-04-05T07:48:22.128Z</time></trkpt><trkpt lat="43.4338214" lon="11.1788623"><ele>129.0</ele><time>2026-04-05T07:48:24.128Z</time></trkpt><trkpt lat="43.4337216" lon="11.1788454"><ele>129.0</ele><time>2026-04-05T07:48:26.127Z</time></trkpt><trkpt lat="43.433628" lon="11.1787843"><ele>129.0</ele><time>2026-04-05T07:48:28.137Z</time></trkpt><trkpt lat="43.4335352" lon="11.1786949"><ele>129.0</ele><time>2026-04-05T07:48:30.137Z</time></trkpt><trkpt lat="43.4334429" lon="11.1786119"><ele>129.25</ele><time>2026-04-05T07:48:32.14Z</time></trkpt><trkpt lat="43.4333313" lon="11.1785694"><ele>129.5</ele><time>2026-04-05T07:48:34.138Z</time></trkpt><trkpt lat="43.4332083" lon="11.1785751"><ele>129.75</ele><time>2026-04-05T07:48:36.134Z</time></trkpt><trkpt lat="43.4331001" lon="11.1786181"><ele>130.0</ele><time>2026-04-05T07:48:38.143Z</time></trkpt><trkpt lat="43.4330017" lon="11.1786788"><ele>130.0</ele><time>2026-04-05T07:48:40.129Z</time></trkpt><trkpt lat="43.4329074" lon="11.1787514"><ele>130.0</ele><time>2026-04-05T07:48:42.119Z</time></trkpt><trkpt lat="43.4328247" lon="11.178832"><ele>130.0</ele><time>2026-04-05T07:48:44.143Z</time></trkpt><trkpt lat="43.4327474" lon="11.1789158"><ele>130.0</ele><time>2026-04-05T07:48:46.12Z</time></trkpt><trkpt lat="43.4326723" lon="11.1789863"><ele>130.0</ele><time>2026-04-05T07:48:48.135Z</time></trkpt><trkpt lat="43.432591" lon="11.1790229"><ele>130.6</ele><time>2026-04-05T07:48:50.142Z</time></trkpt><trkpt lat="43.4324966" lon="11.1790169"><ele>131.2</ele><time>2026-04-05T07:48:52.128Z</time></trkpt><trkpt lat="43.4324025" lon="11.1790088"><ele>131.8</ele><time>2026-04-05T07:48:54.141Z</time></trkpt><trkpt lat="43.4323062" lon="11.1789947"><ele>132.4</ele><time>2026-04-05T07:48:56.139Z</time></trkpt><trkpt lat="43.4322166" lon="11.1789623"><ele>133.0</ele><time>2026-04-05T07:48:58.166Z</time></trkpt><trkpt lat="43.4321359" lon="11.1789291"><ele>133.0</ele><time>2026-04-05T07:49:00.138Z</time></trkpt><trkpt lat="43.4320595" lon="11.1788894"><ele>133.0</ele><time>2026-04-05T07:49:02.127Z</time></trkpt><trkpt lat="43.4319887" lon="11.1788354"><ele>133.0</ele><time>2026-04-05T07:49:04.134Z</time></trkpt><trkpt lat="43.431918" lon="11.1787594"><ele>133.0</ele><time>2026-04-05T07:49:06.136Z</time></trkpt><trkpt lat="43.4318449" lon="11.1786748"><ele>133.0</ele><time>2026-04-05T07:49:08.146Z</time></trkpt><trkpt lat="43.4317492" lon="11.178594"><ele>133.0</ele><time>2026-04-05T07:49:10.116Z</time></trkpt><trkpt lat="43.4316914" lon="11.1785583"><ele>133.0</ele><time>2026-04-05T07:49:11.124Z</time></trkpt><trkpt lat="43.4316295" lon="11.1785199"><ele>133.0</ele><time>2026-04-05T07:49:12.126Z</time></trkpt><trkpt lat="43.4315722" lon="11.1784834"><ele>133.0</ele><time>2026-04-05T07:49:13.139Z</time></trkpt><trkpt lat="43.4315145" lon="11.1784463"><ele>133.0</ele><time>2026-04-05T07:49:14.153Z</time></trkpt><trkpt lat="43.4314119" lon="11.1783858"><ele>133.0</ele><time>2026-04-05T07:49:16.14Z</time></trkpt><trkpt lat="43.4312977" lon="11.1783333"><ele>132.8</ele><time>2026-04-05T07:49:18.141Z</time></trkpt><trkpt lat="43.431194" lon="11.1782747"><ele>132.60000000000002</ele><time>2026-04-05T07:49:20.154Z</time></trkpt><trkpt lat="43.4311001" lon="11.1782128"><ele>132.39999999999998</ele><time>2026-04-05T07:49:22.136Z</time></trkpt><trkpt lat="43.431004" lon="11.1781601"><ele>132.2</ele><time>2026-04-05T07:49:24.135Z</time></trkpt><trkpt lat="43.4309034" lon="11.1780867"><ele>132.0</ele><time>2026-04-05T07:49:26.143Z</time></trkpt><trkpt lat="43.4308113" lon="11.1780189"><ele>131.79999999999998</ele><time>2026-04-05T07:49:28.125Z</time></trkpt><trkpt lat="43.4307202" lon="11.1779363"><ele>131.6</ele><time>2026-04-05T07:49:30.146Z</time></trkpt><trkpt lat="43.4306281" lon="11.1778635"><ele>131.39999999999998</ele><time>2026-04-05T07:49:32.139Z</time></trkpt><trkpt lat="43.4305296" lon="11.1778004"><ele>131.2</ele><time>2026-04-05T07:49:34.139Z</time></trkpt><trkpt lat="43.4304259" lon="11.177743"><ele>131.0</ele><time>2026-04-05T07:49:36.137Z</time></trkpt><trkpt lat="43.4303255" lon="11.1776866"><ele>131.0</ele><time>2026-04-05T07:49:38.136Z</time></trkpt><trkpt lat="43.430226" lon="11.1776382"><ele>131.0</ele><time>2026-04-05T07:49:40.144Z</time></trkpt><trkpt lat="43.4301303" lon="11.1775915"><ele>131.0</ele><time>2026-04-05T07:49:42.136Z</time></trkpt><trkpt lat="43.4300401" lon="11.1775438"><ele>131.0</ele><time>2026-04-05T07:49:44.117Z</time></trkpt><trkpt lat="43.4299507" lon="11.1775081"><ele>131.0</ele><time>2026-04-05T07:49:46.14Z</time></trkpt><trkpt lat="43.4298542" lon="11.1775038"><ele>131.0</ele><time>2026-04-05T07:49:48.132Z</time></trkpt><trkpt lat="43.4297644" lon="11.1775286"><ele>131.0</ele><time>2026-04-05T07:49:50.132Z</time></trkpt><trkpt lat="43.4296771" lon="11.1775617"><ele>131.0</ele><time>2026-04-05T07:49:52.133Z</time></trkpt><trkpt lat="43.429592" lon="11.1776042"><ele>131.0</ele><time>2026-04-05T07:49:54.138Z</time></trkpt><trkpt lat="43.4295134" lon="11.177667"><ele>131.0</ele><time>2026-04-05T07:49:56.131Z</time></trkpt><trkpt lat="43.4294567" lon="11.1777369"><ele>131.0</ele><time>2026-04-05T07:49:58.14Z</time></trkpt><trkpt lat="43.4294038" lon="11.1778347"><ele>131.16666666666666</ele><time>2026-04-05T07:50:00.134Z</time></trkpt><trkpt lat="43.4293626" lon="11.177938"><ele>131.33333333333331</ele><time>2026-04-05T07:50:02.136Z</time></trkpt><trkpt lat="43.4293275" lon="11.1780448"><ele>131.5</ele><time>2026-04-05T07:50:04.14Z</time></trkpt><trkpt lat="43.4292899" lon="11.1781344"><ele>131.66666666666666</ele><time>2026-04-05T07:50:06.137Z</time></trkpt><trkpt lat="43.4292589" lon="11.1782265"><ele>131.83333333333334</ele><time>2026-04-05T07:50:08.14Z</time></trkpt><trkpt lat="43.4292234" lon="11.1783285"><ele>132.0</ele><time>2026-04-05T07:50:10.149Z</time></trkpt><trkpt lat="43.4291877" lon="11.1784232"><ele>132.0</ele><time>2026-04-05T07:50:12.137Z</time></trkpt><trkpt lat="43.4291572" lon="11.1785134"><ele>132.0</ele><time>2026-04-05T07:50:14.128Z</time></trkpt><trkpt lat="43.429129" lon="11.1786087"><ele>132.0</ele><time>2026-04-05T07:50:16.145Z</time></trkpt><trkpt lat="43.4290995" lon="11.1787081"><ele>132.0</ele><time>2026-04-05T07:50:18.137Z</time></trkpt><trkpt lat="43.4290704" lon="11.1787954"><ele>132.0</ele><time>2026-04-05T07:50:20.14Z</time></trkpt><trkpt lat="43.4290483" lon="11.1788842"><ele>132.0</ele><time>2026-04-05T07:50:22.145Z</time></trkpt><trkpt lat="43.4290257" lon="11.1789782"><ele>132.0</ele><time>2026-04-05T07:50:24.148Z</time></trkpt><trkpt lat="43.4289992" lon="11.1790636"><ele>132.57142857142856</ele><time>2026-04-05T07:50:26.137Z</time></trkpt><trkpt lat="43.4289727" lon="11.179143"><ele>133.14285714285714</ele><time>2026-04-05T07:50:28.13Z</time></trkpt><trkpt lat="43.4289427" lon="11.1792194"><ele>133.71428571428572</ele><time>2026-04-05T07:50:30.135Z</time></trkpt><trkpt lat="43.4289005" lon="11.1792901"><ele>134.28571428571428</ele><time>2026-04-05T07:50:32.136Z</time></trkpt><trkpt lat="43.4288462" lon="11.1793595"><ele>134.85714285714286</ele><time>2026-04-05T07:50:34.143Z</time></trkpt><trkpt lat="43.4287806" lon="11.1794547"><ele>135.42857142857142</ele><time>2026-04-05T07:50:37.127Z</time></trkpt><trkpt lat="43.4287352" lon="11.1795172"><ele>136.0</ele><time>2026-04-05T07:50:39.127Z</time></trkpt><trkpt lat="43.4286849" lon="11.1795725"><ele>136.0</ele><time>2026-04-05T07:50:41.144Z</time></trkpt><trkpt lat="43.4286238" lon="11.1796363"><ele>136.0</ele><time>2026-04-05T07:50:43.134Z</time></trkpt><trkpt lat="43.4285437" lon="11.1797058"><ele>136.0</ele><time>2026-04-05T07:50:45.128Z</time></trkpt><trkpt lat="43.4284505" lon="11.179751"><ele>136.0</ele><time>2026-04-05T07:50:47.134Z</time></trkpt><trkpt lat="43.4283405" lon="11.179798"><ele>136.0</ele><time>2026-04-05T07:50:49.131Z</time></trkpt><trkpt lat="43.4282763" lon="11.1798324"><ele>136.0</ele><time>2026-04-05T07:50:50.137Z</time></trkpt><trkpt lat="43.4282199" lon="11.179878"><ele>136.0</ele><time>2026-04-05T07:50:51.128Z</time></trkpt><trkpt lat="43.428175" lon="11.1799393"><ele>136.0</ele><time>2026-04-05T07:50:52.132Z</time></trkpt><trkpt lat="43.4281055" lon="11.1800688"><ele>136.0</ele><time>2026-04-05T07:50:54.13Z</time></trkpt><trkpt lat="43.4280427" lon="11.1801851"><ele>136.0</ele><time>2026-04-05T07:50:56.132Z</time></trkpt><trkpt lat="43.4279765" lon="11.1802749"><ele>136.0</ele><time>2026-04-05T07:50:58.155Z</time></trkpt><trkpt lat="43.4279245" lon="11.1803444"><ele>135.99999999999997</ele><time>2026-04-05T07:51:00.121Z</time></trkpt><trkpt lat="43.4278814" lon="11.1804346"><ele>136.0</ele><time>2026-04-05T07:51:03.114Z</time></trkpt><trkpt lat="43.4278555" lon="11.1805227"><ele>136.0</ele><time>2026-04-05T07:51:06.139Z</time></trkpt><trkpt lat="43.4278542" lon="11.1806307"><ele>136.0</ele><time>2026-04-05T07:51:10.138Z</time></trkpt><trkpt lat="43.4278386" lon="11.1807227"><ele>136.0</ele><time>2026-04-05T07:51:14.128Z</time></trkpt><trkpt lat="43.4278209" lon="11.1808095"><ele>135.99999999999997</ele><time>2026-04-05T07:51:18.139Z</time></trkpt><trkpt lat="43.4277825" lon="11.1808986"><ele>136.0</ele><time>2026-04-05T07:51:22.118Z</time></trkpt><trkpt lat="43.4277383" lon="11.1809815"><ele>137.16666666666669</ele><time>2026-04-05T07:51:26.157Z</time></trkpt><trkpt lat="43.4276917" lon="11.1810695"><ele>138.33333333333334</ele><time>2026-04-05T07:51:30.127Z</time></trkpt><trkpt lat="43.4276491" lon="11.1811611"><ele>139.5</ele><time>2026-04-05T07:51:34.152Z</time></trkpt><trkpt lat="43.4276091" lon="11.1812528"><ele>140.66666666666666</ele><time>2026-04-05T07:51:38.134Z</time></trkpt><trkpt lat="43.4275748" lon="11.1813401"><ele>141.83333333333331</ele><time>2026-04-05T07:51:42.132Z</time></trkpt><trkpt lat="43.4275524" lon="11.1814378"><ele>143.0</ele><time>2026-04-05T07:51:46.132Z</time></trkpt><trkpt lat="43.4275871" lon="11.1815366"><ele>143.7142857142857</ele><time>2026-04-05T07:51:50.146Z</time></trkpt><trkpt lat="43.4276217" lon="11.1816208"><ele>144.42857142857142</ele><time>2026-04-05T07:51:54.151Z</time></trkpt><trkpt lat="43.4275464" lon="11.1816547"><ele>145.14285714285714</ele><time>2026-04-05T07:51:59.136Z</time></trkpt><trkpt lat="43.4274848" lon="11.1816958"><ele>145.85714285714283</ele><time>2026-04-05T07:52:02.127Z</time></trkpt><trkpt lat="43.427418" lon="11.1817415"><ele>146.57142857142856</ele><time>2026-04-05T07:52:05.123Z</time></trkpt><trkpt lat="43.427358" lon="11.1817785"><ele>147.28571428571428</ele><time>2026-04-05T07:52:08.126Z</time></trkpt><trkpt lat="43.4272876" lon="11.1818137"><ele>148.0</ele><time>2026-04-05T07:52:11.136Z</time></trkpt><trkpt lat="43.4271928" lon="11.1818374"><ele>147.0</ele><time>2026-04-05T07:52:14.119Z</time></trkpt><trkpt lat="43.4271086" lon="11.1818747"><ele>146.0</ele><time>2026-04-05T07:52:16.126Z</time></trkpt><trkpt lat="43.4270102" lon="11.1819091"><ele>145.0</ele><time>2026-04-05T07:52:18.121Z</time></trkpt><trkpt lat="43.4269051" lon="11.1819491"><ele>144.0</ele><time>2026-04-05T07:52:20.134Z</time></trkpt><trkpt lat="43.4267888" lon="11.1819872"><ele>143.0</ele><time>2026-04-05T07:52:22.148Z</time></trkpt><trkpt lat="43.4267194" lon="11.1820057"><ele>143.0</ele><time>2026-04-05T07:52:23.144Z</time></trkpt><trkpt lat="43.4266466" lon="11.182029"><ele>143.0</ele><time>2026-04-05T07:52:24.142Z</time></trkpt><trkpt lat="43.4265682" lon="11.1820541"><ele>143.0</ele><time>2026-04-05T07:52:25.139Z</time></trkpt><trkpt lat="43.4264841" lon="11.1820752"><ele>143.0</ele><time>2026-04-05T07:52:26.139Z</time></trkpt><trkpt lat="43.4263978" lon="11.1820859"><ele>143.0</ele><time>2026-04-05T07:52:27.134Z</time></trkpt><trkpt lat="43.4263101" lon="11.1820878"><ele>143.0</ele><time>2026-04-05T07:52:28.139Z</time></trkpt><trkpt lat="43.4262229" lon="11.1820848"><ele>143.28571428571428</ele><time>2026-04-05T07:52:29.135Z</time></trkpt><trkpt lat="43.4261385" lon="11.1820779"><ele>143.57142857142856</ele><time>2026-04-05T07:52:30.141Z</time></trkpt><trkpt lat="43.4260571" lon="11.1820706"><ele>143.85714285714286</ele><time>2026-04-05T07:52:31.147Z</time></trkpt><trkpt lat="43.4259831" lon="11.1820725"><ele>144.14285714285714</ele><time>2026-04-05T07:52:32.147Z</time></trkpt><trkpt lat="43.425915" lon="11.1820933"><ele>144.42857142857144</ele><time>2026-04-05T07:52:33.145Z</time></trkpt><trkpt lat="43.4258548" lon="11.1821436"><ele>144.71428571428572</ele><time>2026-04-05T07:52:34.14Z</time></trkpt><trkpt lat="43.4258107" lon="11.1822136"><ele>145.0</ele><time>2026-04-05T07:52:35.139Z</time></trkpt><trkpt lat="43.4257758" lon="11.1822963"><ele>144.5</ele><time>2026-04-05T07:52:36.146Z</time></trkpt><trkpt lat="43.4257435" lon="11.1823747"><ele>144.0</ele><time>2026-04-05T07:52:37.136Z</time></trkpt><trkpt lat="43.4257151" lon="11.1824531"><ele>143.5</ele><time>2026-04-05T07:52:38.132Z</time></trkpt><trkpt lat="43.4256688" lon="11.1825954"><ele>143.0</ele><time>2026-04-05T07:52:40.135Z</time></trkpt><trkpt lat="43.4256206" lon="11.1827195"><ele>142.5</ele><time>2026-04-05T07:52:42.151Z</time></trkpt><trkpt lat="43.4255651" lon="11.1828238"><ele>142.0</ele><time>2026-04-05T07:52:44.136Z</time></trkpt><trkpt lat="43.4255173" lon="11.1829201"><ele>143.71428571428572</ele><time>2026-04-05T07:52:46.147Z</time></trkpt><trkpt lat="43.4254709" lon="11.1830015"><ele>145.42857142857142</ele><time>2026-04-05T07:52:48.142Z</time></trkpt><trkpt lat="43.4254308" lon="11.1830765"><ele>147.14285714285714</ele><time>2026-04-05T07:52:50.13Z</time></trkpt><trkpt lat="43.4253814" lon="11.1831807"><ele>148.85714285714286</ele><time>2026-04-05T07:52:53.131Z</time></trkpt><trkpt lat="43.4253317" lon="11.1832576"><ele>150.57142857142856</ele><time>2026-04-05T07:52:56.12Z</time></trkpt><trkpt lat="43.4252771" lon="11.1833029"><ele>152.28571428571428</ele><time>2026-04-05T07:53:01.135Z</time></trkpt><trkpt lat="43.4252099" lon="11.1832985"><ele>154.0</ele><time>2026-04-05T07:53:05.126Z</time></trkpt><trkpt lat="43.4251528" lon="11.1832593"><ele>154.0</ele><time>2026-04-05T07:53:09.126Z</time></trkpt><trkpt lat="43.425092" lon="11.1831954"><ele>154.0</ele><time>2026-04-05T07:53:13.125Z</time></trkpt><trkpt lat="43.4250442" lon="11.1831203"><ele>154.0</ele><time>2026-04-05T07:53:17.141Z</time></trkpt><trkpt lat="43.4249829" lon="11.1830651"><ele>154.0</ele><time>2026-04-05T07:53:22.124Z</time></trkpt><trkpt lat="43.4249207" lon="11.1830983"><ele>154.0</ele><time>2026-04-05T07:53:27.134Z</time></trkpt><trkpt lat="43.4248721" lon="11.1831691"><ele>154.0</ele><time>2026-04-05T07:53:32.131Z</time></trkpt><trkpt lat="43.4248185" lon="11.1832371"><ele>154.0</ele><time>2026-04-05T07:53:39.117Z</time></trkpt><trkpt lat="43.424764" lon="11.1832881"><ele>154.0</ele><time>2026-04-05T07:53:47.126Z</time></trkpt><trkpt lat="43.4247068" lon="11.1833522"><ele>154.0</ele><time>2026-04-05T07:53:54.114Z</time></trkpt><trkpt lat="43.4246459" lon="11.1834059"><ele>154.0</ele><time>2026-04-05T07:54:00.122Z</time></trkpt><trkpt lat="43.4245982" lon="11.183473"><ele>154.0</ele><time>2026-04-05T07:54:06.143Z</time></trkpt><trkpt lat="43.4245376" lon="11.1835022"><ele>154.0</ele><time>2026-04-05T07:54:11.148Z</time></trkpt><trkpt lat="43.4244837" lon="11.1835575"><ele>154.0</ele><time>2026-04-05T07:54:18.13Z</time></trkpt><trkpt lat="43.4244173" lon="11.1835025"><ele>154.0</ele><time>2026-04-05T07:54:25.13Z</time></trkpt><trkpt lat="43.4243518" lon="11.183456"><ele>155.71428571428572</ele><time>2026-04-05T07:54:29.132Z</time></trkpt><trkpt lat="43.4242891" lon="11.1834414"><ele>157.42857142857144</ele><time>2026-04-05T07:54:32.135Z</time></trkpt><trkpt lat="43.4242218" lon="11.1834213"><ele>159.14285714285714</ele><time>2026-04-05T07:54:36.124Z</time></trkpt><trkpt lat="43.4241621" lon="11.1833927"><ele>160.85714285714286</ele><time>2026-04-05T07:54:40.132Z</time></trkpt><trkpt lat="43.4240983" lon="11.1833849"><ele>162.57142857142858</ele><time>2026-04-05T07:54:44.136Z</time></trkpt><trkpt lat="43.4240218" lon="11.1833925"><ele>164.28571428571428</ele><time>2026-04-05T07:54:49.142Z</time></trkpt><trkpt lat="43.4239502" lon="11.1833724"><ele>166.0</ele><time>2026-04-05T07:54:52.142Z</time></trkpt><trkpt lat="43.4238748" lon="11.1833654"><ele>166.5</ele><time>2026-04-05T07:54:55.128Z</time></trkpt><trkpt lat="43.4238118" lon="11.1833484"><ele>167.0</ele><time>2026-04-05T07:54:58.126Z</time></trkpt><trkpt lat="43.4237388" lon="11.1833171"><ele>167.5</ele><time>2026-04-05T07:55:01.126Z</time></trkpt><trkpt lat="43.423654" lon="11.1832684"><ele>168.0</ele><time>2026-04-05T07:55:04.135Z</time></trkpt><trkpt lat="43.4235636" lon="11.1832399"><ele>168.5</ele><time>2026-04-05T07:55:07.128Z</time></trkpt><trkpt lat="43.423472" lon="11.1832432"><ele>169.0</ele><time>2026-04-05T07:55:10.135Z</time></trkpt><trkpt lat="43.4234041" lon="11.1832479"><ele>169.0</ele><time>2026-04-05T07:55:12.125Z</time></trkpt><trkpt lat="43.4233342" lon="11.1832556"><ele>169.0</ele><time>2026-04-05T07:55:14.124Z</time></trkpt><trkpt lat="43.4232695" lon="11.1832506"><ele>169.0</ele><time>2026-04-05T07:55:16.128Z</time></trkpt><trkpt lat="43.4232062" lon="11.1832443"><ele>169.0</ele><time>2026-04-05T07:55:18.145Z</time></trkpt><trkpt lat="43.4231398" lon="11.1832355"><ele>169.0</ele><time>2026-04-05T07:55:20.123Z</time></trkpt><trkpt lat="43.423072" lon="11.1832284"><ele>169.0</ele><time>2026-04-05T07:55:22.146Z</time></trkpt><trkpt lat="43.4230041" lon="11.1832377"><ele>169.0</ele><time>2026-04-05T07:55:24.129Z</time></trkpt><trkpt lat="43.4229402" lon="11.1832449"><ele>169.33333333333334</ele><time>2026-04-05T07:55:26.143Z</time></trkpt><trkpt lat="43.4228495" lon="11.183246"><ele>169.66666666666669</ele><time>2026-04-05T07:55:29.147Z</time></trkpt><trkpt lat="43.4227667" lon="11.1833004"><ele>170.0</ele><time>2026-04-05T07:55:32.126Z</time></trkpt><trkpt lat="43.4227108" lon="11.1833443"><ele>170.33333333333334</ele><time>2026-04-05T07:55:34.136Z</time></trkpt><trkpt lat="43.4226588" lon="11.1833964"><ele>170.66666666666666</ele><time>2026-04-05T07:55:36.135Z</time></trkpt><trkpt lat="43.4225823" lon="11.1834708"><ele>171.0</ele><time>2026-04-05T07:55:39.122Z</time></trkpt><trkpt lat="43.4225265" lon="11.1835172"><ele>170.99999999999997</ele><time>2026-04-05T07:55:41.135Z</time></trkpt><trkpt lat="43.422475" lon="11.1835734"><ele>171.0</ele><time>2026-04-05T07:55:43.131Z</time></trkpt><trkpt lat="43.4223949" lon="11.1836345"><ele>171.0</ele><time>2026-04-05T07:55:46.131Z</time></trkpt><trkpt lat="43.4223315" lon="11.1836697"><ele>171.0</ele><time>2026-04-05T07:55:48.13Z</time></trkpt><trkpt lat="43.4222749" lon="11.1837195"><ele>171.0</ele><time>2026-04-05T07:55:50.124Z</time></trkpt><trkpt lat="43.4222176" lon="11.1837775"><ele>170.99999999999997</ele><time>2026-04-05T07:55:52.146Z</time></trkpt><trkpt lat="43.422157" lon="11.183831"><ele>171.0</ele><time>2026-04-05T07:55:54.128Z</time></trkpt><trkpt lat="43.4220981" lon="11.1838929"><ele>171.16666666666666</ele><time>2026-04-05T07:55:57.136Z</time></trkpt><trkpt lat="43.4220848" lon="11.1839901"><ele>171.33333333333334</ele><time>2026-04-05T07:56:01.131Z</time></trkpt><trkpt lat="43.4221036" lon="11.1841018"><ele>171.5</ele><time>2026-04-05T07:56:04.137Z</time></trkpt><trkpt lat="43.4221319" lon="11.18418"><ele>171.66666666666669</ele><time>2026-04-05T07:56:06.128Z</time></trkpt><trkpt lat="43.4221579" lon="11.1842613"><ele>171.83333333333334</ele><time>2026-04-05T07:56:08.142Z</time></trkpt><trkpt lat="43.4221933" lon="11.1843777"><ele>172.0</ele><time>2026-04-05T07:56:11.138Z</time></trkpt><trkpt lat="43.4222363" lon="11.1844829"><ele>172.0</ele><time>2026-04-05T07:56:14.14Z</time></trkpt><trkpt lat="43.4222587" lon="11.1845916"><ele>172.0</ele><time>2026-04-05T07:56:17.134Z</time></trkpt><trkpt lat="43.4222876" lon="11.1846978"><ele>172.0</ele><time>2026-04-05T07:56:20.129Z</time></trkpt><trkpt lat="43.4223382" lon="11.1847997"><ele>172.0</ele><time>2026-04-05T07:56:23.13Z</time></trkpt><trkpt lat="43.4223671" lon="11.1849099"><ele>172.0</ele><time>2026-04-05T07:56:26.149Z</time></trkpt><trkpt lat="43.422376" lon="11.1850209"><ele>172.0</ele><time>2026-04-05T07:56:29.135Z</time></trkpt><trkpt lat="43.4223261" lon="11.185109"><ele>172.33333333333334</ele><time>2026-04-05T07:56:32.124Z</time></trkpt><trkpt lat="43.4222375" lon="11.1851579"><ele>172.66666666666669</ele><time>2026-04-05T07:56:35.134Z</time></trkpt><trkpt lat="43.4221775" lon="11.1851962"><ele>173.0</ele><time>2026-04-05T07:56:37.128Z</time></trkpt><trkpt lat="43.4221246" lon="11.1852557"><ele>173.33333333333334</ele><time>2026-04-05T07:56:39.134Z</time></trkpt><trkpt lat="43.4220634" lon="11.185321"><ele>173.66666666666666</ele><time>2026-04-05T07:56:41.132Z</time></trkpt><trkpt lat="43.4219956" lon="11.1853939"><ele>174.0</ele><time>2026-04-05T07:56:43.131Z</time></trkpt><trkpt lat="43.4219367" lon="11.1854596"><ele>174.0</ele><time>2026-04-05T07:56:45.151Z</time></trkpt><trkpt lat="43.4218806" lon="11.1855236"><ele>174.0</ele><time>2026-04-05T07:56:47.121Z</time></trkpt><trkpt lat="43.4218266" lon="11.1856019"><ele>174.0</ele><time>2026-04-05T07:56:49.137Z</time></trkpt><trkpt lat="43.4217657" lon="11.18569"><ele>174.0</ele><time>2026-04-05T07:56:51.143Z</time></trkpt><trkpt lat="43.4217045" lon="11.1857813"><ele>174.0</ele><time>2026-04-05T07:56:53.145Z</time></trkpt><trkpt lat="43.4216531" lon="11.185884"><ele>174.0</ele><time>2026-04-05T07:56:55.13Z</time></trkpt><trkpt lat="43.4216065" lon="11.1859926"><ele>174.0</ele><time>2026-04-05T07:56:57.127Z</time></trkpt><trkpt lat="43.4215605" lon="11.1860994"><ele>174.0</ele><time>2026-04-05T07:56:59.136Z</time></trkpt><trkpt lat="43.4215137" lon="11.1862033"><ele>174.0</ele><time>2026-04-05T07:57:01.125Z</time></trkpt><trkpt lat="43.4214597" lon="11.1863019"><ele>174.0</ele><time>2026-04-05T07:57:03.131Z</time></trkpt><trkpt lat="43.4213924" lon="11.1863795"><ele>174.0</ele><time>2026-04-05T07:57:05.145Z</time></trkpt><trkpt lat="43.4213073" lon="11.186409"><ele>174.0</ele><time>2026-04-05T07:57:07.133Z</time></trkpt><trkpt lat="43.421208" lon="11.1863806"><ele>174.0</ele><time>2026-04-05T07:57:09.133Z</time></trkpt><trkpt lat="43.4211081" lon="11.1863968"><ele>174.0</ele><time>2026-04-05T07:57:11.143Z</time></trkpt><trkpt lat="43.4210367" lon="11.1864877"><ele>174.0</ele><time>2026-04-05T07:57:13.132Z</time></trkpt><trkpt lat="43.4209677" lon="11.1865905"><ele>174.0</ele><time>2026-04-05T07:57:15.139Z</time></trkpt><trkpt lat="43.4209006" lon="11.1866926"><ele>174.0</ele><time>2026-04-05T07:57:17.135Z</time></trkpt><trkpt lat="43.4208314" lon="11.1867923"><ele>174.2</ele><time>2026-04-05T07:57:19.12Z</time></trkpt><trkpt lat="43.4207647" lon="11.1868928"><ele>174.39999999999998</ele><time>2026-04-05T07:57:21.149Z</time></trkpt><trkpt lat="43.4207041" lon="11.187002"><ele>174.6</ele><time>2026-04-05T07:57:23.146Z</time></trkpt><trkpt lat="43.4206479" lon="11.1871088"><ele>174.8</ele><time>2026-04-05T07:57:25.143Z</time></trkpt><trkpt lat="43.4206094" lon="11.1872348"><ele>175.0</ele><time>2026-04-05T07:57:27.138Z</time></trkpt><trkpt lat="43.4205632" lon="11.1873553"><ele>175.0</ele><time>2026-04-05T07:57:29.135Z</time></trkpt><trkpt lat="43.4204903" lon="11.187471"><ele>175.0</ele><time>2026-04-05T07:57:31.134Z</time></trkpt><trkpt lat="43.4204296" lon="11.1876061"><ele>175.0</ele><time>2026-04-05T07:57:33.154Z</time></trkpt><trkpt lat="43.4203546" lon="11.1877122"><ele>175.0</ele><time>2026-04-05T07:57:35.137Z</time></trkpt><trkpt lat="43.4202306" lon="11.1876992"><ele>175.0</ele><time>2026-04-05T07:57:37.136Z</time></trkpt><trkpt lat="43.4201693" lon="11.1876563"><ele>175.0</ele><time>2026-04-05T07:57:38.141Z</time></trkpt><trkpt lat="43.4201132" lon="11.187613"><ele>175.0</ele><time>2026-04-05T07:57:39.139Z</time></trkpt><trkpt lat="43.4200065" lon="11.1875267"><ele>175.0</ele><time>2026-04-05T07:57:41.134Z</time></trkpt><trkpt lat="43.4199519" lon="11.1874755"><ele>175.0</ele><time>2026-04-05T07:57:42.14Z</time></trkpt><trkpt lat="43.4198488" lon="11.1874127"><ele>175.0</ele><time>2026-04-05T07:57:44.118Z</time></trkpt><trkpt lat="43.4197581" lon="11.1874875"><ele>175.0</ele><time>2026-04-05T07:57:46.136Z</time></trkpt><trkpt lat="43.4197172" lon="11.1875566"><ele>175.0</ele><time>2026-04-05T07:57:47.138Z</time></trkpt><trkpt lat="43.4196555" lon="11.1876411"><ele>175.0</ele><time>2026-04-05T07:57:49.13Z</time></trkpt><trkpt lat="43.4196311" lon="11.1877469"><ele>175.0</ele><time>2026-04-05T07:57:51.138Z</time></trkpt><trkpt lat="43.4196042" lon="11.1878537"><ele>175.0</ele><time>2026-04-05T07:57:53.143Z</time></trkpt><trkpt lat="43.4195456" lon="11.1879479"><ele>175.0</ele><time>2026-04-05T07:57:55.133Z</time></trkpt><trkpt lat="43.4194702" lon="11.1880349"><ele>174.4</ele><time>2026-04-05T07:57:57.139Z</time></trkpt><trkpt lat="43.4193742" lon="11.1880285"><ele>173.8</ele><time>2026-04-05T07:57:59.136Z</time></trkpt><trkpt lat="43.4192898" lon="11.1879223"><ele>173.2</ele><time>2026-04-05T07:58:01.139Z</time></trkpt><trkpt lat="43.419209" lon="11.1878286"><ele>172.6</ele><time>2026-04-05T07:58:03.143Z</time></trkpt><trkpt lat="43.4191313" lon="11.1877486"><ele>172.0</ele><time>2026-04-05T07:58:05.138Z</time></trkpt><trkpt lat="43.419057" lon="11.1877064"><ele>172.0</ele><time>2026-04-05T07:58:07.132Z</time></trkpt><trkpt lat="43.4189725" lon="11.1877615"><ele>172.0</ele><time>2026-04-05T07:58:10.139Z</time></trkpt><trkpt lat="43.4189233" lon="11.1878629"><ele>172.0</ele><time>2026-04-05T07:58:12.142Z</time></trkpt><trkpt lat="43.4188749" lon="11.1879572"><ele>172.0</ele><time>2026-04-05T07:58:14.157Z</time></trkpt><trkpt lat="43.4188155" lon="11.188046"><ele>172.0</ele><time>2026-04-05T07:58:16.148Z</time></trkpt><trkpt lat="43.4187579" lon="11.1881359"><ele>172.0</ele><time>2026-04-05T07:58:18.126Z</time></trkpt><trkpt lat="43.4187128" lon="11.1882325"><ele>171.39999999999998</ele><time>2026-04-05T07:58:20.139Z</time></trkpt><trkpt lat="43.4186599" lon="11.1883183"><ele>170.79999999999998</ele><time>2026-04-05T07:58:22.136Z</time></trkpt><trkpt lat="43.4185886" lon="11.1883986"><ele>170.2</ele><time>2026-04-05T07:58:24.13Z</time></trkpt><trkpt lat="43.4185187" lon="11.1884911"><ele>169.6</ele><time>2026-04-05T07:58:26.135Z</time></trkpt><trkpt lat="43.418454" lon="11.1885809"><ele>169.0</ele><time>2026-04-05T07:58:28.14Z</time></trkpt><trkpt lat="43.4184239" lon="11.1887061"><ele>169.0</ele><time>2026-04-05T07:58:30.132Z</time></trkpt><trkpt lat="43.4184201" lon="11.1888472"><ele>169.0</ele><time>2026-04-05T07:58:32.147Z</time></trkpt><trkpt lat="43.4183944" lon="11.1889834"><ele>169.0</ele><time>2026-04-05T07:58:34.138Z</time></trkpt><trkpt lat="43.4183469" lon="11.1891018"><ele>169.0</ele><time>2026-04-05T07:58:36.136Z</time></trkpt><trkpt lat="43.4183011" lon="11.1891995"><ele>169.0</ele><time>2026-04-05T07:58:38.136Z</time></trkpt><trkpt lat="43.4182236" lon="11.1892297"><ele>169.0</ele><time>2026-04-05T07:58:40.138Z</time></trkpt><trkpt lat="43.4181485" lon="11.1891844"><ele>169.0</ele><time>2026-04-05T07:58:42.13Z</time></trkpt><trkpt lat="43.4180796" lon="11.1891161"><ele>169.0</ele><time>2026-04-05T07:58:44.127Z</time></trkpt><trkpt lat="43.4180334" lon="11.1890326"><ele>169.0</ele><time>2026-04-05T07:58:46.139Z</time></trkpt><trkpt lat="43.4180201" lon="11.1889185"><ele>169.0</ele><time>2026-04-05T07:58:48.134Z</time></trkpt><trkpt lat="43.4180321" lon="11.1888107"><ele>169.0</ele><time>2026-04-05T07:58:50.136Z</time></trkpt><trkpt lat="43.4180745" lon="11.1887069"><ele>169.0</ele><time>2026-04-05T07:58:52.141Z</time></trkpt><trkpt lat="43.4180896" lon="11.1885971"><ele>169.0</ele><time>2026-04-05T07:58:54.145Z</time></trkpt><trkpt lat="43.418035" lon="11.1885012"><ele>169.0</ele><time>2026-04-05T07:58:56.149Z</time></trkpt><trkpt lat="43.417964" lon="11.1884272"><ele>169.0</ele><time>2026-04-05T07:58:58.15Z</time></trkpt><trkpt lat="43.4179044" lon="11.1883541"><ele>169.0</ele><time>2026-04-05T07:59:00.143Z</time></trkpt><trkpt lat="43.417847" lon="11.1882841"><ele>169.0</ele><time>2026-04-05T07:59:02.134Z</time></trkpt><trkpt lat="43.4177832" lon="11.1882095"><ele>170.16666666666669</ele><time>2026-04-05T07:59:04.133Z</time></trkpt><trkpt lat="43.4177266" lon="11.188125"><ele>171.33333333333334</ele><time>2026-04-05T07:59:06.139Z</time></trkpt><trkpt lat="43.4176839" lon="11.1880295"><ele>172.5</ele><time>2026-04-05T07:59:08.132Z</time></trkpt><trkpt lat="43.4176434" lon="11.1879284"><ele>173.66666666666666</ele><time>2026-04-05T07:59:10.125Z</time></trkpt><trkpt lat="43.4175971" lon="11.1878337"><ele>174.83333333333331</ele><time>2026-04-05T07:59:12.127Z</time></trkpt><trkpt lat="43.4175526" lon="11.1877458"><ele>176.0</ele><time>2026-04-05T07:59:14.142Z</time></trkpt><trkpt lat="43.4175171" lon="11.1876631"><ele>176.0</ele><time>2026-04-05T07:59:16.135Z</time></trkpt><trkpt lat="43.4174919" lon="11.1875795"><ele>176.0</ele><time>2026-04-05T07:59:18.135Z</time></trkpt><trkpt lat="43.4174697" lon="11.1874895"><ele>176.0</ele><time>2026-04-05T07:59:20.133Z</time></trkpt><trkpt lat="43.4174483" lon="11.1874032"><ele>176.0</ele><time>2026-04-05T07:59:22.136Z</time></trkpt><trkpt lat="43.4174234" lon="11.1873211"><ele>176.0</ele><time>2026-04-05T07:59:24.144Z</time></trkpt><trkpt lat="43.417398" lon="11.18724"><ele>176.0</ele><time>2026-04-05T07:59:26.148Z</time></trkpt><trkpt lat="43.4173787" lon="11.1871541"><ele>176.0</ele><time>2026-04-05T07:59:28.112Z</time></trkpt><trkpt lat="43.4173625" lon="11.1870248"><ele>176.0</ele><time>2026-04-05T07:59:31.137Z</time></trkpt><trkpt lat="43.4173539" lon="11.1869021"><ele>176.0</ele><time>2026-04-05T07:59:34.138Z</time></trkpt><trkpt lat="43.4173424" lon="11.1867777"><ele>176.0</ele><time>2026-04-05T07:59:37.137Z</time></trkpt><trkpt lat="43.417338" lon="11.1866852"><ele>176.0</ele><time>2026-04-05T07:59:39.135Z</time></trkpt><trkpt lat="43.417337" lon="11.1865539"><ele>176.0</ele><time>2026-04-05T07:59:42.139Z</time></trkpt><trkpt lat="43.417334" lon="11.186465"><ele>176.0</ele><time>2026-04-05T07:59:44.131Z</time></trkpt><trkpt lat="43.4173313" lon="11.1863723"><ele>176.28571428571428</ele><time>2026-04-05T07:59:46.137Z</time></trkpt><trkpt lat="43.4173363" lon="11.1862829"><ele>176.57142857142856</ele><time>2026-04-05T07:59:48.131Z</time></trkpt><trkpt lat="43.4173396" lon="11.1861933"><ele>176.85714285714283</ele><time>2026-04-05T07:59:50.127Z</time></trkpt><trkpt lat="43.4173486" lon="11.1860691"><ele>177.14285714285714</ele><time>2026-04-05T07:59:53.138Z</time></trkpt><trkpt lat="43.4173612" lon="11.1859784"><ele>177.42857142857142</ele><time>2026-04-05T07:59:55.157Z</time></trkpt><trkpt lat="43.4173728" lon="11.185889"><ele>177.7142857142857</ele><time>2026-04-05T07:59:57.149Z</time></trkpt><trkpt lat="43.41739" lon="11.1857936"><ele>178.0</ele><time>2026-04-05T07:59:59.136Z</time></trkpt><trkpt lat="43.4174035" lon="11.1856949"><ele>178.57142857142856</ele><time>2026-04-05T08:00:01.144Z</time></trkpt><trkpt lat="43.4174179" lon="11.1856046"><ele>179.14285714285714</ele><time>2026-04-05T08:00:03.143Z</time></trkpt><trkpt lat="43.4174362" lon="11.185476"><ele>179.71428571428572</ele><time>2026-04-05T08:00:06.143Z</time></trkpt><trkpt lat="43.4174518" lon="11.1853868"><ele>180.28571428571428</ele><time>2026-04-05T08:00:08.132Z</time></trkpt><trkpt lat="43.4174698" lon="11.1853018"><ele>180.85714285714286</ele><time>2026-04-05T08:00:10.138Z</time></trkpt><trkpt lat="43.4174804" lon="11.1852112"><ele>181.42857142857142</ele><time>2026-04-05T08:00:12.137Z</time></trkpt><trkpt lat="43.4174944" lon="11.1851237"><ele>182.0</ele><time>2026-04-05T08:00:14.13Z</time></trkpt><trkpt lat="43.4175199" lon="11.1850018"><ele>182.0</ele><time>2026-04-05T08:00:17.139Z</time></trkpt><trkpt lat="43.4175415" lon="11.1848822"><ele>182.0</ele><time>2026-04-05T08:00:20.134Z</time></trkpt><trkpt lat="43.417564" lon="11.1847968"><ele>182.0</ele><time>2026-04-05T08:00:22.135Z</time></trkpt><trkpt lat="43.4175738" lon="11.1847014"><ele>182.0</ele><time>2026-04-05T08:00:24.139Z</time></trkpt><trkpt lat="43.4175885" lon="11.1846038"><ele>182.0</ele><time>2026-04-05T08:00:26.141Z</time></trkpt><trkpt lat="43.4176129" lon="11.1845083"><ele>182.0</ele><time>2026-04-05T08:00:28.141Z</time></trkpt><trkpt lat="43.4176354" lon="11.18442"><ele>182.0</ele><time>2026-04-05T08:00:30.147Z</time></trkpt><trkpt lat="43.4176468" lon="11.1843307"><ele>182.28571428571428</ele><time>2026-04-05T08:00:32.153Z</time></trkpt><trkpt lat="43.4176495" lon="11.1842384"><ele>182.57142857142856</ele><time>2026-04-05T08:00:34.139Z</time></trkpt><trkpt lat="43.4176608" lon="11.1841474"><ele>182.85714285714286</ele><time>2026-04-05T08:00:36.146Z</time></trkpt><trkpt lat="43.4176718" lon="11.1840489"><ele>183.14285714285714</ele><time>2026-04-05T08:00:38.135Z</time></trkpt><trkpt lat="43.4176919" lon="11.1839586"><ele>183.42857142857142</ele><time>2026-04-05T08:00:40.128Z</time></trkpt><trkpt lat="43.4177069" lon="11.1838647"><ele>183.71428571428572</ele><time>2026-04-05T08:00:42.136Z</time></trkpt><trkpt lat="43.4177249" lon="11.1837622"><ele>184.0</ele><time>2026-04-05T08:00:44.148Z</time></trkpt><trkpt lat="43.4177342" lon="11.1836581"><ele>184.16666666666669</ele><time>2026-04-05T08:00:46.14Z</time></trkpt><trkpt lat="43.4177452" lon="11.1835616"><ele>184.33333333333334</ele><time>2026-04-05T08:00:48.139Z</time></trkpt><trkpt lat="43.4177782" lon="11.1834786"><ele>184.5</ele><time>2026-04-05T08:00:50.147Z</time></trkpt><trkpt lat="43.4178274" lon="11.1834074"><ele>184.66666666666666</ele><time>2026-04-05T08:00:52.146Z</time></trkpt><trkpt lat="43.4178699" lon="11.183324"><ele>184.83333333333331</ele><time>2026-04-05T08:00:54.126Z</time></trkpt><trkpt lat="43.4179028" lon="11.1832411"><ele>185.0</ele><time>2026-04-05T08:00:56.137Z</time></trkpt><trkpt lat="43.4178934" lon="11.1831089"><ele>184.66666666666666</ele><time>2026-04-05T08:00:59.124Z</time></trkpt><trkpt lat="43.4178945" lon="11.1830131"><ele>184.33333333333331</ele><time>2026-04-05T08:01:01.151Z</time></trkpt><trkpt lat="43.4179003" lon="11.1829072"><ele>184.0</ele><time>2026-04-05T08:01:03.147Z</time></trkpt><trkpt lat="43.4179083" lon="11.1827988"><ele>183.66666666666666</ele><time>2026-04-05T08:01:05.146Z</time></trkpt><trkpt lat="43.4179387" lon="11.1827054"><ele>183.33333333333334</ele><time>2026-04-05T08:01:07.146Z</time></trkpt><trkpt lat="43.4179757" lon="11.1826073"><ele>183.0</ele><time>2026-04-05T08:01:09.145Z</time></trkpt><trkpt lat="43.4180079" lon="11.1825016"><ele>183.0</ele><time>2026-04-05T08:01:11.134Z</time></trkpt><trkpt lat="43.4180358" lon="11.182399"><ele>183.0</ele><time>2026-04-05T08:01:13.152Z</time></trkpt><trkpt lat="43.4180797" lon="11.1822995"><ele>183.0</ele><time>2026-04-05T08:01:15.142Z</time></trkpt><trkpt lat="43.418124" lon="11.1822019"><ele>183.0</ele><time>2026-04-05T08:01:17.135Z</time></trkpt><trkpt lat="43.4181723" lon="11.1821071"><ele>183.0</ele><time>2026-04-05T08:01:19.146Z</time></trkpt><trkpt lat="43.4182182" lon="11.1820164"><ele>183.0</ele><time>2026-04-05T08:01:21.125Z</time></trkpt><trkpt lat="43.4182694" lon="11.1819256"><ele>183.5</ele><time>2026-04-05T08:01:23.126Z</time></trkpt><trkpt lat="43.4183208" lon="11.1818413"><ele>184.0</ele><time>2026-04-05T08:01:25.14Z</time></trkpt><trkpt lat="43.4183777" lon="11.1817597"><ele>184.5</ele><time>2026-04-05T08:01:27.143Z</time></trkpt><trkpt lat="43.4184335" lon="11.18168"><ele>185.0</ele><time>2026-04-05T08:01:29.139Z</time></trkpt><trkpt lat="43.4184904" lon="11.1816045"><ele>185.5</ele><time>2026-04-05T08:01:31.138Z</time></trkpt><trkpt lat="43.4185492" lon="11.1815261"><ele>186.0</ele><time>2026-04-05T08:01:33.134Z</time></trkpt><trkpt lat="43.4186006" lon="11.1814484"><ele>187.33333333333334</ele><time>2026-04-05T08:01:35.139Z</time></trkpt><trkpt lat="43.418663" lon="11.1813778"><ele>188.66666666666669</ele><time>2026-04-05T08:01:37.142Z</time></trkpt><trkpt lat="43.4187361" lon="11.1813173"><ele>190.0</ele><time>2026-04-05T08:01:39.15Z</time></trkpt><trkpt lat="43.4188075" lon="11.181255"><ele>191.33333333333334</ele><time>2026-04-05T08:01:41.14Z</time></trkpt><trkpt lat="43.4188801" lon="11.1811903"><ele>192.66666666666669</ele><time>2026-04-05T08:01:43.132Z</time></trkpt><trkpt lat="43.4189548" lon="11.1811301"><ele>194.0</ele><time>2026-04-05T08:01:45.141Z</time></trkpt><trkpt lat="43.4190297" lon="11.1810731"><ele>194.0</ele><time>2026-04-05T08:01:47.132Z</time></trkpt><trkpt lat="43.4191115" lon="11.1810302"><ele>194.0</ele><time>2026-04-05T08:01:49.144Z</time></trkpt><trkpt lat="43.4191985" lon="11.181003"><ele>194.0</ele><time>2026-04-05T08:01:51.129Z</time></trkpt><trkpt lat="43.4192857" lon="11.1809651"><ele>194.0</ele><time>2026-04-05T08:01:53.142Z</time></trkpt><trkpt lat="43.4193684" lon="11.1809147"><ele>194.0</ele><time>2026-04-05T08:01:55.132Z</time></trkpt><trkpt lat="43.419458" lon="11.1808608"><ele>194.0</ele><time>2026-04-05T08:01:57.129Z</time></trkpt><trkpt lat="43.4195575" lon="11.1808155"><ele>194.0</ele><time>2026-04-05T08:01:59.129Z</time></trkpt><trkpt lat="43.4196572" lon="11.1807779"><ele>194.0</ele><time>2026-04-05T08:02:01.134Z</time></trkpt><trkpt lat="43.4197627" lon="11.1807384"><ele>194.0</ele><time>2026-04-05T08:02:03.138Z</time></trkpt><trkpt lat="43.4198732" lon="11.1806893"><ele>194.0</ele><time>2026-04-05T08:02:05.132Z</time></trkpt><trkpt lat="43.4199886" lon="11.1806379"><ele>193.28571428571428</ele><time>2026-04-05T08:02:07.135Z</time></trkpt><trkpt lat="43.4200481" lon="11.1806078"><ele>192.57142857142858</ele><time>2026-04-05T08:02:08.133Z</time></trkpt><trkpt lat="43.4201115" lon="11.1805791"><ele>191.85714285714286</ele><time>2026-04-05T08:02:09.137Z</time></trkpt><trkpt lat="43.4201752" lon="11.1805506"><ele>191.14285714285714</ele><time>2026-04-05T08:02:10.139Z</time></trkpt><trkpt lat="43.4202411" lon="11.1805233"><ele>190.42857142857144</ele><time>2026-04-05T08:02:11.138Z</time></trkpt><trkpt lat="43.4203092" lon="11.1804954"><ele>189.71428571428572</ele><time>2026-04-05T08:02:12.13Z</time></trkpt><trkpt lat="43.4203794" lon="11.1804612"><ele>189.0</ele><time>2026-04-05T08:02:13.136Z</time></trkpt><trkpt lat="43.4204507" lon="11.1804255"><ele>187.5</ele><time>2026-04-05T08:02:14.123Z</time></trkpt><trkpt lat="43.4205226" lon="11.1803889"><ele>186.0</ele><time>2026-04-05T08:02:15.136Z</time></trkpt><trkpt lat="43.4205954" lon="11.1803539"><ele>184.5</ele><time>2026-04-05T08:02:16.138Z</time></trkpt><trkpt lat="43.4206726" lon="11.1803205"><ele>183.0</ele><time>2026-04-05T08:02:17.139Z</time></trkpt><trkpt lat="43.4207525" lon="11.1802906"><ele>181.5</ele><time>2026-04-05T08:02:18.122Z</time></trkpt><trkpt lat="43.4208343" lon="11.180259"><ele>180.0</ele><time>2026-04-05T08:02:19.147Z</time></trkpt><trkpt lat="43.4209117" lon="11.1802243"><ele>180.0</ele><time>2026-04-05T08:02:20.131Z</time></trkpt><trkpt lat="43.4209848" lon="11.1801812"><ele>180.0</ele><time>2026-04-05T08:02:21.154Z</time></trkpt><trkpt lat="43.4210509" lon="11.1801385"><ele>180.0</ele><time>2026-04-05T08:02:22.159Z</time></trkpt><trkpt lat="43.4211439" lon="11.1800819"><ele>180.0</ele><time>2026-04-05T08:02:24.137Z</time></trkpt><trkpt lat="43.4211771" lon="11.1801784"><ele>180.0</ele><time>2026-04-05T08:02:29.136Z</time></trkpt><trkpt lat="43.4212234" lon="11.1802386"><ele>180.0</ele><time>2026-04-05T08:02:32.125Z</time></trkpt><trkpt lat="43.4212674" lon="11.1803235"><ele>180.0</ele><time>2026-04-05T08:02:35.128Z</time></trkpt><trkpt lat="43.4213046" lon="11.1804001"><ele>180.0</ele><time>2026-04-05T08:02:37.139Z</time></trkpt><trkpt lat="43.4213417" lon="11.1804823"><ele>180.0</ele><time>2026-04-05T08:02:39.139Z</time></trkpt><trkpt lat="43.4213824" lon="11.1805577"><ele>180.0</ele><time>2026-04-05T08:02:41.122Z</time></trkpt><trkpt lat="43.4214216" lon="11.1806263"><ele>180.0</ele><time>2026-04-05T08:02:43.131Z</time></trkpt><trkpt lat="43.4214743" lon="11.1807292"><ele>180.0</ele><time>2026-04-05T08:02:46.14Z</time></trkpt><trkpt lat="43.4215023" lon="11.180815"><ele>180.0</ele><time>2026-04-05T08:02:49.126Z</time></trkpt><trkpt lat="43.4215382" lon="11.1808966"><ele>179.14285714285714</ele><time>2026-04-05T08:02:52.142Z</time></trkpt><trkpt lat="43.4215933" lon="11.1809621"><ele>178.2857142857143</ele><time>2026-04-05T08:02:56.159Z</time></trkpt><trkpt lat="43.4216502" lon="11.1809211"><ele>177.42857142857144</ele><time>2026-04-05T08:03:01.142Z</time></trkpt><trkpt lat="43.4216427" lon="11.1808271"><ele>176.57142857142856</ele><time>2026-04-05T08:03:04.15Z</time></trkpt><trkpt lat="43.421654" lon="11.1807271"><ele>175.71428571428572</ele><time>2026-04-05T08:03:08.141Z</time></trkpt><trkpt lat="43.421716" lon="11.1806691"><ele>174.85714285714286</ele><time>2026-04-05T08:03:11.146Z</time></trkpt><trkpt lat="43.4217993" lon="11.1806113"><ele>174.0</ele><time>2026-04-05T08:03:14.141Z</time></trkpt><trkpt lat="43.4218539" lon="11.1805657"><ele>173.83333333333334</ele><time>2026-04-05T08:03:16.136Z</time></trkpt><trkpt lat="43.4219224" lon="11.1805032"><ele>173.66666666666666</ele><time>2026-04-05T08:03:19.133Z</time></trkpt><trkpt lat="43.4219945" lon="11.1804386"><ele>173.5</ele><time>2026-04-05T08:03:22.13Z</time></trkpt><trkpt lat="43.4220654" lon="11.1803808"><ele>173.33333333333331</ele><time>2026-04-05T08:03:25.145Z</time></trkpt><trkpt lat="43.4221347" lon="11.1803823"><ele>173.16666666666666</ele><time>2026-04-05T08:03:29.13Z</time></trkpt><trkpt lat="43.4221591" lon="11.180473"><ele>173.0</ele><time>2026-04-05T08:03:32.153Z</time></trkpt><trkpt lat="43.4221813" lon="11.1805738"><ele>172.83333333333331</ele><time>2026-04-05T08:03:35.128Z</time></trkpt><trkpt lat="43.4222" lon="11.1806779"><ele>172.66666666666666</ele><time>2026-04-05T08:03:39.134Z</time></trkpt><trkpt lat="43.4222459" lon="11.180778"><ele>172.5</ele><time>2026-04-05T08:03:42.134Z</time></trkpt><trkpt lat="43.422257" lon="11.1808661"><ele>172.33333333333334</ele><time>2026-04-05T08:03:44.142Z</time></trkpt><trkpt lat="43.4222857" lon="11.1809897"><ele>172.16666666666669</ele><time>2026-04-05T08:03:47.151Z</time></trkpt><trkpt lat="43.4222954" lon="11.1810771"><ele>172.0</ele><time>2026-04-05T08:03:49.146Z</time></trkpt><trkpt lat="43.422272" lon="11.1811648"><ele>170.0</ele><time>2026-04-05T08:03:52.134Z</time></trkpt><trkpt lat="43.4222017" lon="11.1812126"><ele>170.0</ele><time>2026-04-05T08:03:56.15Z</time></trkpt><trkpt lat="43.4221379" lon="11.1812109"><ele>174.0</ele><time>2026-04-05T08:04:01.131Z</time></trkpt></trkseg></trk></gpx>